[[{"header":{"parameterUnit":"m.s-1","parameterCategory":1,"la1":31.0,"la2":29.5877,"lo1":-88.7671,"lo2":-86.6584,"dy":0.0162,"dx":0.0185,"nx":115,"ny":88,"refTime":"2024-04-22T00:00:00:Z","depth":0,"parameterNumber":2,"parameterNumberName":"U-component_of_WINDS"},"data":[0.0,0.0,0.0,0.0,0.0,0.0,0.0,0.0,0.0,0.0,0.0,0.0,0.0,0.0,0.0,0.0,0.0,0.0,0.0,0.0,0.0,0.0,0.0,0.0,0.0,0.0,0.0,0.0,0.0,0.0,0.0,0.0,0.0,0.0,0.0,0.0,0.0,0.0,0.0,0.0,0.0,0.0,0.0,0.0,0.0,0.0,0.0,0.0,0.0,0.0,0.0,0.0,0.0,0.0,0.0,0.0,0.0,0.0,0.0,0.0,0.0,0.0,0.0,0.0,0.0,0.0,0.0,0.0,0.0,0.0,0.0,0.0,0.0,0.0,0.0,0.0,0.0,0.0,0.0,0.0,0.0,0.0,0.0,0.0,0.0,0.0,0.0,0.0,0.0,0.0,0.0,0.0,0.0,0.0,0.0,0.0,0.0,0.0,0.0,0.0,0.0,0.0,0.0,0.0,0.0,0.0,0.0,0.0,0.0,0.0,0.0,0.0,0.0,0.0,0.0,0.0,0.0,0.0,0.0,0.0,0.0,0.0,0.0,0.0,0.0,0.0,0.0,0.0,0.0,0.0,0.0,0.0,0.0,0.0,0.0,0.0,0.0,0.0,0.0,0.0,0.0,0.0,0.0,0.0,0.0,0.0,0.0,0.0,0.0,0.0,0.0,0.0,0.0,0.0,0.0,0.0,0.0,0.0,0.0,0.0,0.0,0.0,0.0,0.0,0.0,0.0,0.0,0.0,0.0,0.0,0.0,0.0,0.0,0.0,0.0,0.0,0.0,0.0,0.0,0.0,0.0,0.0,0.0,0.0,0.0,0.0,0.0,0.0,0.0,0.0,0.0,0.0,0.0,0.0,0.0,0.0,0.0,0.0,0.0,0.0,0.0,0.0,0.0,0.0,0.0,0.0,0.0,0.0,0.0,0.0,0.0,0.0,0.0,0.0,0.0,0.0,0.0,0.0,0.0,0.0,0.0,0.0,0.0,0.0,0.0,0.0,0.0,0.0,0.0,0.0,0.0,0.0,0.0,0.0,0.0,0.0,0.0,0.0,0.0,0.0,0.0,0.0,0.0,0.0,0.0,0.0,0.0,0.0,0.0,0.0,0.0,0.0,0.0,0.0,0.0,0.0,0.0,0.0,0.0,0.0,0.0,0.0,0.0,0.0,0.0,0.0,0.0,0.0,0.0,0.0,0.0,0.0,0.0,0.0,0.0,0.0,0.0,0.0,0.0,0.0,0.0,0.0,0.0,0.0,0.0,0.0,0.0,0.0,0.0,0.0,0.0,0.0,0.0,0.0,0.0,0.0,0.0,0.0,0.0,0.0,0.0,0.0,0.0,0.0,0.0,0.0,0.0,0.0,0.0,0.0,0.0,0.0,0.0,0.0,0.0,0.0,0.0,0.0,0.0,0.0,0.0,0.0,0.0,0.0,0.0,0.0,0.0,0.0,0.0,0.0,0.0,0.0,0.0,0.0,0.0,0.0,0.0,0.0,0.0,0.0,0.0,0.0,0.0,0.0,0.0,0.0,0.0,0.0,0.0,0.0,0.0,0.0,0.0,0.0,0.0,0.0,0.0,0.0,0.0,0.0,0.0,0.0,0.0,0.0,0.0,0.0,0.0,0.0,0.0,0.0,0.0,0.0,0.0,0.0,0.0,0.0,0.0,0.0,0.0,0.0,0.0,0.0,0.0,0.0,0.0,0.0,0.0,0.0,0.0,0.0,0.0,0.0,0.0,0.0,0.0,0.0,0.0,0.0,0.0,0.0,0.0,0.0,0.0,0.0,0.0,0.0,0.0,0.0,0.0,0.0,0.0,0.0,0.0,0.0,0.0,0.0,0.0,0.0,0.0,0.0,0.0,0.0,0.0,0.0,0.0,0.0,0.0,0.0,0.0,0.0,0.0,0.0,0.0,0.0,0.0,0.0,0.0,0.0,0.0,0.0,0.0,0.0,0.0,0.0,0.0,0.0,0.0,0.0,0.0,0.0,0.0,0.0,0.0,0.0,0.0,0.0,0.0,0.0,0.0,0.0,0.0,0.0,0.0,0.0,0.0,0.0,0.0,0.0,0.0,0.0,0.0,0.0,0.0,0.0,0.0,0.0,0.0,0.0,0.0,0.0,0.0,0.0,0.0,0.0,0.0,0.0,0.0,0.0,0.0,0.0,0.0,0.0,0.0,0.0,0.0,0.0,0.0,0.0,0.0,0.0,0.0,0.0,0.0,0.0,0.0,0.0,0.0,0.0,0.0,0.0,0.0,0.0,0.0,0.0,0.0,0.0,0.0,0.0,0.0,0.0,0.0,0.0,0.0,0.0,0.0,0.0,0.0,0.0,0.0,0.0,0.0,0.0,0.0,0.0,0.0,0.0,0.0,0.0,0.0,0.0,0.0,0.0,0.0,0.0,0.0,0.0,0.0,0.0,0.0,0.0,0.0,0.0,0.0,0.0,0.0,0.0,0.0,0.0,0.0,0.0,0.0,0.0,0.0,0.0,0.0,0.0,0.0,0.0,0.0,0.0,0.0,0.0,0.0,0.0,0.0,0.0,0.0,0.0,0.0,0.0,0.0,0.0,0.0,0.0,0.0,0.0,0.0,0.0,0.0,0.0,0.0,0.0,0.0,0.0,0.0,0.0,0.0,0.0,0.0,0.0,0.0,0.0,0.0,0.0,0.0,0.0,0.0,0.0,0.0,0.0,0.0,0.0,0.0,0.0,0.0,0.0,0.0,0.0,0.0,0.0,0.0,0.0,0.0,0.0,0.0,0.0,0.0,0.0,0.0,0.0,0.0,0.0,0.0,0.0,0.0,0.0,0.0,0.0,0.0,0.0,0.0,0.0,0.0,0.0,0.0,0.0,0.0,0.0,0.0,0.0,0.0,0.0,0.0,0.0,0.0,0.0,0.0,0.0,0.0,0.0,0.0,0.0,0.0,0.0,0.0,0.0,0.0,0.0,0.0,0.0,0.0,0.0,0.0,0.0,0.0,0.0,0.0,0.0,0.0,0.0,0.0,0.0,0.0,0.0,0.0,0.0,0.0,0.0,0.0,0.0,0.0,0.0,0.0,0.0,0.0,0.0,0.0,0.0,0.0,0.0,0.0,0.0,0.0,0.0,0.0,0.0,0.0,0.0,0.0,0.0,0.0,0.0,0.0,0.0,0.0,0.0,0.0,0.0,0.0,0.0,0.0,0.0,0.0,0.0,0.0,0.0,0.0,0.0,0.0,0.0,0.0,0.0,0.0,0.0,0.0,0.0,0.0,0.0,0.0,0.0,0.0,0.0,0.0,0.0,0.0,0.0,0.0,0.0,0.0,0.0,0.0,0.0,0.0,0.0,0.0,0.0,0.0,0.0,0.0,0.0,0.0,0.0,0.0,0.0,0.0,0.0,0.0,0.0,0.0,0.0,0.0,0.0,0.0,0.0,0.0,0.0,0.0,0.0,0.0,0.0,0.0,0.0,0.0,0.0,0.0,0.0,0.0,0.0,0.0,0.0,0.0,0.0,0.0,0.0,0.0,0.0,0.0,0.0,0.0,0.0,0.0,0.0,0.0,0.0,0.0,0.0,0.0,0.0,0.0,0.0,0.0,0.0,0.0,0.0,0.0,0.0,0.0,0.0,0.0,0.0,0.0,0.0,0.0,0.0,0.0,0.0,0.0,0.0,0.0,0.0,0.0,0.0,0.0,0.0,0.0,0.0,0.0,0.0,0.0,0.0,0.0,0.0,0.0,0.0,0.0,0.0,0.0,0.0,0.0,0.0,0.0,0.0,0.0,0.0,0.0,0.0,0.0,0.0,0.0,0.0,0.0,0.0,0.0,0.0,0.0,0.0,0.0,0.0,0.0,0.0,0.0,0.0,0.0,0.0,0.0,0.0,0.0,0.0,0.0,0.0,0.0,0.0,0.0,0.0,0.0,0.0,0.0,0.0,0.0,0.0,0.0,0.0,0.0,0.0,0.0,0.0,0.0,0.0,0.0,0.0,0.0,0.0,0.0,0.0,0.0,0.0,0.0,0.0,0.0,0.0,0.0,0.0,0.0,0.0,0.0,0.0,0.0,0.0,0.0,0.0,0.0,0.0,0.0,0.0,0.0,0.0,0.0,0.0,0.0,0.0,0.0,0.0,0.0,0.0,0.0,0.0,0.0,0.0,0.0,0.0,0.0,0.0,0.0,0.0,0.0,0.0,0.0,0.0,0.0,0.0,0.0,0.0,0.0,0.0,0.0,0.0,0.0,0.0,0.0,0.0,0.0,0.0,0.0,0.0,0.0,0.0,-1.2548,0.0,0.0,0.0,0.0,0.0,0.0,0.0,0.0,0.0,0.0,0.0,0.0,0.0,0.0,0.0,0.0,0.0,0.0,0.0,0.0,0.0,0.0,0.0,0.0,0.0,0.0,0.0,0.0,0.0,0.0,0.0,0.0,0.0,0.0,0.0,0.0,0.0,0.0,0.0,0.0,0.0,0.0,0.0,0.0,0.0,0.0,0.0,0.0,0.0,0.0,0.0,0.0,0.0,0.0,0.0,0.0,0.0,0.0,0.0,0.0,0.0,0.0,0.0,0.0,0.0,0.0,0.0,0.0,0.0,0.0,0.0,0.0,0.0,0.0,0.0,0.0,0.0,0.0,0.0,0.0,0.0,0.0,0.0,0.0,0.0,0.0,0.0,0.0,0.0,0.0,0.0,0.0,0.0,0.0,0.0,0.0,0.0,0.0,0.0,0.0,0.0,0.0,0.0,0.0,0.0,0.0,0.0,0.0,0.0,0.0,-1.5659,-1.5524,-1.4999,-1.4289,-1.338,0.0,0.0,0.0,0.0,0.0,0.0,0.0,0.0,0.0,0.0,0.0,0.0,0.0,0.0,0.0,0.0,0.0,0.0,0.0,0.0,0.0,0.0,0.0,0.0,0.0,0.0,0.0,0.0,0.0,0.0,0.0,0.0,0.0,0.0,0.0,0.0,0.0,0.0,0.0,0.0,0.0,0.0,0.0,0.0,0.0,0.0,0.0,0.0,0.0,0.0,0.0,0.0,0.0,0.0,0.0,0.0,0.0,0.0,0.0,0.0,0.0,0.0,0.0,0.0,0.0,0.0,0.0,0.0,0.0,0.0,0.0,0.0,0.0,0.0,0.0,0.0,0.0,0.0,0.0,0.0,0.0,0.0,0.0,0.0,0.0,0.0,0.0,0.0,0.0,0.0,0.0,0.0,0.0,0.0,0.0,0.0,0.0,0.0,0.0,0.0,0.0,0.0,0.0,0.0,0.0,0.0,0.0,0.0,0.0,0.0,0.0,0.0,-1.6162,-1.5227,-1.4047,0.0,0.0,0.0,0.0,0.0,0.0,0.0,0.0,0.0,0.0,0.0,0.0,0.0,0.0,0.0,0.0,0.0,0.0,0.0,0.0,0.0,0.0,0.0,0.0,0.0,0.0,0.0,0.0,0.0,0.0,0.0,0.0,0.0,0.0,0.0,0.0,0.0,0.0,0.0,0.0,0.0,0.0,0.0,0.0,0.0,0.0,0.0,0.0,0.0,0.0,0.0,0.0,0.0,0.0,0.0,0.0,0.0,0.0,0.0,0.0,0.0,0.0,0.0,0.0,0.0,0.0,0.0,0.0,0.0,0.0,0.0,0.0,0.0,0.0,0.0,0.0,0.0,0.0,0.0,0.0,0.0,0.0,0.0,0.0,0.0,0.0,0.0,0.0,0.0,0.0,0.0,0.0,0.0,0.0,0.0,0.0,0.0,0.0,0.0,0.0,0.0,0.0,0.0,0.0,0.0,0.0,0.0,0.0,0.0,0.0,-1.7491,-1.7415,-1.7105,0.0,-1.4194,0.0,0.0,0.0,0.0,0.0,0.0,0.0,0.0,0.0,0.0,0.0,0.0,0.0,0.0,0.0,0.0,0.0,0.0,0.0,0.0,0.0,0.0,0.0,0.0,0.0,0.0,0.0,0.0,0.0,0.0,0.0,0.0,0.0,0.0,0.0,0.0,0.0,0.0,0.0,0.0,0.0,0.0,0.0,0.0,0.0,0.0,0.0,0.0,0.0,0.0,0.0,0.0,0.0,0.0,0.0,0.0,0.0,0.0,0.0,0.0,0.0,0.0,0.0,0.0,0.0,0.0,0.0,0.0,0.0,0.0,0.0,0.0,0.0,0.0,0.0,0.0,0.0,0.0,0.0,0.0,0.0,0.0,0.0,0.0,0.0,0.0,0.0,0.0,0.0,0.0,0.0,0.0,0.0,0.0,0.0,0.0,0.0,0.0,0.0,0.0,0.0,0.0,0.0,0.0,0.0,0.0,0.0,0.0,0.0,0.0,-1.7958,-1.7865,-1.7087,-1.597,0.0,0.0,0.0,0.0,0.0,0.0,0.0,0.0,0.0,0.0,0.0,0.0,0.0,0.0,0.0,0.0,0.0,0.0,0.0,0.0,0.0,0.0,0.0,0.0,0.0,0.0,0.0,0.0,0.0,0.0,0.0,0.0,0.0,0.0,0.0,0.0,0.0,0.0,0.0,0.0,0.0,0.0,0.0,0.0,0.0,0.0,0.0,0.0,0.0,0.0,0.0,0.0,0.0,0.0,0.0,0.0,0.0,0.0,0.0,0.0,0.0,0.0,0.0,0.0,0.0,0.0,0.0,0.0,0.0,0.0,0.0,0.0,0.0,0.0,0.0,0.0,0.0,0.0,0.0,0.0,0.0,0.0,0.0,0.0,0.0,0.0,0.0,0.0,0.0,0.0,0.0,0.0,0.0,0.0,0.0,0.0,0.0,0.0,0.0,0.0,0.0,0.0,0.0,0.0,0.0,0.0,0.0,0.0,0.0,0.0,-1.8528,-1.8403,-1.818,-1.7322,-1.6188,-1.4803,0.0,0.0,0.0,0.0,0.0,0.0,0.0,0.0,0.0,0.0,0.0,0.0,0.0,0.0,0.0,0.0,0.0,0.0,0.0,0.0,0.0,0.0,0.0,0.0,0.0,0.0,0.0,0.0,0.0,0.0,0.0,0.0,0.0,0.0,0.0,0.0,0.0,0.0,0.0,0.0,0.0,0.0,0.0,0.0,0.0,0.0,0.0,0.0,0.0,0.0,0.0,0.0,0.0,0.0,0.0,0.0,0.0,0.0,0.0,0.0,0.0,0.0,0.0,0.0,0.0,0.0,0.0,0.0,0.0,0.0,0.0,0.0,0.0,0.0,0.0,0.0,0.0,0.0,0.0,0.0,0.0,0.0,0.0,0.0,0.0,0.0,0.0,0.0,0.0,0.0,0.0,0.0,0.0,0.0,0.0,0.0,0.0,0.0,0.0,0.0,0.0,0.0,0.0,0.0,0.0,0.0,0.0,0.0,-1.9056,-1.9007,-1.8807,-1.8502,-1.8101,-1.7069,0.0,0.0,0.0,0.0,0.0,0.0,0.0,0.0,0.0,0.0,0.0,0.0,0.0,0.0,0.0,0.0,0.0,0.0,0.0,0.0,0.0,0.0,0.0,0.0,0.0,0.0,0.0,0.0,0.0,0.0,0.0,0.0,0.0,0.0,0.0,0.0,0.0,0.0,0.0,0.0,0.0,0.0,0.0,0.0,0.0,0.0,0.0,0.0,0.0,0.0,0.0,0.0,0.0,0.0,0.0,0.0,0.0,0.0,0.0,0.0,0.0,0.0,0.0,0.0,0.0,0.0,0.0,0.0,0.0,0.0,0.0,0.0,0.0,0.0,0.0,0.0,0.0,0.0,0.0,0.0,0.0,0.0,0.0,0.0,0.0,0.0,0.0,0.0,0.0,0.0,0.0,0.0,0.0,0.0,0.0,0.0,0.0,0.0,0.0,0.0,0.0,0.0,0.0,0.0,0.0,0.0,0.0,0.0,0.0,-1.9408,-1.9365,-1.9204,-1.8945,-1.8671,-1.7602,0.0,0.0,0.0,0.0,0.0,0.0,0.0,0.0,0.0,0.0,0.0,0.0,0.0,0.0,0.0,0.0,0.0,0.0,0.0,0.0,0.0,0.0,0.0,0.0,0.0,0.0,0.0,0.0,0.0,0.0,0.0,0.0,0.0,0.0,0.0,0.0,0.0,0.0,0.0,0.0,0.0,0.0,0.0,0.0,0.0,0.0,0.0,0.0,0.0,0.0,0.0,0.0,0.0,0.0,0.0,0.0,0.0,0.0,0.0,0.0,0.0,0.0,0.0,0.0,0.0,0.0,0.0,0.0,0.0,0.0,0.0,0.0,0.0,0.0,0.0,0.0,0.0,0.0,0.0,0.0,0.0,0.0,0.0,0.0,0.0,0.0,0.0,0.0,0.0,0.0,0.0,0.0,0.0,0.0,0.0,0.0,0.0,0.0,0.0,0.0,0.0,0.0,0.0,0.0,0.0,0.0,0.0,0.0,0.0,-1.9716,0.0,-1.9576,-1.9385,-1.9139,-1.8168,0.0,0.0,0.0,0.0,0.0,0.0,0.0,0.0,0.0,0.0,0.0,0.0,0.0,0.0,0.0,0.0,0.0,0.0,0.0,0.0,0.0,0.0,0.0,0.0,0.0,0.0,0.0,0.0,0.0,0.0,0.0,0.0,0.0,0.0,0.0,0.0,0.0,0.0,0.0,0.0,0.0,0.0,0.0,0.0,0.0,0.0,0.0,0.0,0.0,0.0,0.0,0.0,0.0,0.0,0.0,0.0,0.0,0.0,0.0,0.0,0.0,0.0,0.0,0.0,0.0,0.0,0.0,0.0,0.0,0.0,0.0,0.0,0.0,0.0,0.0,0.0,0.0,0.0,0.0,0.0,0.0,0.0,0.0,0.0,0.0,0.0,0.0,0.0,0.0,0.0,0.0,0.0,0.0,0.0,0.0,0.0,0.0,0.0,0.0,0.0,0.0,0.0,0.0,0.0,0.0,0.0,0.0,0.0,-1.9917,-2.0016,-2.0014,-1.9941,-1.979,-1.9551,-1.8827,0.0,0.0,0.0,0.0,0.0,0.0,0.0,0.0,0.0,0.0,0.0,0.0,0.0,0.0,0.0,0.0,0.0,0.0,0.0,0.0,0.0,0.0,0.0,0.0,0.0,0.0,0.0,0.0,0.0,0.0,0.0,0.0,0.0,0.0,0.0,0.0,0.0,0.0,0.0,0.0,0.0,0.0,0.0,0.0,0.0,0.0,0.0,0.0,0.0,0.0,0.0,0.0,0.0,0.0,0.0,0.0,0.0,0.0,0.0,0.0,0.0,0.0,0.0,0.0,0.0,0.0,0.0,0.0,0.0,0.0,0.0,0.0,0.0,0.0,0.0,0.0,0.0,0.0,0.0,0.0,0.0,0.0,0.0,0.0,0.0,0.0,0.0,0.0,0.0,0.0,0.0,0.0,0.0,0.0,0.0,0.0,0.0,0.0,0.0,0.0,0.0,0.0,0.0,0.0,0.0,0.0,0.0,0.0,0.0,-2.0212,-2.0206,-2.0161,-2.0064,-1.9849,-1.9194,0.0,0.0,0.0,0.0,0.0,0.0,0.0,0.0,0.0,0.0,0.0,0.0,0.0,0.0,0.0,0.0,0.0,0.0,0.0,0.0,0.0,0.0,0.0,0.0,0.0,0.0,0.0,0.0,0.0,0.0,0.0,0.0,0.0,0.0,0.0,0.0,0.0,0.0,0.0,0.0,0.0,0.0,0.0,0.0,0.0,0.0,0.0,0.0,0.0,0.0,0.0,0.0,0.0,0.0,0.0,0.0,0.0,0.0,0.0,0.0,0.0,0.0,0.0,0.0,0.0,0.0,0.0,0.0,0.0,0.0,0.0,0.0,0.0,0.0,0.0,0.0,0.0,0.0,0.0,0.0,0.0,0.0,0.0,0.0,0.0,0.0,0.0,0.0,0.0,0.0,0.0,0.0,0.0,0.0,0.0,0.0,0.0,0.0,0.0,0.0,0.0,0.0,0.0,0.0,0.0,0.0,0.0,0.0,0.0,-2.0043,-2.0192,-2.0247,-2.0208,-2.005,-1.9592,-1.8807,0.0,0.0,0.0,0.0,0.0,0.0,0.0,0.0,0.0,0.0,0.0,0.0,0.0,0.0,0.0,0.0,0.0,0.0,0.0,0.0,0.0,0.0,0.0,0.0,0.0,0.0,0.0,0.0,0.0,0.0,0.0,0.0,0.0,0.0,0.0,0.0,0.0,0.0,0.0,0.0,0.0,0.0,0.0,0.0,0.0,0.0,0.0,0.0,0.0,0.0,0.0,0.0,0.0,0.0,0.0,0.0,0.0,0.0,0.0,0.0,0.0,0.0,0.0,0.0,0.0,0.0,0.0,0.0,0.0,0.0,0.0,0.0,0.0,0.0,0.0,0.0,0.0,0.0,0.0,0.0,0.0,0.0,0.0,0.0,0.0,0.0,0.0,0.0,0.0,0.0,0.0,0.0,0.0,0.0,0.0,0.0,0.0,0.0,0.0,0.0,0.0,0.0,0.0,0.0,0.0,0.0,0.0,0.0,-1.9529,-1.991,-2.0142,-2.0184,-2.0112,-2.0022,0.0,0.0,0.0,0.0,0.0,0.0,0.0,0.0,0.0,0.0,0.0,0.0,0.0,0.0,0.0,0.0,0.0,0.0,0.0,0.0,0.0,0.0,0.0,0.0,0.0,0.0,0.0,0.0,0.0,0.0,0.0,0.0,0.0,0.0,0.0,0.0,0.0,0.0,0.0,0.0,0.0,0.0,0.0,0.0,0.0,0.0,0.0,0.0,0.0,0.0,0.0,0.0,0.0,0.0,0.0,0.0,0.0,0.0,0.0,0.0,0.0,0.0,0.0,0.0,0.0,0.0,0.0,0.0,0.0,0.0,0.0,0.0,0.0,0.0,0.0,0.0,0.0,0.0,0.0,0.0,0.0,0.0,0.0,0.0,0.0,0.0,0.0,0.0,0.0,0.0,0.0,0.0,0.0,0.0,0.0,0.0,0.0,0.0,0.0,0.0,0.0,0.0,0.0,0.0,0.0,0.0,0.0,0.0,0.0,-1.8723,-1.8907,-1.9317,-1.9957,-2.0063,-2.0077,0.0,0.0,0.0,0.0,0.0,0.0,0.0,0.0,0.0,0.0,0.0,0.0,0.0,0.0,0.0,0.0,0.0,0.0,0.0,0.0,0.0,0.0,0.0,0.0,0.0,0.0,0.0,0.0,0.0,0.0,0.0,0.0,0.0,0.0,0.0,0.0,0.0,0.0,0.0,0.0,0.0,0.0,0.0,0.0,0.0,0.0,0.0,0.0,0.0,0.0,0.0,0.0,0.0,0.0,0.0,0.0,0.0,0.0,0.0,0.0,0.0,0.0,0.0,0.0,0.0,0.0,0.0,0.0,0.0,0.0,0.0,0.0,0.0,0.0,0.0,0.0,0.0,0.0,0.0,0.0,0.0,0.0,0.0,0.0,0.0,0.0,0.0,0.0,0.0,0.0,0.0,0.0,0.0,0.0,0.0,0.0,0.0,0.0,0.0,0.0,0.0,0.0,0.0,0.0,0.0,0.0,0.0,0.0,-1.8322,-1.8157,-1.8306,-1.8728,-1.9408,-1.9728,-1.9945,0.0,0.0,0.0,0.0,0.0,0.0,0.0,0.0,0.0,0.0,0.0,0.0,0.0,0.0,0.0,0.0,0.0,0.0,0.0,0.0,0.0,0.0,0.0,0.0,0.0,0.0,0.0,0.0,0.0,0.0,0.0,0.0,0.0,0.0,0.0,0.0,0.0,0.0,0.0,0.0,0.0,0.0,0.0,0.0,0.0,0.0,0.0,0.0,0.0,0.0,0.0,0.0,0.0,0.0,0.0,0.0,0.0,0.0,0.0,0.0,0.0,0.0,0.0,0.0,0.0,0.0,0.0,0.0,0.0,0.0,0.0,0.0,0.0,0.0,0.0,0.0,0.0,0.0,0.0,0.0,0.0,0.0,0.0,0.0,0.0,0.0,0.0,0.0,0.0,0.0,0.0,0.0,0.0,0.0,0.0,0.0,0.0,0.0,0.0,0.0,0.0,0.0,0.0,0.0,0.0,0.0,0.0,0.0,-1.785,-1.7707,-1.7912,-1.8222,-1.8682,-1.9221,-1.9672,0.0,0.0,0.0,0.0,0.0,0.0,0.0,0.0,0.0,0.0,0.0,0.0,0.0,0.0,0.0,0.0,0.0,0.0,0.0,0.0,0.0,0.0,0.0,0.0,0.0,0.0,0.0,0.0,0.0,0.0,0.0,0.0,0.0,0.0,0.0,0.0,0.0,0.0,0.0,0.0,0.0,0.0,0.0,0.0,0.0,0.0,0.0,0.0,0.0,0.0,0.0,0.0,0.0,0.0,0.0,0.0,0.0,0.0,0.0,0.0,0.0,0.0,0.0,0.0,0.0,0.0,0.0,0.0,0.0,0.0,0.0,0.0,0.0,0.0,0.0,0.0,0.0,0.0,0.0,0.0,0.0,0.0,0.0,0.0,0.0,0.0,0.0,0.0,0.0,0.0,0.0,0.0,0.0,0.0,0.0,0.0,0.0,0.0,0.0,0.0,0.0,0.0,0.0,0.0,0.0,0.0,0.0,0.0,-1.6818,-1.7084,-1.7388,-1.762,-1.7765,-1.86,-1.9273,0.0,0.0,0.0,0.0,0.0,0.0,0.0,0.0,0.0,0.0,0.0,0.0,0.0,0.0,0.0,0.0,0.0,0.0,0.0,0.0,0.0,0.0,0.0,0.0,0.0,0.0,0.0,0.0,0.0,0.0,0.0,0.0,0.0,0.0,0.0,0.0,0.0,0.0,0.0,0.0,0.0,0.0,0.0,0.0,0.0,0.0,0.0,0.0,-2.2573,0.0,0.0,0.0,0.0,0.0,0.0,0.0,0.0,0.0,0.0,0.0,0.0,0.0,0.0,0.0,0.0,0.0,0.0,0.0,0.0,0.0,0.0,0.0,0.0,0.0,0.0,0.0,0.0,0.0,0.0,0.0,0.0,0.0,0.0,0.0,0.0,0.0,0.0,0.0,0.0,0.0,0.0,0.0,0.0,0.0,0.0,0.0,0.0,0.0,0.0,0.0,0.0,0.0,0.0,0.0,0.0,0.0,0.0,0.0,-1.6431,-1.6583,-1.6936,-1.7282,-1.7637,-1.8029,-1.8627,0.0,0.0,0.0,0.0,0.0,0.0,0.0,0.0,0.0,0.0,0.0,0.0,0.0,0.0,0.0,0.0,0.0,0.0,0.0,0.0,0.0,0.0,0.0,0.0,0.0,0.0,0.0,0.0,0.0,0.0,0.0,0.0,0.0,0.0,0.0,0.0,0.0,0.0,0.0,0.0,0.0,0.0,0.0,0.0,0.0,0.0,0.0,0.0,0.0,0.0,0.0,0.0,0.0,0.0,0.0,0.0,0.0,0.0,0.0,0.0,0.0,0.0,0.0,0.0,0.0,0.0,0.0,0.0,0.0,0.0,0.0,0.0,0.0,0.0,0.0,0.0,0.0,0.0,0.0,0.0,0.0,0.0,0.0,0.0,0.0,0.0,0.0,0.0,0.0,0.0,0.0,0.0,0.0,0.0,0.0,0.0,0.0,0.0,0.0,0.0,0.0,0.0,0.0,0.0,0.0,0.0,0.0,-1.586,-1.6178,-1.6156,-1.652,-1.6998,-1.7576,-1.7501,-1.7907,-1.8885,0.0,0.0,0.0,0.0,0.0,0.0,0.0,0.0,0.0,0.0,0.0,0.0,0.0,0.0,0.0,0.0,0.0,0.0,0.0,0.0,0.0,0.0,0.0,0.0,0.0,0.0,0.0,0.0,0.0,0.0,0.0,0.0,0.0,0.0,0.0,0.0,0.0,0.0,-1.9154,-2.0618,0.0,0.0,0.0,0.0,0.0,0.0,0.0,0.0,-2.3913,0.0,0.0,0.0,0.0,0.0,0.0,0.0,0.0,0.0,0.0,0.0,0.0,0.0,0.0,0.0,0.0,0.0,0.0,0.0,0.0,0.0,0.0,0.0,0.0,0.0,0.0,0.0,0.0,0.0,0.0,0.0,0.0,0.0,0.0,0.0,0.0,0.0,0.0,0.0,0.0,0.0,0.0,0.0,0.0,0.0,0.0,0.0,0.0,0.0,0.0,0.0,0.0,0.0,0.0,0.0,0.0,-1.479,-1.5154,-1.5498,-1.5849,-1.6218,-1.6489,-1.6717,-1.7015,-1.7478,-1.8153,0.0,0.0,0.0,0.0,0.0,0.0,0.0,0.0,0.0,0.0,0.0,0.0,0.0,0.0,0.0,0.0,0.0,0.0,0.0,0.0,0.0,0.0,0.0,0.0,0.0,0.0,0.0,0.0,0.0,0.0,0.0,0.0,0.0,0.0,0.0,0.0,0.0,0.0,0.0,-2.2306,-2.3188,0.0,0.0,0.0,0.0,0.0,0.0,0.0,0.0,-2.4418,0.0,0.0,0.0,0.0,0.0,0.0,0.0,0.0,0.0,0.0,0.0,0.0,0.0,0.0,0.0,0.0,0.0,0.0,0.0,0.0,0.0,0.0,0.0,0.0,0.0,0.0,0.0,0.0,0.0,0.0,0.0,0.0,0.0,0.0,0.0,0.0,0.0,0.0,0.0,0.0,0.0,0.0,0.0,0.0,0.0,0.0,0.0,0.0,0.0,0.0,0.0,0.0,0.0,0.0,0.0,-1.4257,-1.4629,-1.4967,-1.5243,-1.5512,-1.5874,-1.6281,-1.6413,-1.691,0.0,0.0,0.0,0.0,0.0,0.0,0.0,0.0,0.0,0.0,0.0,0.0,0.0,0.0,0.0,0.0,0.0,0.0,0.0,0.0,0.0,0.0,0.0,0.0,0.0,0.0,0.0,0.0,0.0,0.0,0.0,0.0,0.0,0.0,0.0,0.0,0.0,0.0,0.0,0.0,-2.273,-2.3768,-2.4584,0.0,0.0,0.0,0.0,0.0,0.0,-2.5465,-2.5532,0.0,0.0,0.0,0.0,0.0,0.0,0.0,0.0,0.0,0.0,0.0,0.0,0.0,0.0,0.0,0.0,0.0,0.0,0.0,0.0,0.0,0.0,0.0,0.0,0.0,0.0,0.0,0.0,0.0,0.0,0.0,0.0,0.0,0.0,0.0,0.0,0.0,0.0,0.0,0.0,0.0,0.0,0.0,0.0,0.0,0.0,0.0,0.0,0.0,0.0,0.0,0.0,0.0,0.0,0.0,-1.3645,-1.415,-1.4454,-1.4512,-1.4766,-1.5243,-1.5862,-1.575,-1.6211,0.0,0.0,0.0,0.0,0.0,0.0,0.0,0.0,0.0,0.0,0.0,0.0,0.0,0.0,0.0,0.0,0.0,0.0,0.0,0.0,0.0,0.0,0.0,0.0,0.0,0.0,0.0,0.0,0.0,0.0,0.0,0.0,0.0,0.0,0.0,0.0,0.0,0.0,0.0,0.0,0.0,-2.4017,-2.4658,-2.5452,0.0,0.0,0.0,0.0,-2.6104,-2.6191,0.0,0.0,0.0,0.0,0.0,0.0,0.0,0.0,0.0,0.0,0.0,0.0,0.0,0.0,0.0,0.0,0.0,0.0,0.0,0.0,0.0,0.0,0.0,0.0,0.0,0.0,0.0,0.0,0.0,0.0,0.0,0.0,0.0,0.0,0.0,0.0,0.0,0.0,0.0,0.0,0.0,0.0,0.0,0.0,0.0,0.0,0.0,0.0,0.0,0.0,0.0,0.0,0.0,0.0,0.0,0.0,-1.3048,-1.3599,-1.3915,-1.3905,-1.4163,-1.4593,-1.5198,-1.4976,-1.5446,0.0,0.0,0.0,0.0,0.0,0.0,0.0,0.0,0.0,0.0,0.0,0.0,0.0,0.0,0.0,0.0,0.0,0.0,0.0,0.0,0.0,0.0,0.0,0.0,0.0,0.0,0.0,0.0,0.0,0.0,0.0,0.0,0.0,0.0,0.0,0.0,0.0,0.0,0.0,0.0,0.0,-2.4163,-2.4199,-2.4835,-2.5366,0.0,0.0,-2.5552,-2.573,-2.5818,0.0,0.0,0.0,0.0,0.0,0.0,0.0,0.0,0.0,0.0,0.0,0.0,0.0,0.0,0.0,0.0,0.0,0.0,0.0,0.0,0.0,0.0,0.0,0.0,0.0,0.0,0.0,0.0,0.0,0.0,0.0,0.0,0.0,0.0,0.0,0.0,0.0,0.0,0.0,0.0,0.0,0.0,0.0,0.0,0.0,0.0,0.0,0.0,0.0,0.0,0.0,0.0,0.0,0.0,0.0,-1.2721,-1.2307,-1.2878,-1.319,-1.3242,-1.3423,-1.3723,-1.4183,-1.4143,-1.4601,0.0,0.0,0.0,0.0,0.0,0.0,0.0,0.0,0.0,0.0,0.0,0.0,0.0,0.0,0.0,0.0,0.0,0.0,0.0,0.0,0.0,0.0,0.0,0.0,0.0,0.0,0.0,0.0,0.0,0.0,0.0,0.0,0.0,0.0,0.0,0.0,0.0,0.0,0.0,0.0,0.0,0.0,-2.4967,-2.5657,0.0,0.0,0.0,-2.6454,-2.669,0.0,0.0,0.0,0.0,0.0,0.0,0.0,0.0,0.0,0.0,0.0,0.0,0.0,0.0,0.0,0.0,0.0,0.0,0.0,0.0,0.0,0.0,0.0,0.0,0.0,0.0,0.0,0.0,0.0,0.0,0.0,0.0,0.0,0.0,0.0,0.0,0.0,0.0,0.0,0.0,0.0,0.0,0.0,0.0,0.0,0.0,0.0,0.0,0.0,0.0,0.0,0.0,0.0,0.0,0.0,0.0,0.0,-1.1683,-1.2248,-1.2593,-1.2604,-1.2691,-1.2909,-1.3253,-1.3312,0.0,0.0,0.0,0.0,0.0,0.0,0.0,0.0,0.0,0.0,0.0,0.0,0.0,0.0,0.0,0.0,0.0,0.0,0.0,0.0,0.0,0.0,0.0,0.0,0.0,0.0,0.0,-1.726,0.0,0.0,0.0,0.0,0.0,0.0,0.0,0.0,0.0,0.0,0.0,0.0,0.0,0.0,-2.4853,-2.5377,-2.6101,-2.6624,0.0,0.0,-2.6989,-2.7277,-2.7404,-2.7511,0.0,0.0,0.0,0.0,0.0,0.0,0.0,0.0,0.0,0.0,0.0,0.0,0.0,0.0,0.0,0.0,0.0,0.0,0.0,0.0,0.0,0.0,0.0,0.0,0.0,0.0,0.0,0.0,0.0,0.0,0.0,0.0,0.0,0.0,0.0,0.0,0.0,0.0,0.0,0.0,0.0,0.0,0.0,0.0,0.0,0.0,0.0,0.0,0.0,0.0,0.0,0.0,0.0,0.0,-1.1541,-1.136,-1.1854,-1.215,-1.2166,-1.2025,-1.2147,-1.2557,-1.2444,-1.2919,0.0,0.0,0.0,0.0,0.0,0.0,0.0,0.0,0.0,0.0,0.0,0.0,0.0,0.0,0.0,0.0,0.0,0.0,0.0,0.0,0.0,0.0,0.0,0.0,0.0,0.0,0.0,0.0,0.0,0.0,0.0,0.0,0.0,0.0,0.0,0.0,0.0,0.0,0.0,0.0,0.0,-2.4774,-2.4787,-2.5443,-2.601,0.0,-2.6262,-2.6487,-2.6791,-2.6974,-2.7137,-2.7388,0.0,0.0,0.0,0.0,0.0,0.0,0.0,0.0,0.0,0.0,0.0,0.0,0.0,0.0,0.0,0.0,0.0,0.0,0.0,0.0,0.0,0.0,0.0,0.0,0.0,0.0,0.0,0.0,0.0,0.0,0.0,0.0,0.0,0.0,0.0,0.0,0.0,0.0,0.0,0.0,0.0,0.0,0.0,0.0,0.0,0.0,0.0,0.0,0.0,0.0,0.0,0.0,0.0,-1.1003,-1.0709,-1.1197,-1.1414,-1.1259,-1.1274,-1.132,-1.1375,-1.1665,-1.2169,0.0,0.0,0.0,0.0,0.0,0.0,0.0,0.0,0.0,0.0,0.0,0.0,0.0,0.0,0.0,0.0,0.0,0.0,0.0,0.0,0.0,0.0,0.0,0.0,0.0,0.0,0.0,0.0,-1.8663,-1.908,-1.9866,0.0,0.0,0.0,0.0,0.0,0.0,0.0,0.0,0.0,0.0,-2.4281,-2.471,-2.5054,0.0,0.0,-2.5758,-2.6049,-2.6435,-2.6572,-2.6708,-2.6923,-2.6972,0.0,0.0,0.0,0.0,0.0,0.0,0.0,0.0,0.0,0.0,0.0,0.0,0.0,0.0,0.0,0.0,0.0,0.0,0.0,0.0,0.0,0.0,0.0,0.0,0.0,0.0,0.0,0.0,0.0,0.0,0.0,0.0,0.0,0.0,0.0,0.0,0.0,0.0,0.0,0.0,0.0,0.0,0.0,0.0,0.0,0.0,0.0,0.0,0.0,0.0,0.0,0.0,-1.0529,-1.0317,-1.073,-1.0797,-1.0527,-1.0583,-1.0578,-1.0552,-1.0934,-1.1459,0.0,0.0,0.0,0.0,0.0,0.0,0.0,0.0,0.0,0.0,0.0,0.0,0.0,0.0,0.0,0.0,0.0,0.0,0.0,0.0,0.0,0.0,0.0,0.0,0.0,0.0,0.0,0.0,-1.9364,-1.9595,-2.0243,0.0,0.0,0.0,0.0,0.0,0.0,0.0,0.0,0.0,0.0,-2.3929,-2.4491,-2.4709,-2.492,-2.5194,-2.5648,-2.6125,-2.6541,-2.671,-2.6909,-2.7089,0.0,0.0,0.0,0.0,0.0,0.0,0.0,0.0,0.0,0.0,0.0,0.0,0.0,0.0,0.0,0.0,0.0,0.0,0.0,0.0,0.0,0.0,0.0,0.0,0.0,0.0,0.0,-1.0258,0.0,0.0,-1.0866,0.0,0.0,0.0,0.0,0.0,0.0,0.0,0.0,0.0,0.0,0.0,0.0,0.0,0.0,0.0,0.0,0.0,0.0,0.0,0.0,0.0,0.0,-1.0172,-1.0302,-1.0431,-1.0371,-1.0124,-0.9994,-0.9997,-1.0101,-1.0329,-1.0802,-1.1623,0.0,0.0,0.0,0.0,0.0,0.0,0.0,0.0,0.0,0.0,0.0,0.0,0.0,0.0,0.0,0.0,0.0,0.0,0.0,0.0,0.0,0.0,0.0,0.0,0.0,0.0,-1.9828,-2.004,-2.0087,0.0,0.0,0.0,0.0,0.0,0.0,0.0,0.0,0.0,-2.2778,-2.3428,-2.3846,-2.3997,-2.4405,-2.485,-2.5222,-2.6016,-2.672,-2.7169,-2.7522,-2.7825,0.0,0.0,0.0,0.0,0.0,0.0,0.0,0.0,0.0,0.0,0.0,0.0,0.0,0.0,0.0,0.0,0.0,0.0,0.0,0.0,0.0,0.0,0.0,0.0,0.0,0.0,0.0,-0.9991,-0.9954,0.0,0.0,0.0,0.0,0.0,0.0,0.0,0.0,0.0,0.0,0.0,-1.0798,-1.1108,0.0,0.0,0.0,0.0,0.0,0.0,0.0,0.0,0.0,0.0,0.0,0.0,-0.9755,-0.9783,-0.9842,-0.985,-0.9718,-0.951,-0.9577,-0.9825,-0.9949,-1.0629,-1.1952,0.0,0.0,0.0,0.0,0.0,0.0,0.0,0.0,0.0,0.0,0.0,0.0,0.0,0.0,0.0,0.0,0.0,0.0,0.0,0.0,0.0,0.0,0.0,0.0,0.0,-1.9565,0.0,0.0,0.0,0.0,0.0,0.0,0.0,0.0,0.0,0.0,0.0,-2.1504,-2.198,-2.2913,-2.3545,-2.3606,-2.4239,-2.4805,0.0,0.0,0.0,0.0,0.0,0.0,0.0,0.0,0.0,0.0,0.0,0.0,0.0,0.0,-2.7033,-2.6766,-2.6442,-2.598,-2.529,0.0,0.0,0.0,0.0,0.0,0.0,0.0,0.0,0.0,0.0,0.0,0.0,0.0,0.0,-0.9647,-0.9588,-0.9444,0.0,0.0,0.0,0.0,0.0,0.0,0.0,0.0,-1.0176,-1.0327,-1.0077,-1.0368,-1.0351,0.0,-0.9875,-0.9952,0.0,0.0,0.0,0.0,0.0,0.0,0.0,0.0,-0.9388,-0.9465,-0.9416,-0.9365,-0.9358,-0.9326,-0.9358,-0.9533,-0.9985,-1.0972,-1.2518,-1.3071,-1.3771,0.0,0.0,0.0,0.0,0.0,0.0,0.0,0.0,0.0,0.0,0.0,0.0,0.0,0.0,0.0,0.0,0.0,0.0,0.0,0.0,0.0,0.0,0.0,-2.0078,0.0,0.0,0.0,0.0,0.0,0.0,0.0,0.0,0.0,-2.012,-2.0646,-2.1147,-2.1623,-2.2498,-2.3094,-2.3156,0.0,0.0,0.0,0.0,0.0,0.0,0.0,-2.7554,-2.7878,-2.8024,-2.8153,-2.8307,-2.8491,-2.8533,-2.8302,0.0,0.0,-2.7396,-2.702,-2.6623,-2.6168,-2.5817,-2.5497,-2.514,-2.4946,-2.4814,0.0,0.0,0.0,0.0,0.0,0.0,0.0,0.0,-0.92,-0.9259,0.0,-0.9018,0.0,0.0,0.0,0.0,-0.8416,-0.8676,0.0,0.0,-0.9316,-0.9492,-0.955,-0.9542,-0.955,-0.9535,-0.9275,-0.9067,-0.8897,-0.9137,0.0,0.0,0.0,0.0,0.0,0.0,-0.9055,-0.934,-0.9106,-0.902,-0.909,-0.9326,-0.9408,-0.9286,-1.0449,-1.1727,-1.3063,-1.3217,-1.368,-1.4519,-1.4629,0.0,0.0,0.0,0.0,0.0,0.0,0.0,0.0,0.0,0.0,0.0,0.0,0.0,0.0,0.0,0.0,0.0,0.0,0.0,0.0,-2.0575,0.0,0.0,0.0,0.0,0.0,0.0,0.0,0.0,0.0,0.0,-2.0194,-2.0657,-2.1176,-2.1714,0.0,0.0,0.0,0.0,-2.4649,-2.5031,-2.6002,-2.6878,-2.7444,-2.787,-2.8229,-2.8629,0.0,0.0,-2.9252,-2.9518,-2.957,-2.9312,-2.898,-2.8434,-2.7111,-2.6674,-2.6283,-2.5876,-2.5449,-2.5043,-2.4872,-2.4665,-2.436,-0.8771,0.0,0.0,0.0,0.0,-0.8127,-0.8158,-0.8187,-0.8272,-0.8391,-0.8484,-0.8445,0.0,0.0,0.0,0.0,0.0,0.0,-0.842,-0.8365,-0.849,-0.8533,-0.8461,-0.8461,-0.8461,-0.8461,-0.8377,-0.8304,-0.8257,-0.8298,-0.8338,-0.8401,0.0,0.0,0.0,0.0,-0.875,-0.883,-0.8765,-0.8777,-0.8885,-0.9102,-0.9453,-0.9983,-1.0792,-1.1684,-1.2595,-1.272,-1.3144,-1.3858,-1.3997,0.0,0.0,0.0,0.0,0.0,0.0,0.0,0.0,0.0,0.0,0.0,0.0,0.0,0.0,0.0,0.0,0.0,0.0,0.0,-2.0334,-2.037,-2.0309,0.0,0.0,0.0,0.0,0.0,0.0,0.0,0.0,0.0,-1.9934,-2.0177,-2.066,0.0,0.0,-2.2578,-2.3002,-2.3887,-2.4636,-2.4984,-2.5644,0.0,-2.6747,-2.7624,-2.831,-2.853,-2.9307,-2.9828,-2.9616,-2.9658,-2.9525,-2.8967,-2.8559,-2.8132,-2.7649,-2.7446,-2.7178,-2.6732,-2.6338,-2.5977,-2.5637,-2.5427,-2.5199,-0.774,-0.8019,-0.7779,-0.7528,-0.7366,-0.7544,-0.7638,-0.7682,-0.7848,-0.7971,-0.8088,-0.8032,-0.801,-0.8004,-0.7908,0.0,0.0,0.0,-0.7927,-0.7702,-0.7885,-0.7813,-0.7539,-0.7526,-0.7533,-0.752,-0.7416,-0.7393,-0.7457,-0.7387,-0.7401,-0.7481,0.0,0.0,-0.837,-0.8279,-0.8309,-0.8421,-0.8368,-0.8474,-0.8804,-0.9145,-0.9769,-1.0686,-1.1177,-1.1862,-1.2739,-1.2687,-1.2952,-1.3605,-1.3767,-1.407,0.0,0.0,0.0,0.0,0.0,0.0,0.0,0.0,0.0,0.0,0.0,-1.7536,-1.7821,0.0,0.0,0.0,-1.9498,-1.9895,-2.0141,-2.0048,0.0,0.0,0.0,0.0,0.0,0.0,0.0,-1.9432,-1.9842,-2.0046,-1.9917,-2.0187,-2.0653,-2.1277,-2.2042,-2.2665,-2.2987,0.0,-2.4363,-2.4679,-2.5188,-2.5799,-2.6504,-2.7295,-2.8035,-2.864,-2.917,-2.9535,-2.9352,-2.915,-2.8836,-2.8424,-2.8057,-2.7705,-2.7524,-2.7331,-2.7152,-2.6841,-2.6525,-2.6136,-2.5797,-2.555,-2.5342,-0.6977,-0.6663,-0.6841,-0.6838,-0.6808,-0.7224,-0.7361,-0.7288,-0.7652,-0.7824,-0.7833,-0.7709,-0.7688,-0.767,-0.7493,0.0,-0.723,-0.7529,-0.7467,-0.711,-0.7387,-0.7255,-0.6766,-0.6742,-0.6736,-0.6724,-0.6488,-0.6417,-0.6554,-0.6538,-0.6608,-0.6761,-0.7486,-0.7934,-0.8123,-0.7836,-0.7836,-0.8135,-0.7981,-0.8195,-0.8824,-0.9411,-1.0228,-1.1225,-1.158,-1.2234,-1.3297,-1.2939,-1.3038,-1.3668,-1.3826,-1.411,-1.4623,0.0,0.0,0.0,0.0,0.0,0.0,0.0,0.0,0.0,0.0,0.0,0.0,0.0,0.0,0.0,-1.9474,0.0,-1.9734,-1.9617,0.0,0.0,0.0,-1.9214,-1.9454,-1.9253,-1.938,-2.0024,0.0,0.0,-1.9978,-2.0522,-2.0967,-2.1074,-2.2048,-2.2767,-2.2805,-2.3425,-2.3966,-2.4247,-2.4664,-2.5323,-2.6357,-2.6904,-2.7607,-2.8658,-2.8705,-2.8588,-2.8621,-2.8273,-2.7916,-2.775,-2.7444,-2.7163,-2.6985,-2.659,-2.627,-2.6377,-2.6082,-2.5743,-2.5439,-2.5147,-2.4892,-0.6244,-0.6169,-0.6095,-0.6227,-0.6455,-0.6638,-0.6791,-0.6859,-0.7041,-0.7192,-0.7295,-0.7351,-0.7435,-0.7556,-0.7498,-0.7474,-0.7411,-0.7309,-0.7191,-0.7091,-0.6817,-0.662,-0.6498,-0.629,-0.6203,-0.617,-0.6139,-0.6112,-0.6165,-0.6539,-0.6638,-0.645,-0.7001,-0.7425,-0.7649,-0.7595,-0.7601,-0.7655,-0.7815,-0.8301,-0.908,-0.9644,-1.0326,-1.1116,-1.1704,-1.2284,-1.2905,-1.2886,-1.3126,-1.3749,-1.3796,-1.4118,-1.4714,-1.5369,0.0,0.0,0.0,0.0,0.0,0.0,0.0,0.0,0.0,-1.7686,-1.818,0.0,-1.8807,0.0,-1.935,-1.9332,-1.9273,-1.9205,0.0,0.0,-1.9221,-1.9323,-1.9259,-1.977,-2.0088,-1.9959,-2.0128,-2.0142,-1.9875,-2.0584,-2.1085,-2.1055,-2.1825,-2.2589,-2.2951,-2.3289,-2.3641,-2.3966,-2.4261,-2.4691,-2.5406,-2.6315,-2.7315,-2.8296,-2.8493,-2.8413,-2.8145,-2.7912,-2.7607,-2.7203,-2.6785,-2.6549,-2.6484,-2.6,-2.5605,-2.5522,-2.5411,-2.5314,-2.5146,-2.4765,-2.4421,-0.5696,-0.5668,-0.5591,-0.5739,-0.5986,-0.6184,-0.6344,-0.6486,-0.6634,-0.6761,-0.6923,-0.6982,-0.709,-0.7166,-0.7139,-0.7139,-0.7128,-0.6977,-0.6863,-0.6724,-0.6485,-0.6288,-0.6175,-0.5915,-0.5875,-0.5897,-0.5924,-0.5991,-0.6035,-0.6442,-0.655,-0.6397,-0.6744,-0.7031,-0.7225,-0.7225,-0.7279,-0.7419,-0.7848,-0.8374,-0.908,-0.9684,-1.0362,-1.1065,-1.1753,-1.2298,-1.274,-1.2779,-1.3061,-1.3597,-1.3905,-1.4337,-1.4957,-1.5701,-1.6205,0.0,0.0,0.0,0.0,0.0,0.0,0.0,0.0,0.0,0.0,0.0,-1.8464,-1.8869,-1.8898,-1.8874,-1.8851,-1.8807,-1.8864,-1.9061,-1.9165,-1.9377,-1.9737,-2.0052,-2.0199,-2.0137,-2.0115,-2.0042,-1.9772,-2.0323,-2.0844,-2.0978,-2.1654,-2.2346,-2.2862,-2.3108,-2.33,-2.3611,-2.3923,-2.4424,-2.5172,-2.6277,-2.7152,-2.7694,-2.7726,-2.7598,-2.7436,-2.7121,-2.6779,-2.6502,-2.6149,-2.5906,-2.5864,-2.5495,-2.509,-2.4921,-2.4793,-2.4692,-2.462,-2.4332,-2.4057,-0.5254,-0.5254,-0.5254,-0.534,-0.5513,-0.5755,-0.5978,-0.615,-0.6277,-0.644,-0.662,-0.6625,-0.6674,-0.6707,-0.6707,-0.6707,-0.6707,-0.6707,-0.6573,-0.6338,-0.6308,-0.6172,-0.5932,-0.5732,-0.5697,-0.58,-0.5875,-0.5939,-0.6037,-0.6335,-0.6488,-0.6504,-0.6643,-0.6788,-0.6928,-0.6933,-0.7068,-0.7344,-0.7922,-0.848,-0.9035,-0.9692,-1.0362,-1.1065,-1.1753,-1.2283,-1.2642,-1.2745,-1.3008,-1.3472,-1.4104,-1.4701,-1.5265,-1.6271,-1.672,0.0,-1.6705,0.0,0.0,0.0,0.0,0.0,0.0,0.0,0.0,-1.7846,-1.8155,-1.822,-1.8347,-1.842,-1.842,-1.842,-1.8617,-1.9058,-1.9107,-1.9423,-2.0273,-2.0159,-2.0085,-2.0295,-2.0003,-1.9734,-1.9577,-1.9914,-2.0373,-2.0856,-2.1447,-2.2063,-2.2694,-2.2848,-2.3012,-2.33,-2.3671,-2.4298,-2.5207,-2.6129,-2.6708,-2.6858,-2.6658,-2.6454,-2.6525,-2.6134,-2.5798,-2.5743,-2.5536,-2.5328,-2.5287,-2.4978,-2.4635,-2.4408,-2.4173,-2.4011,-2.4024,-2.3907,-2.37,-0.4979,-0.4979,-0.4979,-0.5007,-0.5038,-0.5093,-0.5399,-0.5877,-0.59,-0.6069,-0.6282,-0.6282,-0.644,-0.6707,-0.6707,-0.6707,-0.6707,-0.6707,-0.6681,-0.6608,-0.6405,-0.6278,-0.6197,-0.5962,-0.5833,-0.5886,-0.5881,-0.5978,-0.6176,-0.6389,-0.6488,-0.6499,-0.6733,-0.6928,-0.7058,0.0,0.0,0.0,-0.8129,-0.8606,-0.9166,-0.9829,-1.0454,-1.1099,-1.1753,0.0,-1.2544,-1.3014,-1.3452,-1.3863,-1.4472,0.0,0.0,0.0,0.0,0.0,0.0,0.0,0.0,0.0,0.0,0.0,-1.7124,-1.7234,-1.7585,-1.7733,-1.7801,-1.7808,-1.7949,-1.8003,-1.8023,-1.8023,-1.8235,-1.8718,-1.9149,-1.9575,-1.9966,-2.0274,-2.0356,-1.9965,-1.9824,-1.9656,-1.9379,-1.9724,-2.0192,-2.0628,-2.1155,-2.1747,-2.2396,-2.2622,-2.2818,-2.3138,-2.3539,-2.3975,-2.4331,-2.4797,-2.5193,-2.5189,-2.5291,-2.5337,-2.5351,-2.5297,-2.5174,-2.5174,-2.5033,-2.485,-2.4709,-2.4434,-2.4141,-2.3822,-2.3526,-2.3378,-2.3628,-2.345,-2.3198,-0.4463,-0.446,-0.4463,-0.457,0.0,-0.468,-0.4956,-0.5375,-0.5489,-0.5713,-0.6014,-0.6014,-0.6141,-0.6349,-0.6349,-0.6376,-0.644,-0.644,-0.644,-0.6436,-0.6301,-0.6253,-0.6248,-0.6003,-0.5931,-0.5986,-0.6082,-0.6182,-0.6363,-0.6582,-0.6697,-0.6723,-0.6849,-0.6982,-0.7106,-0.7461,-0.7729,-0.7943,-0.8315,-0.8791,-0.9387,-0.9914,-1.0531,-1.1167,-1.1778,0.0,0.0,0.0,0.0,0.0,0.0,0.0,0.0,-1.6001,0.0,-1.6671,-1.6854,-1.7015,-1.7141,-1.7162,-1.712,-1.7065,-1.6952,-1.6981,-1.7269,-1.7331,-1.7352,-1.7365,-1.7468,-1.7543,-1.7563,-1.7809,-1.8174,-1.8746,-1.9254,-1.9696,-2.0076,-2.0178,-2.0105,-1.985,-1.963,-1.942,-1.9223,-1.9349,-1.9694,-2.0129,-2.0658,-2.1229,-2.1825,-2.2293,-2.2696,-2.3017,-2.33,-2.3582,-2.3806,-2.4054,-2.4232,-2.4374,-2.4463,-2.4536,-2.4536,-2.4536,-2.4565,-2.4536,-2.4447,-2.4303,-2.4203,-2.3953,-2.3658,-2.342,-2.3078,-2.2836,-2.2909,-2.2818,-2.2726,-0.3993,-0.3993,-0.3993,-0.4159,-0.4436,-0.4439,-0.4598,-0.4873,-0.5156,0.0,0.0,-0.5763,-0.5845,-0.5978,-0.5978,-0.6037,-0.6173,-0.6146,-0.6173,-0.62,-0.62,-0.62,-0.6196,-0.6026,-0.602,-0.616,-0.628,-0.6405,-0.6587,-0.6807,-0.6933,-0.6987,-0.7014,-0.7144,-0.7354,-0.7975,-0.8348,-0.8427,-0.8633,-0.9047,-0.964,-1.0095,-1.0616,-1.1326,-1.1828,-1.2234,-1.2529,-1.3084,-1.3539,-1.3821,-1.4373,-1.4926,-1.5401,-1.578,-1.6088,-1.6349,-1.6568,-1.6697,-1.6812,-1.6833,-1.6833,-1.6812,-1.6675,-1.6675,-1.6812,-1.6897,-1.6939,-1.6973,-1.7052,-1.7136,-1.717,-1.7635,-1.8172,-1.879,-1.9257,-1.9716,-2.0193,-1.9991,-1.9759,-1.9656,-1.9394,-1.917,-1.917,-1.909,-1.9179,-1.9748,-2.0286,-2.0868,-2.1458,-2.2086,-2.2543,-2.2866,-2.303,-2.3138,-2.3437,-2.3628,-2.376,-2.3878,-2.394,-2.4015,-2.4015,-2.4015,-2.4015,-2.3998,-2.3878,-2.3802,-2.37,-2.3492,-2.3223,-2.2987,-2.2702,-2.2439,-2.2173,-2.2123,-2.2142,-0.3993,-0.3993,-0.3993,-0.4049,-0.4079,-0.4193,-0.4411,-0.4743,-0.5014,-0.5317,-0.5618,-0.5645,-0.5704,-0.5822,-0.5822,-0.59,-0.6028,-0.6028,-0.6087,-0.62,-0.62,-0.62,-0.62,-0.6172,-0.6234,-0.6342,-0.6392,-0.6526,-0.6832,-0.6988,-0.7144,-0.7257,-0.7467,-0.7803,-0.8209,-0.856,-0.8903,-0.923,-0.9256,-0.9498,-0.9947,-1.0377,-1.0896,-1.1444,-1.1877,-1.2274,-1.2652,-1.3142,-1.3597,-1.3949,-1.443,-1.4846,-1.5153,-1.557,-1.5859,-1.5925,-1.6253,-1.6436,-1.6457,-1.6522,-1.6522,-1.6479,-1.634,-1.6362,-1.6543,-1.6663,-1.674,-1.674,-1.6854,-1.6952,-1.6978,-1.7423,-1.8013,-1.8565,-1.902,-1.942,-1.9812,-1.9734,-1.9539,-1.9342,-1.9249,-1.9143,-1.9052,-1.8987,-1.9167,-1.9696,-2.0197,-2.0906,-2.174,-2.2249,-2.242,-2.2512,-2.2647,-2.2848,-2.3108,-2.3198,-2.333,-2.3599,-2.3616,-2.3645,-2.3645,-2.3658,-2.3628,-2.3509,-2.3463,-2.3373,-2.312,-2.303,-2.2787,-2.2451,-2.2278,-2.208,-2.162,-2.1474,-2.14,-0.3777,-0.3774,-0.3774,-0.383,-0.3907,-0.4107,-0.4387,-0.4691,-0.4825,-0.5069,-0.5317,-0.5403,-0.5513,-0.5677,-0.5704,-0.5763,-0.59,-0.595,-0.6032,-0.6087,-0.6173,-0.62,-0.6205,-0.6282,-0.6359,-0.6413,-0.6576,-0.6793,-0.7009,-0.7144,-0.7306,-0.7515,-0.7889,-0.8262,-0.8613,-0.8956,-0.929,-0.9588,-0.9536,-0.9751,-1.0265,-1.0616,-1.1015,-1.1477,-1.1952,-1.2372,-1.2676,-1.3156,-1.3539,-1.3868,-1.4314,-1.4663,-1.4983,-1.5266,-1.5536,-1.5792,-1.5969,-1.6132,-1.6275,-1.634,-1.6318,-1.6297,-1.6231,-1.6231,-1.6318,-1.6417,-1.6405,-1.6417,-1.6482,-1.6638,-1.6939,-1.7443,-1.7981,-1.8545,-1.9046,-1.9369,-1.9529,-1.9473,-1.9342,-1.9196,-1.9131,-1.9052,-1.8893,-1.8893,-1.8926,-1.9194,-1.9808,-2.0641,-2.1535,-2.1944,-2.2204,-2.2347,-2.2494,-2.2647,-2.286,-2.2878,-2.2939,-2.3103,-2.3133,-2.3103,-2.312,-2.312,-2.3103,-2.3042,-2.3012,-2.2921,-2.2665,-2.2543,-2.2328,-2.2037,-2.1737,-2.1506,-2.1178,-2.0848,-2.0688,-0.3613,-0.3613,-0.3613,-0.3666,-0.3824,-0.4052,-0.4304,-0.4581,-0.4688,-0.4829,-0.5018,-0.5187,-0.5348,-0.5485,-0.5513,-0.5626,-0.5768,-0.5896,-0.595,-0.6028,-0.6146,-0.6232,-0.6255,-0.6359,-0.6436,-0.6571,-0.682,-0.7063,-0.7219,-0.7365,-0.7607,-0.7969,-0.8368,-0.8718,-0.8989,-0.9342,-0.9673,-0.9925,-0.9899,-1.0138,-1.0624,-1.0879,-1.12,-1.1619,-1.2076,-1.2455,-1.2774,-1.3142,-1.3491,-1.381,-1.4186,-1.4512,-1.4846,-1.504,-1.5289,-1.5681,-1.577,-1.5881,-1.6122,-1.6122,-1.6122,-1.6144,-1.6134,-1.6113,-1.61,-1.61,-1.6134,-1.6212,-1.6345,-1.6569,-1.6997,-1.7614,-1.8167,-1.8572,-1.9049,-1.9344,-1.9342,-1.9184,-1.9129,-1.909,-1.8972,-1.8866,-1.8786,-1.8771,-1.8777,-1.8944,-1.9465,-2.0205,-2.0991,-2.1448,-2.1796,-2.2118,-2.2297,-2.242,-2.2586,-2.2616,-2.2647,-2.2678,-2.2739,-2.2769,-2.2739,-2.2678,-2.2616,-2.2616,-2.2555,-2.2463,-2.2266,-2.2111,-2.1925,-2.1632,-2.1348,-2.0999,-2.0711,-2.0269,-2.0042,-0.3613,-0.3613,-0.3613,-0.3691,-0.3824,-0.3965,-0.4107,-0.4276,-0.4577,-0.4719,-0.477,-0.4991,-0.5128,-0.5156,-0.5293,-0.5462,-0.5622,-0.5763,-0.5873,-0.6,-0.6146,-0.6277,-0.6359,-0.6386,-0.6625,-0.6977,-0.7058,-0.7273,-0.7616,-0.7788,-0.8135,-0.8666,-0.8982,-0.9256,-0.951,-0.9803,-1.0102,-1.0411,-1.0667,-1.0871,-1.1023,-1.12,-1.1494,-1.2051,-1.22,-1.252,-1.2944,-1.3122,-1.3467,-1.3939,-1.414,-1.4407,-1.4776,-1.4983,-1.5221,-1.5491,-1.5637,-1.5792,-1.6001,-1.5891,-1.5891,-1.6001,-1.5913,-1.5859,-1.5859,-1.5836,-1.5959,-1.6198,-1.6632,-1.689,-1.706,-1.7884,-1.8473,-1.8607,-1.8944,-1.9196,-1.917,-1.8984,-1.8851,-1.8825,-1.8759,-1.8629,-1.8625,-1.8587,-1.8775,-1.9061,-1.928,-1.9801,-2.0658,-2.0976,-2.1289,-2.1694,-2.1999,-2.2247,-2.2371,-2.242,-2.2463,-2.2616,-2.2678,-2.2629,-2.2567,-2.2463,-2.2389,-2.2247,-2.208,-2.1956,-2.18,-2.1612,-2.1431,-2.1178,-2.086,-2.0506,-2.0096,-1.9671,-1.9572,-0.3613,-0.3613,-0.3613,-0.3691,-0.3796,-0.3852,-0.3993,-0.4221,-0.4359,-0.447,-0.4605,-0.4798,-0.4932,-0.5101,-0.5242,-0.5352,-0.5434,-0.5681,-0.5822,-0.59,-0.6173,-0.6332,-0.6408,-0.6707,-0.6923,-0.7112,-0.7327,-0.7568,-0.7842,-0.8221,-0.8646,-0.9035,-0.9309,-0.9569,-0.9836,-1.0154,-1.0462,-1.0845,-1.1049,-1.1293,-1.1644,-1.1678,-1.1794,-1.2101,-1.2455,-1.274,-1.2983,-1.3286,-1.3586,-1.3973,-1.414,-1.4384,-1.4776,-1.4891,-1.5063,-1.5345,-1.5582,-1.5748,-1.5859,-1.5836,-1.5802,-1.5891,-1.5814,-1.5814,-1.5814,-1.5814,-1.5945,-1.628,-1.659,-1.6878,-1.7242,-1.7921,-1.8453,-1.869,-1.8876,-1.8931,-1.8866,-1.8732,-1.8679,-1.8679,-1.8625,-1.856,-1.8503,-1.8383,-1.8394,-1.8649,-1.8874,-1.9442,-2.0176,-2.0549,-2.103,-2.1557,-2.1824,-2.1906,-2.1968,-2.1999,-2.2042,-2.2104,-2.2104,-2.2104,-2.2092,-2.2061,-2.1968,-2.1906,-2.1737,-2.1569,-2.1454,-2.1126,-2.086,-2.0603,-2.015,-1.9736,-1.9462,-1.9208,-1.9075,-0.3613,-0.3613,-0.3613,-0.3666,-0.3744,-0.3769,-0.3938,-0.4135,-0.4193,-0.4328,-0.4519,-0.4632,-0.4825,-0.5042,-0.5187,-0.527,-0.5329,-0.5631,-0.5791,-0.5845,-0.6223,-0.644,-0.6517,-0.6896,-0.7166,-0.73,-0.7589,-0.7889,-0.8195,-0.8745,-0.914,-0.9335,-0.9673,-0.994,-1.0154,-1.0514,-1.0845,-1.115,-1.1368,-1.1728,-1.2042,-1.215,-1.2224,-1.2348,-1.2686,-1.2968,-1.3104,-1.344,-1.3716,-1.3997,-1.4129,-1.4373,-1.4753,-1.4799,-1.496,-1.5289,-1.5559,-1.5715,-1.577,-1.5792,-1.5814,-1.5814,-1.5814,-1.5792,-1.577,-1.577,-1.5942,-1.6302,-1.6551,-1.6944,-1.7445,-1.797,-1.8422,-1.8712,-1.8732,-1.8706,-1.8614,-1.8587,-1.8533,-1.8545,-1.8479,-1.8425,-1.8329,-1.8205,-1.8134,-1.8208,-1.8472,-1.8902,-1.9535,-2.0062,-2.0621,-2.1237,-2.1444,-2.1592,-2.1667,-2.173,-2.171,-2.171,-2.1761,-2.173,-2.1624,-2.1592,-2.1498,-2.1454,-2.1316,-2.1146,-2.0967,-2.0646,-2.028,-1.9879,-1.9462,-1.9108,-1.8942,-1.8707,-1.8472,-0.3613,-0.3613,-0.3613,-0.361,-0.361,-0.3744,-0.3879,-0.4021,-0.4135,-0.4301,-0.4491,-0.466,-0.4794,-0.4928,-0.5042,-0.5187,-0.5352,-0.5658,-0.5818,-0.5877,-0.6228,-0.6485,-0.6701,-0.6977,-0.7295,-0.7616,-0.7869,-0.8242,-0.8745,-0.929,-0.9562,-0.9621,-1.0146,-1.0437,-1.0539,-1.0972,-1.1276,-1.1368,-1.1778,-1.2076,-1.2175,-1.2603,-1.2808,-1.2847,-1.2881,-1.3055,-1.3348,-1.3515,-1.3716,-1.3997,-1.414,-1.4407,-1.4753,-1.4799,-1.4949,-1.5267,-1.5537,-1.5693,-1.5715,-1.5748,-1.5792,-1.5792,-1.5792,-1.577,-1.5727,-1.5741,-1.5934,-1.6209,-1.6702,-1.7221,-1.7727,-1.8227,-1.8546,-1.8602,-1.8614,-1.8587,-1.8598,-1.8437,-1.8422,-1.8356,-1.8247,-1.8166,-1.8123,-1.8111,-1.8084,-1.8084,-1.813,-1.8387,-1.8942,-1.9465,-1.9982,-2.0446,-2.0911,-2.134,-2.1604,-2.1572,-2.1604,-2.1572,-2.1498,-2.1561,-2.1454,-2.1316,-2.1158,-2.0999,-2.085,-2.069,-2.0464,-2.0161,-1.9748,-1.9386,-1.9031,-1.8707,-1.8438,-1.8212,-1.7974,-0.3613,-0.3613,-0.3613,-0.3613,-0.3613,-0.3635,-0.3802,-0.3993,-0.4052,-0.4218,-0.4491,-0.4546,-0.468,-0.4928,-0.4956,-0.5175,-0.5517,-0.5709,-0.5877,-0.6091,-0.6436,-0.6729,-0.6977,-0.73,-0.7595,-0.7842,-0.8275,-0.8771,-0.9283,-0.9543,-0.9803,-1.0146,-1.0393,-1.065,-1.0972,-1.12,-1.1452,-1.1803,-1.2026,-1.2249,-1.2588,-1.2798,-1.2992,-1.3214,-1.3214,-1.3334,-1.3505,-1.3739,-1.3939,-1.414,-1.4326,-1.4546,-1.4776,-1.4937,-1.5074,-1.5278,-1.538,-1.548,-1.557,-1.5614,-1.5603,-1.5614,-1.5603,-1.5626,-1.5651,-1.5854,-1.6174,-1.6557,-1.707,-1.7545,-1.7934,-1.8359,-1.8572,-1.8503,-1.8476,-1.8437,-1.8329,-1.8247,-1.8193,-1.8193,-1.8139,-1.8111,-1.8084,-1.8084,-1.8084,-1.8084,-1.8084,-1.8285,-1.8697,-1.9187,-1.9647,-2.0044,-2.0543,-2.0926,-2.1033,-2.1138,-2.1169,-2.1138,-2.1106,-2.1042,-2.0946,-2.0914,-2.0786,-2.055,-2.0399,-2.0161,-1.9933,-1.9506,-1.9131,-1.8787,-1.8438,-1.8192,-1.7954,-1.7725,-1.7486,-0.3613,-0.3613,-0.3613,-0.3613,-0.3613,-0.3613,-0.3747,-0.3993,-0.3993,-0.4187,-0.4436,-0.4491,-0.4653,-0.4873,-0.4901,-0.5179,-0.565,-0.5763,-0.5959,-0.6228,-0.6598,-0.6864,-0.7139,-0.7568,-0.7863,-0.8141,-0.8745,-0.9256,-0.9595,-0.9803,-1.012,-1.0462,-1.065,-1.0947,-1.1276,-1.1418,-1.1728,-1.2051,-1.2175,-1.2446,-1.2856,-1.2958,-1.3118,-1.3372,-1.3491,-1.3563,-1.3658,-1.3905,-1.4093,-1.4233,-1.4454,-1.4673,-1.4811,-1.5006,-1.5153,-1.521,-1.5289,-1.5335,-1.5413,-1.5468,-1.5491,-1.5491,-1.5503,-1.5538,-1.5681,-1.601,-1.6417,-1.6912,-1.7291,-1.7667,-1.8028,-1.829,-1.841,-1.8313,-1.8313,-1.8259,-1.8123,-1.8111,-1.8084,-1.803,-1.7975,-1.7947,-1.7947,-1.7947,-1.7947,-1.7986,-1.7975,-1.8102,-1.8351,-1.8922,-1.9407,-1.968,-2.0275,-2.0611,-2.0658,-2.0679,-2.0784,-2.0784,-2.0655,-2.0581,-2.0419,-2.0409,-2.029,-2.0096,-1.9846,-1.9616,-1.9287,-1.8854,-1.8486,-1.8138,-1.792,-1.7681,-1.7442,-1.7235,-1.6959,-0.3613,-0.3613,-0.3613,-0.3613,-0.3613,-0.3613,-0.3749,-0.3968,-0.3993,-0.4187,-0.4487,-0.4491,-0.4653,-0.4873,-0.4956,-0.5234,-0.5709,-0.5822,-0.5987,-0.6282,-0.669,-0.6982,-0.7192,-0.7681,-0.8129,-0.8474,-0.9197,-0.9562,-0.9699,-1.0172,-1.047,-1.0624,-1.1023,-1.1242,-1.1301,-1.1678,-1.1943,-1.215,-1.2348,-1.2618,-1.2895,-1.3084,-1.3242,-1.3443,-1.3644,-1.3797,-1.381,-1.4059,-1.421,-1.4222,-1.4477,-1.4685,-1.4903,-1.5028,-1.5119,-1.52,-1.5279,-1.5313,-1.5393,-1.5542,-1.5622,-1.5622,-1.5563,-1.5752,-1.6056,-1.6207,-1.6565,-1.7182,-1.7456,-1.7634,-1.8008,-1.81,-1.8111,-1.8084,-1.8111,-1.8084,-1.8084,-1.8084,-1.8045,-1.7909,-1.781,-1.7711,-1.7711,-1.7739,-1.7767,-1.7767,-1.7767,-1.775,-1.7879,-1.8529,-1.9078,-1.935,-1.9763,-2.0178,-2.0224,-2.0269,-2.0376,-2.0419,-2.0267,-2.0116,-1.9845,-1.9748,-1.9426,-1.919,-1.8868,-1.8651,-1.8293,-1.7896,-1.7744,-1.747,-1.7285,-1.7111,-1.6925,-1.6682,-1.6438,-0.3613,-0.3613,-0.3613,-0.3613,-0.3613,-0.3613,-0.3749,-0.3993,-0.3993,-0.4187,-0.4491,-0.4605,-0.4739,-0.4928,-0.5101,-0.5407,-0.5795,-0.5987,-0.6255,-0.6544,-0.6896,-0.7192,-0.7542,-0.7922,-0.8427,-0.9028,-0.9413,-0.9829,-1.018,-1.0385,-1.0624,-1.0922,-1.1175,-1.1393,-1.1595,-1.1868,-1.215,-1.2372,-1.2554,-1.2788,-1.306,-1.318,-1.3348,-1.3668,-1.3844,-1.3986,-1.4059,-1.4152,-1.4246,-1.4326,-1.4604,-1.4834,-1.5006,-1.5085,-1.528,-1.5613,-1.5682,-1.5879,-1.6166,-1.6214,-1.6227,-1.625,-1.625,-1.6307,-1.649,-1.6779,-1.7079,-1.743,-1.7679,-1.7935,-1.7957,-1.7963,-1.7936,-1.7963,-1.7963,-1.792,-1.7877,-1.7838,-1.7822,-1.7783,-1.7739,-1.7711,-1.7684,-1.7673,-1.7684,-1.7684,-1.7684,-1.7656,-1.7662,-1.8032,-1.8426,-1.8687,-1.9193,-1.9499,-1.9435,-1.9276,-1.9233,-1.9307,-1.9297,-1.9372,-1.9158,-1.8881,-1.8574,-1.8224,-1.7948,-1.7606,-1.7262,-1.7008,-1.6878,-1.6715,-1.6508,-1.6392,-1.6349,-1.614,-1.5799,-0.3613,-0.3613,-0.3613,-0.361,-0.3663,-0.3663,-0.383,-0.4052,-0.4079,-0.4245,-0.4491,-0.466,-0.4767,-0.4928,-0.5187,-0.5489,-0.5795,-0.6119,-0.6468,-0.6788,-0.7031,-0.7381,-0.7809,-0.8268,-0.8817,-0.9413,-0.9647,-0.9991,-1.047,-1.0624,-1.0794,-1.1074,-1.1318,-1.1615,-1.1933,-1.2195,-1.2494,-1.2887,-1.3046,-1.328,-1.3621,-1.3711,-1.3824,-1.3994,-1.4166,-1.418,-1.4148,-1.4361,-1.4488,-1.4507,-1.4759,-1.5081,-1.5314,-1.5508,-1.5772,-1.6048,-1.6163,-1.6289,-1.6564,-1.6566,-1.6598,-1.6598,-1.6598,-1.6715,-1.6899,-1.7269,-1.7415,-1.7626,-1.7824,-1.7963,-1.7854,-1.7826,-1.7799,-1.776,-1.7799,-1.7783,-1.7711,-1.7645,-1.7617,-1.7617,-1.7562,-1.7573,-1.7545,-1.7545,-1.7545,-1.7545,-1.7479,-1.7423,-1.7389,-1.7621,-1.7859,-1.8117,-1.8421,-1.8552,-1.8501,-1.8302,-1.8072,-1.8114,-1.8155,-1.8281,-1.827,-1.7967,-1.7644,-1.7338,-1.701,-1.6773,-1.6442,-1.6192,-1.5997,-1.5851,-1.5695,-1.5553,-1.5454,-1.5358,-1.5096,-0.361,-0.361,-0.361,-0.3694,-0.3827,-0.3796,-0.3965,-0.4162,-0.4193,-0.4301,-0.4522,-0.4684,-0.4794,-0.4956,-0.5242,-0.5544,-0.5822,-0.625,-0.6603,-0.6901,-0.7203,-0.7547,-0.8029,-0.8639,-0.9192,-0.9595,-0.9836,-1.018,-1.0547,-1.0752,-1.0981,-1.115,-1.1564,-1.1916,-1.2244,-1.2568,-1.3049,-1.3504,-1.3643,-1.3927,-1.4439,-1.4512,-1.448,-1.4366,-1.458,-1.4546,-1.4374,-1.4782,-1.4906,-1.4637,-1.5097,-1.5465,-1.5762,-1.6149,-1.6382,-1.6596,-1.6644,-1.6676,-1.6713,-1.685,-1.6828,-1.685,-1.6862,-1.6862,-1.7332,-1.7458,-1.7588,-1.7773,-1.7859,-1.7838,-1.7728,-1.7684,-1.7617,-1.7534,-1.7601,-1.7656,-1.7656,-1.7562,-1.7496,-1.7479,-1.7379,-1.7306,-1.7306,-1.7267,-1.7267,-1.7239,-1.7145,-1.7078,-1.7047,-1.7238,-1.74,-1.7601,-1.7786,-1.7666,-1.7637,-1.7441,-1.7184,-1.6859,-1.691,-1.7041,-1.7184,-1.6928,-1.654,-1.6227,-1.6062,-1.5815,-1.5556,-1.5215,-1.5046,-1.493,-1.4782,-1.4655,-1.4572,-1.4449,-1.4271,-0.3663,-0.3744,-0.3744,-0.3827,-0.3938,-0.3938,-0.4049,-0.4193,-0.4221,-0.4384,-0.4632,-0.4794,-0.4904,-0.5069,-0.5489,-0.574,-0.5905,-0.6386,-0.6788,-0.7063,-0.7333,-0.7809,-0.8395,-0.8896,-0.9368,-0.9732,-0.9921,-1.029,-1.0744,-1.0845,-1.1032,-1.1285,-1.1816,-1.2165,-1.2377,-1.2949,-1.34,-1.3683,-1.3819,-1.4016,-1.4357,-1.458,-1.4673,-1.4852,-1.4976,-1.5052,-1.5037,-1.5296,-1.5535,-1.559,-1.5717,-1.5881,-1.6053,-1.6235,-1.6548,-1.6971,-1.7065,-1.7239,-1.7592,-1.7649,-1.7687,-1.7722,-1.7592,-1.7725,-1.7725,-1.7759,-1.7757,-1.7783,-1.7755,-1.77,-1.7579,-1.7523,-1.7479,-1.7379,-1.739,-1.7407,-1.7407,-1.7379,-1.7351,-1.7362,-1.7306,-1.7239,-1.7117,-1.7078,-1.706,-1.6976,-1.6892,-1.6835,-1.685,-1.6693,-1.6819,-1.6962,-1.7081,-1.688,-1.6719,-1.6567,-1.6255,-1.5731,-1.5642,-1.5677,-1.5785,-1.5745,-1.5279,-1.4832,-1.4876,-1.4701,-1.436,-1.4013,-1.3956,-1.4022,-1.3848,-1.3753,-1.3693,-1.3593,-1.3346,-0.3799,-0.3879,-0.3879,-0.3965,-0.4079,-0.4107,-0.4162,-0.4328,-0.4387,-0.4494,-0.4715,-0.4901,-0.5042,-0.5156,-0.5572,-0.5791,-0.59,-0.6436,-0.6837,-0.7166,-0.7649,-0.8156,-0.8666,-0.9061,-0.942,-0.9844,-0.9973,-1.0334,-1.0794,-1.0888,-1.1132,-1.1507,-1.1948,-1.2343,-1.2822,-1.3259,-1.3765,-1.4063,-1.4288,-1.4483,-1.4761,-1.4954,-1.5053,-1.5215,-1.5303,-1.5447,-1.5659,-1.5764,-1.5862,-1.5928,-1.6082,-1.6265,-1.6428,-1.6655,-1.6946,-1.7393,-1.7404,-1.7567,-1.7813,-1.792,-1.7931,-1.792,-1.7931,-1.7904,-1.7826,-1.781,-1.7755,-1.7645,-1.7617,-1.7562,-1.7423,-1.7329,-1.7245,-1.7172,-1.7127,-1.7127,-1.7172,-1.7162,-1.7155,-1.7127,-1.7071,-1.7071,-1.6909,-1.6909,-1.6881,-1.6779,-1.6676,-1.6658,-1.6612,-1.6394,-1.6206,-1.6373,-1.6316,-1.6108,-1.5909,-1.573,-1.5529,-1.5025,-1.471,-1.4685,-1.4694,-1.4733,-1.4478,-1.4114,-1.3868,-1.364,-1.3428,-1.3255,-1.3157,-1.3143,-1.2971,-1.2853,-1.2797,-1.2712,-1.2469,-0.3993,-0.4021,-0.4021,-0.4107,-0.4221,-0.4249,-0.4328,-0.4491,-0.4605,-0.4688,-0.477,-0.4987,-0.5124,-0.5179,-0.5626,-0.5791,-0.5873,-0.6436,-0.6864,-0.7321,-0.7883,-0.8501,-0.8725,-0.9061,-0.9446,-0.9862,-0.9973,-1.0342,-1.0742,-1.0878,-1.1232,-1.1702,-1.1989,-1.2559,-1.3166,-1.3559,-1.4043,-1.4528,-1.4731,-1.4945,-1.5177,-1.5369,-1.5459,-1.5452,-1.5549,-1.577,-1.5989,-1.6104,-1.6074,-1.5918,-1.6292,-1.6579,-1.6812,-1.723,-1.7468,-1.7589,-1.7605,-1.7628,-1.77,-1.7739,-1.7711,-1.7739,-1.7739,-1.7684,-1.7684,-1.7673,-1.7617,-1.7479,-1.7468,-1.7368,-1.7239,-1.7088,-1.7022,-1.6994,-1.6902,-1.6892,-1.6927,-1.6983,-1.6937,-1.6807,-1.6807,-1.679,-1.679,-1.679,-1.6761,-1.6552,-1.642,-1.6316,-1.623,-1.6029,-1.5827,-1.5742,-1.5586,-1.5322,-1.5117,-1.492,-1.4701,-1.4398,-1.4079,-1.3955,-1.3964,-1.3934,-1.3856,-1.3649,-1.3376,-1.3164,-1.295,-1.2783,-1.2545,-1.2375,-1.2281,-1.2073,-1.1904,-1.1801,-1.1649,-0.4052,-0.4162,-0.4162,-0.4276,-0.4439,-0.4439,-0.4463,-0.4519,-0.4632,-0.4767,-0.4877,-0.5042,-0.5262,-0.5508,-0.5681,-0.5845,-0.6005,-0.649,-0.695,-0.7488,-0.8076,-0.8448,-0.8685,-0.9001,-0.9368,-0.9673,-0.9914,-1.0213,-1.0595,-1.1047,-1.1421,-1.1723,-1.2443,-1.3037,-1.3261,-1.3814,-1.4239,-1.4538,-1.4695,-1.4931,-1.5167,-1.5362,-1.5516,-1.5598,-1.5733,-1.601,-1.6257,-1.6342,-1.643,-1.6563,-1.6618,-1.6706,-1.6905,-1.703,-1.7234,-1.744,-1.7534,-1.759,-1.7656,-1.7684,-1.7684,-1.7684,-1.7656,-1.7656,-1.7551,-1.7523,-1.7479,-1.7351,-1.72,-1.7078,-1.6948,-1.6892,-1.6853,-1.6835,-1.6818,-1.6751,-1.6712,-1.6768,-1.6807,-1.679,-1.6761,-1.6751,-1.6637,-1.6506,-1.642,-1.6296,-1.6124,-1.5972,-1.5817,-1.5633,-1.5459,-1.5284,-1.5079,-1.4863,-1.4617,-1.4389,-1.4112,-1.3872,-1.358,-1.3277,-1.3277,-1.3246,-1.3186,-1.3072,-1.2897,-1.2652,-1.2428,-1.2182,-1.1972,-1.1786,-1.156,-1.1389,-1.1199,-1.1008,-1.0843,-0.4273,-0.4328,-0.4356,-0.438,-0.4491,-0.4491,-0.4546,-0.4605,-0.4739,-0.4877,-0.4987,-0.5128,-0.5348,-0.5595,-0.5736,-0.5873,-0.6087,-0.6544,-0.7031,-0.7521,-0.7975,-0.8268,-0.8527,-0.885,-0.9185,-0.9562,-0.9862,-1.0249,-1.0732,-1.1102,-1.1543,-1.1994,-1.2685,-1.306,-1.3359,-1.3823,-1.4073,-1.427,-1.4508,-1.4715,-1.4863,-1.5108,-1.5332,-1.5546,-1.5701,-1.5943,-1.6105,-1.6163,-1.6259,-1.6335,-1.6381,-1.6552,-1.6853,-1.692,-1.7022,-1.7134,-1.7245,-1.7301,-1.7368,-1.7451,-1.749,-1.7518,-1.7518,-1.7423,-1.7301,-1.7262,-1.72,-1.7099,-1.6976,-1.6853,-1.6779,-1.6733,-1.6722,-1.6694,-1.6658,-1.6573,-1.6467,-1.6552,-1.6676,-1.662,-1.6506,-1.6428,-1.6343,-1.6249,-1.6116,-1.5961,-1.5758,-1.5604,-1.5449,-1.5264,-1.5049,-1.4843,-1.4627,-1.4419,-1.4181,-1.3911,-1.361,-1.3338,-1.3103,-1.2789,-1.2605,-1.2574,-1.2536,-1.2421,-1.2336,-1.2089,-1.1864,-1.1622,-1.1404,-1.1209,-1.0989,-1.0737,-1.0536,-1.0392,-1.0142,-0.4491,-0.4491,-0.4491,-0.4491,-0.4491,-0.4491,-0.4574,-0.4715,-0.4846,-0.4956,-0.5101,-0.5215,-0.5403,-0.5595,-0.5736,-0.59,-0.6223,-0.6603,-0.7117,-0.7521,-0.7815,-0.8135,-0.8427,-0.8718,-0.9083,-0.9549,-0.9896,-1.0337,-1.077,-1.1219,-1.172,-1.2348,-1.2659,-1.2983,-1.3399,-1.3631,-1.3821,-1.3941,-1.424,-1.4419,-1.4538,-1.4784,-1.5049,-1.5313,-1.5459,-1.5614,-1.574,-1.5798,-1.5856,-1.5856,-1.5885,-1.6192,-1.6506,-1.6733,-1.679,-1.6779,-1.6937,-1.7022,-1.705,-1.7145,-1.7222,-1.7211,-1.7222,-1.7145,-1.7022,-1.6994,-1.6937,-1.6864,-1.6807,-1.6722,-1.6694,-1.6581,-1.6495,-1.6498,-1.6415,-1.6352,-1.6265,-1.6459,-1.6622,-1.6316,-1.622,-1.6153,-1.6028,-1.5923,-1.5788,-1.5624,-1.5439,-1.5225,-1.5068,-1.4862,-1.4654,-1.4419,-1.4181,-1.3881,-1.364,-1.3428,-1.3125,-1.285,-1.2621,-1.2336,-1.2058,-1.1957,-1.1926,-1.1926,-1.1802,-1.1553,-1.1334,-1.1122,-1.0902,-1.0674,-1.0485,-1.0238,-1.0015,-0.9798,-0.9536,-0.4491,-0.4491,-0.4491,-0.4491,-0.4491,-0.4491,-0.4574,-0.4715,-0.4846,-0.4987,-0.5101,-0.5242,-0.5403,-0.5595,-0.5763,-0.6087,-0.649,-0.6793,-0.709,-0.7473,-0.7785,-0.8092,-0.8419,-0.8751,-0.9052,-0.9432,-0.9863,-1.027,-1.069,-1.1352,-1.1837,-1.2185,-1.2666,-1.3023,-1.313,-1.3359,-1.3541,-1.361,-1.3911,-1.4121,-1.424,-1.4449,-1.4715,-1.499,-1.5088,-1.5205,-1.5323,-1.543,-1.5565,-1.5691,-1.5827,-1.5943,-1.6087,-1.6316,-1.6516,-1.6676,-1.6779,-1.6807,-1.6835,-1.6864,-1.6902,-1.6874,-1.6902,-1.6902,-1.6835,-1.6807,-1.6751,-1.6722,-1.6637,-1.6513,-1.6257,-1.628,-1.6173,-1.6129,-1.6324,-1.6477,-1.6507,-1.6668,-1.6678,-1.6216,-1.6026,-1.5956,-1.5949,-1.5822,-1.5673,-1.5532,-1.5303,-1.499,-1.4736,-1.4489,-1.4243,-1.3998,-1.3761,-1.3398,-1.3042,-1.2858,-1.2613,-1.239,-1.2151,-1.1903,-1.1622,-1.1404,-1.131,-1.1247,-1.1209,-1.1115,-1.087,-1.0618,-1.0396,-1.0168,-0.9983,-0.976,-0.9504,-0.9247,-0.899,-0.4491,-0.4491,-0.4491,-0.4491,-0.4491,-0.4491,-0.4601,-0.4794,-0.4873,-0.5014,-0.5156,-0.527,-0.5407,-0.5595,-0.5736,-0.6141,-0.6598,-0.6766,-0.7063,-0.7451,-0.7777,-0.8127,-0.8507,-0.8849,-0.9172,-0.9564,-0.9994,-1.0415,-1.0753,-1.1392,-1.1847,-1.2132,-1.2557,-1.2805,-1.2867,-1.3072,-1.3216,-1.3307,-1.3549,-1.3791,-1.3872,-1.4091,-1.4369,-1.4517,-1.4695,-1.4813,-1.4961,-1.5108,-1.5225,-1.5323,-1.5391,-1.5498,-1.5633,-1.5807,-1.6019,-1.6278,-1.6477,-1.6602,-1.662,-1.6705,-1.679,-1.679,-1.679,-1.6705,-1.6648,-1.6563,-1.6506,-1.6363,-1.6306,-1.6181,-1.6029,-1.6182,-1.6255,-1.6287,-1.6477,-1.6614,-1.6651,-1.6747,-1.6507,-1.6202,-1.6282,-1.6261,-1.6111,-1.5936,-1.5664,-1.542,-1.5176,-1.4841,-1.4473,-1.4179,-1.3931,-1.3515,-1.3238,-1.2911,-1.2552,-1.2367,-1.2151,-1.1934,-1.1685,-1.1435,-1.1122,-1.0863,-1.0618,-1.0466,-1.046,-1.0523,-1.0326,-1.004,-0.9849,-0.9626,-0.9408,-0.9183,-0.8958,-0.87,-0.8441,-0.4491,-0.4491,-0.4491,-0.4491,-0.4491,-0.4491,-0.4625,-0.4846,-0.4849,-0.4987,-0.5242,-0.527,-0.5352,-0.5544,-0.5763,-0.6141,-0.6685,-0.6742,-0.7094,-0.7587,-0.7886,-0.825,-0.8685,-0.8981,-0.9318,-0.9692,-1.0045,-1.0574,-1.09,-1.1361,-1.1692,-1.1951,-1.2328,-1.2498,-1.256,-1.2705,-1.2836,-1.3011,-1.3194,-1.3359,-1.3511,-1.3731,-1.398,-1.4121,-1.4309,-1.4449,-1.4538,-1.4725,-1.4843,-1.4902,-1.4961,-1.5079,-1.5274,-1.5332,-1.5459,-1.5711,-1.6058,-1.6259,-1.6345,-1.642,-1.6506,-1.6506,-1.6591,-1.6477,-1.6374,-1.6259,-1.6202,-1.5972,-1.5885,-1.5936,-1.5969,-1.6178,-1.6326,-1.6483,-1.6656,-1.6846,-1.6757,-1.6702,-1.6674,-1.6583,-1.6628,-1.6402,-1.6103,-1.5845,-1.5508,-1.5215,-1.5006,-1.4766,-1.4386,-1.3985,-1.3624,-1.3102,-1.2728,-1.2428,-1.212,-1.1895,-1.1677,-1.1428,-1.1209,-1.0965,-1.0649,-1.0326,-1.0079,-0.9856,-0.9766,-0.976,-0.96,-0.9498,-0.9312,-0.9119,-0.8861,-0.8635,-0.8376,-0.8177,-0.7949,-0.4491,-0.4491,-0.4491,-0.4491,-0.4491,-0.4491,-0.4605,-0.4715,-0.4715,-0.4877,-0.5128,-0.5128,-0.5211,-0.5411,-0.5698,-0.615,-0.6609,-0.6921,-0.7284,-0.7802,-0.8138,-0.8463,-0.8866,-0.8966,-0.9411,-0.9769,-1.0029,-1.0319,-1.0704,-1.124,-1.158,-1.1716,-1.1941,-1.2158,-1.2182,-1.2336,-1.2459,-1.2644,-1.2805,-1.3042,-1.3277,-1.3459,-1.364,-1.3799,-1.398,-1.407,-1.4121,-1.4279,-1.4398,-1.4567,-1.4656,-1.4813,-1.499,-1.5059,-1.5059,-1.5235,-1.5566,-1.5972,-1.5972,-1.6058,-1.6105,-1.6116,-1.6087,-1.6,-1.5943,-1.5914,-1.5885,-1.5943,-1.5789,-1.5772,-1.5869,-1.5953,-1.6042,-1.6325,-1.6634,-1.6769,-1.6755,-1.6665,-1.6618,-1.6548,-1.6465,-1.6171,-1.5867,-1.5595,-1.5334,-1.5074,-1.4822,-1.4617,-1.4252,-1.3776,-1.3171,-1.2601,-1.2297,-1.1996,-1.1685,-1.1459,-1.1178,-1.0958,-1.0674,-1.0453,-1.0174,-0.9849,-0.9594,-0.9402,-0.928,-0.9151,-0.9113,-0.8985,-0.8835,-0.8608,-0.8376,-0.8117,-0.7857,-0.7624,-0.7456,-0.4408,-0.4491,-0.4491,-0.4491,-0.4491,-0.4491,-0.4574,-0.4688,-0.4691,-0.4853,-0.5073,-0.5101,-0.527,-0.5597,-0.5864,-0.6318,-0.6811,-0.7077,-0.7436,-0.7985,-0.8354,-0.8673,-0.895,-0.9273,-0.9668,-0.9768,-0.9963,-1.0076,-1.0477,-1.093,-1.1317,-1.1373,-1.1536,-1.1716,-1.1809,-1.1934,-1.212,-1.2305,-1.2552,-1.2797,-1.2981,-1.3133,-1.3255,-1.3376,-1.358,-1.37,-1.3761,-1.398,-1.41,-1.421,-1.427,-1.4449,-1.4636,-1.4725,-1.4784,-1.5029,-1.5235,-1.5469,-1.5594,-1.5691,-1.5759,-1.5788,-1.5769,-1.5701,-1.5566,-1.5469,-1.5439,-1.5381,-1.5555,-1.5688,-1.5884,-1.6166,-1.6315,-1.6487,-1.6611,-1.6631,-1.6649,-1.6597,-1.6505,-1.642,-1.6245,-1.5928,-1.563,-1.552,-1.5384,-1.5265,-1.4934,-1.4645,-1.4054,-1.337,-1.2725,-1.2025,-1.1809,-1.1622,-1.1279,-1.0989,-1.0706,-1.0421,-1.0091,-0.9875,-0.9658,-0.9408,-0.9177,-0.8952,-0.8797,-0.87,-0.863,-0.8528,-0.8371,-0.8144,-0.7917,-0.7657,-0.7396,-0.7134,-0.6872,-0.4301,-0.4436,-0.4491,-0.4491,-0.4491,-0.4491,-0.4546,-0.4632,-0.466,-0.477,-0.4974,-0.5116,-0.5453,-0.5853,-0.6112,-0.6499,-0.7092,-0.7305,-0.768,-0.8114,-0.8533,-0.885,-0.9127,-0.9503,-0.9703,-0.9804,-0.9888,-0.9983,-1.018,-1.0491,-1.0839,-1.0996,-1.1216,-1.1341,-1.1466,-1.156,-1.1716,-1.1965,-1.2243,-1.2428,-1.2621,-1.2775,-1.2867,-1.2989,-1.3164,-1.3329,-1.339,-1.3549,-1.3709,-1.3881,-1.3881,-1.4061,-1.43,-1.4389,-1.4458,-1.4606,-1.4734,-1.4843,-1.5079,-1.5293,-1.5469,-1.5527,-1.5498,-1.5381,-1.5254,-1.5116,-1.5111,-1.5179,-1.5468,-1.5613,-1.5794,-1.6235,-1.6302,-1.6398,-1.6585,-1.6566,-1.6473,-1.6307,-1.6132,-1.5991,-1.5815,-1.5603,-1.5397,-1.5429,-1.5384,-1.5401,-1.5138,-1.467,-1.3915,-1.3027,-1.2367,-1.1684,-1.1321,-1.1143,-1.0839,-1.0523,-1.0238,-0.9951,-0.962,-0.9332,-0.9151,-0.899,-0.8765,-0.8571,-0.8376,-0.8214,-0.8074,-0.8009,-0.7939,-0.7782,-0.7559,-0.7265,-0.697,-0.6675,-0.628,-0.4221,-0.4221,-0.4408,-0.4491,-0.4491,-0.4491,-0.4519,-0.4519,-0.4519,-0.4612,-0.4842,-0.5199,-0.5608,-0.602,-0.6302,-0.6703,-0.7275,-0.7537,-0.7922,-0.8329,-0.8756,-0.9,-0.9195,-0.9378,-0.9606,-0.9734,-0.9766,-0.9862,-0.9983,-1.0047,-1.0371,-1.0624,-1.0839,-1.1028,-1.1153,-1.1185,-1.1373,-1.1591,-1.184,-1.1996,-1.2151,-1.2305,-1.2428,-1.2621,-1.2775,-1.2889,-1.3019,-1.3103,-1.3277,-1.3519,-1.3549,-1.3692,-1.3971,-1.4031,-1.41,-1.4219,-1.4249,-1.433,-1.4478,-1.4793,-1.5009,-1.5068,-1.5039,-1.4999,-1.5004,-1.5328,-1.54,-1.5269,-1.5486,-1.5697,-1.5812,-1.5925,-1.614,-1.6155,-1.6227,-1.6149,-1.6026,-1.5859,-1.5718,-1.5532,-1.5355,-1.5114,-1.4935,-1.4864,-1.4927,-1.4971,-1.4661,-1.4193,-1.354,-1.2706,-1.2124,-1.1507,-1.0978,-1.0646,-1.0378,-1.0085,-0.9792,-0.9536,-0.9242,-0.8926,-0.8673,-0.8511,-0.8349,-0.8149,-0.7917,-0.7722,-0.7526,-0.7456,-0.7391,-0.7391,-0.7195,-0.6839,-0.6412,-0.6017,-0.5557,-0.3993,-0.4079,-0.4245,-0.4384,-0.4491,-0.4491,-0.4491,-0.4491,-0.4491,-0.4636,-0.4866,-0.5222,-0.5594,-0.5952,-0.6415,-0.682,-0.728,-0.7691,-0.8016,-0.8324,-0.8656,-0.8894,-0.9055,-0.9247,-0.944,-0.9504,-0.9542,-0.9612,-0.9676,-0.9766,-0.9894,-1.0142,-1.0333,-1.0491,-1.0586,-1.08,-1.1028,-1.1247,-1.1435,-1.1591,-1.1778,-1.1934,-1.2089,-1.2282,-1.2436,-1.259,-1.2744,-1.2836,-1.3011,-1.3133,-1.3194,-1.3398,-1.361,-1.367,-1.3761,-1.3911,-1.395,-1.398,-1.404,-1.4309,-1.4497,-1.4497,-1.4446,-1.4499,-1.476,-1.4954,-1.5092,-1.5214,-1.5492,-1.5699,-1.5645,-1.5824,-1.5992,-1.5886,-1.5788,-1.5709,-1.5568,-1.5399,-1.5221,-1.5034,-1.482,-1.4613,-1.4433,-1.4253,-1.4353,-1.4425,-1.4078,-1.3678,-1.3062,-1.2452,-1.1833,-1.1263,-1.0732,-1.0168,-0.9887,-0.9612,-0.9344,-0.9119,-0.8861,-0.8571,-0.8252,-0.8057,-0.7894,-0.7694,-0.7493,-0.733,-0.7138,-0.6942,-0.6876,-0.6905,-0.6708,-0.6383,-0.5888,-0.5362,-0.493,-0.3852,-0.3965,-0.4079,-0.4245,-0.4408,-0.4491,-0.4491,-0.4491,-0.4491,-0.4664,-0.4937,-0.5306,-0.5633,-0.599,-0.649,-0.6958,-0.734,-0.7703,-0.7984,-0.8269,-0.8528,-0.8705,-0.8867,-0.9055,-0.921,-0.9247,-0.928,-0.935,-0.935,-0.9472,-0.9536,-0.9568,-0.9664,-0.9888,-1.0238,-1.0421,-1.0649,-1.0846,-1.1035,-1.1185,-1.1373,-1.1522,-1.174,-1.1903,-1.2034,-1.2212,-1.2375,-1.2529,-1.2674,-1.2797,-1.292,-1.3042,-1.3216,-1.3368,-1.3489,-1.364,-1.3709,-1.37,-1.3769,-1.398,-1.41,-1.4189,-1.4317,-1.4377,-1.4528,-1.4744,-1.5115,-1.5167,-1.5441,-1.5575,-1.5463,-1.5573,-1.5641,-1.5532,-1.5363,-1.5284,-1.5106,-1.4935,-1.4721,-1.4533,-1.4361,-1.4145,-1.3928,-1.3746,-1.3702,-1.3739,-1.347,-1.3135,-1.2718,-1.214,-1.1588,-1.1023,-1.0451,-0.9935,-0.9423,-0.9154,-0.891,-0.8662,-0.8409,-0.8182,-0.7889,-0.7709,-0.748,-0.7307,-0.7138,-0.6946,-0.6745,-0.6548,-0.6482,-0.6453,-0.6156,-0.5826,-0.5296,-0.4797,-0.4428,-0.3808,-0.3824,-0.3978,-0.4098,-0.4247,-0.4411,-0.4491,-0.4439,-0.448,-0.4664,-0.4968,-0.5436,-0.5794,-0.6109,-0.6569,-0.6973,-0.7344,-0.7605,-0.7852,-0.8172,-0.8371,-0.8608,-0.877,-0.8926,-0.9017,-0.9022,-0.9087,-0.9119,-0.9049,-0.9151,-0.9119,-0.9119,-0.9247,-0.9434,-0.9958,-1.0015,-1.011,-1.0308,-1.053,-1.0681,-1.087,-1.1052,-1.1303,-1.1498,-1.163,-1.1778,-1.1996,-1.212,-1.2274,-1.2467,-1.256,-1.2705,-1.292,-1.3011,-1.3072,-1.3103,-1.3103,-1.3111,-1.3128,-1.3666,-1.3912,-1.3995,-1.4123,-1.4407,-1.464,-1.497,-1.5247,-1.5197,-1.5376,-1.5361,-1.5321,-1.5223,-1.5196,-1.5062,-1.4927,-1.482,-1.4641,-1.4433,-1.4217,-1.4065,-1.3891,-1.3717,-1.3463,-1.3236,-1.3127,-1.301,-1.2783,-1.2522,-1.2241,-1.1854,-1.1326,-1.0822,-1.0252,-0.9697,-0.9185,-0.8794,-0.8479,-0.8225,-0.7992,-0.7811,-0.7611,-0.7414,-0.7202,-0.6973,-0.6792,-0.6626,-0.6386,-0.6152,-0.5987,-0.5789,-0.5561,-0.5196,-0.4667,-0.4231,-0.3897,-0.3873,-0.3873,-0.4053,-0.4174,-0.418,-0.4176,-0.419,-0.4203,-0.4405,-0.4722,-0.5023,-0.5395,-0.5685,-0.6023,-0.6367,-0.6778,-0.7106,-0.7493,-0.7754,-0.8047,-0.8214,-0.8414,-0.8608,-0.8738,-0.8835,-0.8894,-0.8926,-0.899,-0.9022,-0.8958,-0.899,-0.899,-0.899,-0.921,-0.9466,-0.9626,-0.9754,-0.9951,-1.0117,-1.0276,-1.046,-1.0656,-1.0884,-1.108,-1.122,-1.143,-1.1619,-1.1759,-1.1917,-1.2127,-1.2189,-1.2375,-1.2552,-1.2613,-1.2775,-1.2867,-1.2928,-1.3143,-1.3306,-1.3678,-1.3709,-1.38,-1.3964,-1.4296,-1.4605,-1.479,-1.5008,-1.5131,-1.5168,-1.5098,-1.4883,-1.4812,-1.474,-1.4489,-1.4346,-1.4346,-1.4201,-1.3928,-1.371,-1.3593,-1.3455,-1.3083,-1.279,-1.2636,-1.2526,-1.2378,-1.2224,-1.204,-1.1773,-1.1489,-1.1059,-1.0551,-1.0042,-0.9501,-0.9022,-0.8567,-0.8182,-0.7877,-0.772,-0.7569,-0.7371,-0.7151,-0.6966,-0.678,-0.6557,-0.633,-0.6004,-0.5656,-0.5332,-0.5063,-0.4831,-0.4697,-0.4334,-0.3863,-0.3426,-0.3903,-0.3933,-0.4028,-0.4089,-0.4096,-0.4118,-0.413,-0.4215,-0.448,-0.4805,-0.5048,-0.5343,-0.565,-0.5932,-0.6255,-0.6515,-0.6848,-0.7237,-0.7526,-0.7819,-0.7982,-0.8182,-0.8376,-0.8538,-0.8603,-0.87,-0.877,-0.8797,-0.8802,-0.8829,-0.8797,-0.8797,-0.8829,-0.8894,-0.9055,-0.921,-0.937,-0.9536,-0.969,-0.9881,-1.0072,-1.0322,-1.0618,-1.0819,-1.1035,-1.1305,-1.1417,-1.1514,-1.1633,-1.177,-1.1899,-1.2026,-1.2135,-1.2321,-1.2475,-1.259,-1.2734,-1.2932,-1.3116,-1.3316,-1.3413,-1.3605,-1.3754,-1.4156,-1.4524,-1.4653,-1.4755,-1.4838,-1.4875,-1.4705,-1.4497,-1.4425,-1.431,-1.4093,-1.3949,-1.392,-1.3811,-1.3564,-1.3309,-1.3193,-1.2929,-1.2562,-1.2187,-1.2003,-1.1892,-1.1781,-1.1632,-1.1446,-1.1298,-1.1013,-1.0673,-1.0211,-0.9732,-0.9212,-0.8753,-0.8364,-0.7976,-0.7562,-0.7414,-0.7322,-0.7125,-0.6912,-0.6773,-0.6561,-0.6306,-0.5949,-0.5552,-0.5188,-0.4825,-0.4436,-0.4095,-0.3964,-0.3933,-0.3529,-0.3025,-0.3916,-0.3914,-0.3914,-0.3927,-0.395,-0.4256,-0.4366,-0.44,-0.4715,-0.4877,-0.4938,-0.5389,-0.5672,-0.5914,-0.6218,-0.6482,-0.6712,-0.7036,-0.7297,-0.7526,-0.7722,-0.7954,-0.8144,-0.8236,-0.8371,-0.8474,-0.8544,-0.8608,-0.8549,-0.8608,-0.8576,-0.8544,-0.8608,-0.8674,-0.8782,-0.8934,-0.9091,-0.9232,-0.9427,-0.9624,-0.9794,-1.0147,-1.0454,-1.0684,-1.0982,-1.1216,-1.1384,-1.1488,-1.1556,-1.1646,-1.1681,-1.1733,-1.1823,-1.2003,-1.2065,-1.2226,-1.2479,-1.2634,-1.2802,-1.3048,-1.3259,-1.3569,-1.4077,-1.4383,-1.4471,-1.4454,-1.451,-1.4458,-1.4425,-1.4245,-1.4101,-1.4065,-1.4021,-1.3811,-1.3637,-1.3528,-1.3419,-1.32,-1.2973,-1.2746,-1.2489,-1.215,-1.1781,-1.1558,-1.1372,-1.1105,-1.0962,-1.085,-1.0706,-1.055,-1.0189,-0.9744,-0.9317,-0.8881,-0.8494,-0.8144,-0.7754,-0.7376,-0.7237,-0.7119,-0.6911,-0.6706,-0.6523,-0.6305,-0.5975,-0.5625,-0.5167,-0.472,-0.4268,-0.3885,-0.3551,-0.3391,-0.336,-0.3056,-0.2621,-0.4197,-0.4197,-0.4194,-0.4197,-0.4194,-0.4292,-0.4376,-0.4431,-0.462,-0.48,-0.5068,-0.5335,-0.5554,-0.5719,-0.5951,-0.6218,-0.6482,-0.6778,-0.7134,-0.7363,-0.7526,-0.7754,-0.7977,-0.8139,-0.8236,-0.8306,-0.8409,-0.8479,-0.8511,-0.8511,-0.8517,-0.8517,-0.8544,-0.8614,-0.8733,-0.8892,-0.8998,-0.9131,-0.9369,-0.9459,-0.9676,-1.0083,-1.0309,-1.0535,-1.0839,-1.1054,-1.1147,-1.1349,-1.1438,-1.1458,-1.1712,-1.1772,-1.1582,-1.1938,-1.2248,-1.2512,-1.2739,-1.2945,-1.3029,-1.3156,-1.3274,-1.3378,-1.3746,-1.3956,-1.4094,-1.416,-1.4165,-1.4065,-1.3992,-1.384,-1.3739,-1.3666,-1.3593,-1.3411,-1.3236,-1.3119,-1.2973,-1.2753,-1.2526,-1.2298,-1.204,-1.1744,-1.1372,-1.1149,-1.0962,-1.0588,-1.0325,-1.0218,-1.0067,-0.9911,-0.9739,-0.934,-0.8958,-0.8583,-0.8291,-0.7979,-0.7551,-0.7191,-0.7085,-0.6913,-0.6705,-0.6515,-0.6327,-0.6012,-0.5612,-0.5228,-0.4795,-0.4348,-0.3873,-0.3462,-0.3114,-0.2945,-0.272,-0.2418,-0.215,-0.4303,-0.4303,-0.4303,-0.4303,-0.4303,-0.4303,-0.432,-0.4395,-0.4546,-0.4757,-0.4984,-0.5193,-0.5388,-0.5617,-0.5752,-0.5987,-0.6346,-0.6511,-0.6806,-0.7138,-0.733,-0.7596,-0.7819,-0.7982,-0.8047,-0.8144,-0.8274,-0.8376,-0.8409,-0.8479,-0.8517,-0.8528,-0.8576,-0.8721,-0.8873,-0.901,-0.9135,-0.9284,-0.9404,-0.9495,-0.9719,-1.002,-1.0161,-1.0325,-1.0615,-1.0853,-1.0912,-1.1221,-1.1325,-1.132,-1.1571,-1.156,-1.1477,-1.1871,-1.2091,-1.2362,-1.2582,-1.2718,-1.2816,-1.3005,-1.315,-1.3244,-1.3229,-1.3361,-1.3528,-1.3608,-1.3622,-1.3557,-1.355,-1.3513,-1.3375,-1.3229,-1.3083,-1.298,-1.2826,-1.2673,-1.2489,-1.2268,-1.2046,-1.1818,-1.1558,-1.126,-1.0999,-1.0812,-1.0556,-1.0218,-0.9841,-0.9582,-0.9463,-0.9306,-0.9193,-0.8997,-0.8652,-0.8292,-0.8032,-0.7746,-0.7393,-0.7052,-0.6864,-0.6716,-0.6523,-0.6259,-0.5985,-0.5601,-0.5213,-0.4797,-0.4355,-0.3972,-0.3542,-0.3091,-0.2673,-0.2366,-0.2103,-0.1814,-0.1546,-0.4303,-0.4303,-0.4303,-0.4303,-0.4303,-0.4334,-0.4328,-0.4334,-0.455,-0.4691,-0.4827,-0.5057,-0.5319,-0.5517,-0.565,-0.5851,-0.6115,-0.6313,-0.6581,-0.6913,-0.7106,-0.7335,-0.7563,-0.7699,-0.7857,-0.7982,-0.8112,-0.8242,-0.8269,-0.8349,-0.8463,-0.8517,-0.8727,-0.8927,-0.9073,-0.9203,-0.936,-0.9558,-0.9595,-0.9622,-0.9674,-0.9876,-1.014,-1.0247,-1.063,-1.1026,-1.1052,-1.1162,-1.1253,-1.1236,-1.1246,-1.1272,-1.1515,-1.1689,-1.184,-1.2068,-1.2333,-1.2423,-1.2499,-1.2639,-1.27,-1.2769,-1.2783,-1.2783,-1.2813,-1.3149,-1.3222,-1.3193,-1.3185,-1.3039,-1.2893,-1.2783,-1.2636,-1.2489,-1.2378,-1.2268,-1.2194,-1.1898,-1.1558,-1.1335,-1.1149,-1.085,-1.0556,-1.0331,-1.0067,-0.9771,-0.9506,-0.9127,-0.8861,-0.8703,-0.8585,-0.8508,-0.8241,-0.7931,-0.7604,-0.7335,-0.721,-0.6938,-0.6663,-0.643,-0.6186,-0.5899,-0.5619,-0.5175,-0.4736,-0.4339,-0.396,-0.3513,-0.309,-0.2658,-0.2234,-0.1812,-0.148,-0.123,-0.0979,-0.4303,-0.4303,-0.4303,-0.4303,-0.4334,-0.4464,-0.4528,-0.4528,-0.4694,-0.4794,-0.4861,-0.516,-0.5359,-0.5455,-0.555,-0.5752,-0.5987,-0.6148,-0.6445,-0.6712,-0.6942,-0.7138,-0.7368,-0.7601,-0.7694,-0.7829,-0.7954,-0.8112,-0.8209,-0.8295,-0.8477,-0.8759,-0.8938,-0.9079,-0.936,-0.9489,-0.9593,-0.9776,-0.9776,-0.9748,-0.9817,-0.9977,-1.0172,-1.0247,-1.0513,-1.0669,-1.0714,-1.0834,-1.1009,-1.1095,-1.1261,-1.1406,-1.1619,-1.1663,-1.1784,-1.1942,-1.2111,-1.2138,-1.2098,-1.2121,-1.2131,-1.2077,-1.204,-1.2003,-1.2187,-1.2666,-1.2893,-1.282,-1.2716,-1.2562,-1.2452,-1.2342,-1.2194,-1.204,-1.1892,-1.1892,-1.1855,-1.1484,-1.1074,-1.0887,-1.07,-1.0438,-1.0143,-0.9841,-0.9544,-0.9273,-0.9046,-0.8703,-0.8327,-0.8097,-0.7863,-0.7787,-0.7787,-0.748,-0.7211,-0.698,-0.683,-0.6598,-0.6311,-0.6089,-0.5792,-0.5437,-0.5085,-0.4654,-0.4242,-0.3906,-0.3494,-0.3039,-0.2618,-0.2172,-0.1819,-0.147,-0.107,-0.078,-0.0486,-0.4364,-0.4428,-0.45,-0.4498,-0.4534,-0.4631,-0.4691,-0.4728,-0.4861,-0.4924,-0.4957,-0.516,-0.5326,-0.5395,-0.5488,-0.5686,-0.5892,-0.5987,-0.635,-0.6646,-0.6843,-0.704,-0.7269,-0.7466,-0.7563,-0.7661,-0.7792,-0.7954,-0.8165,-0.8377,-0.8598,-0.891,-0.9063,-0.9327,-0.963,-0.9669,-0.9776,-0.9868,-0.9884,-0.9884,-0.9884,-0.9992,-1.0067,-1.0143,-1.0218,-1.0331,-1.0443,-1.055,-1.07,-1.0844,-1.0963,-1.1081,-1.123,-1.1321,-1.145,-1.1556,-1.1644,-1.1706,-1.1632,-1.1595,-1.1558,-1.1484,-1.1446,-1.1484,-1.1477,-1.1929,-1.2114,-1.2077,-1.215,-1.2077,-1.204,-1.1929,-1.1818,-1.17,-1.1515,-1.1409,-1.1223,-1.0931,-1.0631,-1.0368,-1.018,-1.003,-0.9733,-0.9311,-0.9084,-0.8932,-0.8661,-0.828,-0.7906,-0.7565,-0.733,-0.7138,-0.7138,-0.7026,-0.6718,-0.6563,-0.6409,-0.618,-0.5906,-0.5476,-0.5126,-0.4815,-0.4501,-0.4151,-0.3839,-0.3482,-0.3066,-0.2658,-0.2174,-0.1765,-0.1414,-0.1107,-0.0736,-0.0366,-0.0072,-0.4464,-0.4628,-0.4761,-0.4794,-0.4794,-0.4831,-0.4861,-0.4897,-0.5057,-0.5156,-0.5186,-0.519,-0.5289,-0.5359,-0.5425,-0.566,-0.5859,-0.5987,-0.6313,-0.6581,-0.6811,-0.6975,-0.7171,-0.7363,-0.7493,-0.7563,-0.7661,-0.7962,-0.8232,-0.8428,-0.8669,-0.8978,-0.9317,-0.963,-0.9669,-0.9782,-0.9884,-0.9879,-0.9884,-0.9884,-0.9884,-0.9884,-0.9916,-0.9992,-1.003,-1.0143,-1.0218,-1.0293,-1.04,-1.055,-1.0663,-1.0775,-1.085,-1.0958,-1.1001,-1.1074,-1.1074,-1.1111,-1.1074,-1.1074,-1.1037,-1.1037,-1.1037,-1.1037,-1.1037,-1.1111,-1.1298,-1.1409,-1.1515,-1.1589,-1.1558,-1.1521,-1.1403,-1.1292,-1.1074,-1.0887,-1.0631,-1.0443,-1.018,-0.9879,-0.9733,-0.962,-0.9273,-0.8894,-0.8665,-0.8551,-0.8246,-0.7863,-0.7484,-0.718,-0.6911,-0.6718,-0.6563,-0.6412,-0.6222,-0.6103,-0.5986,-0.5709,-0.5359,-0.489,-0.446,-0.4307,-0.4075,-0.3763,-0.3411,-0.3096,-0.2784,-0.2418,-0.1891,-0.1413,-0.1106,-0.0834,-0.0415,-0.0075,0.026,-0.4731,-0.4761,-0.4794,-0.4794,-0.4827,-0.499,-0.5057,-0.5057,-0.5259,-0.5392,-0.5488,-0.5484,-0.5484,-0.5428,-0.5521,-0.5719,-0.5925,-0.605,-0.6218,-0.6453,-0.6782,-0.6913,-0.7073,-0.7358,-0.7461,-0.7559,-0.7681,-0.7923,-0.8312,-0.8537,-0.8904,-0.9394,-0.9448,-0.9674,-0.9809,-0.9884,-0.9884,-0.9884,-0.9884,-0.9884,-0.9884,-0.9884,-0.9884,-0.9922,-0.996,-0.996,-0.996,-0.9997,-1.0105,-1.0255,-1.0406,-1.0475,-1.0475,-1.0481,-1.0519,-1.0513,-1.0519,-1.0519,-1.0519,-1.0519,-1.0475,-1.0513,-1.0519,-1.0556,-1.0556,-1.0556,-1.0669,-1.07,-1.0812,-1.0962,-1.0962,-1.0887,-1.0775,-1.07,-1.055,-1.0368,-1.0143,-0.9997,-0.9846,-0.962,-0.9397,-0.9203,-0.8894,-0.8589,-0.8322,-0.8131,-0.7787,-0.7407,-0.7061,-0.6795,-0.6528,-0.6254,-0.606,-0.587,-0.5718,-0.5595,-0.5476,-0.5162,-0.4851,-0.4423,-0.4112,-0.3958,-0.3684,-0.3333,-0.2979,-0.2666,-0.2353,-0.208,-0.1722,-0.1243,-0.0897,-0.0584,-0.0155,0.0269,0.061]},{"header":{"parameterUnit":"m.s-1","parameterCategory":1,"la1":31.0,"la2":29.5877,"lo1":-88.7671,"lo2":-86.6584,"dy":0.0162,"dx":0.0185,"nx":115,"ny":88,"refTime":"2024-04-22T00:00:00:Z","depth":0,"parameterNumber":3,"parameterNumberName":"V-component_of_WINDS"},"data":[0.0,0.0,0.0,0.0,0.0,0.0,0.0,0.0,0.0,0.0,0.0,0.0,0.0,0.0,0.0,0.0,0.0,0.0,0.0,0.0,0.0,0.0,0.0,0.0,0.0,0.0,0.0,0.0,0.0,0.0,0.0,0.0,0.0,0.0,0.0,0.0,0.0,0.0,0.0,0.0,0.0,0.0,0.0,0.0,0.0,0.0,0.0,0.0,0.0,0.0,0.0,0.0,0.0,0.0,0.0,0.0,0.0,0.0,0.0,0.0,0.0,0.0,0.0,0.0,0.0,0.0,0.0,0.0,0.0,0.0,0.0,0.0,0.0,0.0,0.0,0.0,0.0,0.0,0.0,0.0,0.0,0.0,0.0,0.0,0.0,0.0,0.0,0.0,0.0,0.0,0.0,0.0,0.0,0.0,0.0,0.0,0.0,0.0,0.0,0.0,0.0,0.0,0.0,0.0,0.0,0.0,0.0,0.0,0.0,0.0,0.0,0.0,0.0,0.0,0.0,0.0,0.0,0.0,0.0,0.0,0.0,0.0,0.0,0.0,0.0,0.0,0.0,0.0,0.0,0.0,0.0,0.0,0.0,0.0,0.0,0.0,0.0,0.0,0.0,0.0,0.0,0.0,0.0,0.0,0.0,0.0,0.0,0.0,0.0,0.0,0.0,0.0,0.0,0.0,0.0,0.0,0.0,0.0,0.0,0.0,0.0,0.0,0.0,0.0,0.0,0.0,0.0,0.0,0.0,0.0,0.0,0.0,0.0,0.0,0.0,0.0,0.0,0.0,0.0,0.0,0.0,0.0,0.0,0.0,0.0,0.0,0.0,0.0,0.0,0.0,0.0,0.0,0.0,0.0,0.0,0.0,0.0,0.0,0.0,0.0,0.0,0.0,0.0,0.0,0.0,0.0,0.0,0.0,0.0,0.0,0.0,0.0,0.0,0.0,0.0,0.0,0.0,0.0,0.0,0.0,0.0,0.0,0.0,0.0,0.0,0.0,0.0,0.0,0.0,0.0,0.0,0.0,0.0,0.0,0.0,0.0,0.0,0.0,0.0,0.0,0.0,0.0,0.0,0.0,0.0,0.0,0.0,0.0,0.0,0.0,0.0,0.0,0.0,0.0,0.0,0.0,0.0,0.0,0.0,0.0,0.0,0.0,0.0,0.0,0.0,0.0,0.0,0.0,0.0,0.0,0.0,0.0,0.0,0.0,0.0,0.0,0.0,0.0,0.0,0.0,0.0,0.0,0.0,0.0,0.0,0.0,0.0,0.0,0.0,0.0,0.0,0.0,0.0,0.0,0.0,0.0,0.0,0.0,0.0,0.0,0.0,0.0,0.0,0.0,0.0,0.0,0.0,0.0,0.0,0.0,0.0,0.0,0.0,0.0,0.0,0.0,0.0,0.0,0.0,0.0,0.0,0.0,0.0,0.0,0.0,0.0,0.0,0.0,0.0,0.0,0.0,0.0,0.0,0.0,0.0,0.0,0.0,0.0,0.0,0.0,0.0,0.0,0.0,0.0,0.0,0.0,0.0,0.0,0.0,0.0,0.0,0.0,0.0,0.0,0.0,0.0,0.0,0.0,0.0,0.0,0.0,0.0,0.0,0.0,0.0,0.0,0.0,0.0,0.0,0.0,0.0,0.0,0.0,0.0,0.0,0.0,0.0,0.0,0.0,0.0,0.0,0.0,0.0,0.0,0.0,0.0,0.0,0.0,0.0,0.0,0.0,0.0,0.0,0.0,0.0,0.0,0.0,0.0,0.0,0.0,0.0,0.0,0.0,0.0,0.0,0.0,0.0,0.0,0.0,0.0,0.0,0.0,0.0,0.0,0.0,0.0,0.0,0.0,0.0,0.0,0.0,0.0,0.0,0.0,0.0,0.0,0.0,0.0,0.0,0.0,0.0,0.0,0.0,0.0,0.0,0.0,0.0,0.0,0.0,0.0,0.0,0.0,0.0,0.0,0.0,0.0,0.0,0.0,0.0,0.0,0.0,0.0,0.0,0.0,0.0,0.0,0.0,0.0,0.0,0.0,0.0,0.0,0.0,0.0,0.0,0.0,0.0,0.0,0.0,0.0,0.0,0.0,0.0,0.0,0.0,0.0,0.0,0.0,0.0,0.0,0.0,0.0,0.0,0.0,0.0,0.0,0.0,0.0,0.0,0.0,0.0,0.0,0.0,0.0,0.0,0.0,0.0,0.0,0.0,0.0,0.0,0.0,0.0,0.0,0.0,0.0,0.0,0.0,0.0,0.0,0.0,0.0,0.0,0.0,0.0,0.0,0.0,0.0,0.0,0.0,0.0,0.0,0.0,0.0,0.0,0.0,0.0,0.0,0.0,0.0,0.0,0.0,0.0,0.0,0.0,0.0,0.0,0.0,0.0,0.0,0.0,0.0,0.0,0.0,0.0,0.0,0.0,0.0,0.0,0.0,0.0,0.0,0.0,0.0,0.0,0.0,0.0,0.0,0.0,0.0,0.0,0.0,0.0,0.0,0.0,0.0,0.0,0.0,0.0,0.0,0.0,0.0,0.0,0.0,0.0,0.0,0.0,0.0,0.0,0.0,0.0,0.0,0.0,0.0,0.0,0.0,0.0,0.0,0.0,0.0,0.0,0.0,0.0,0.0,0.0,0.0,0.0,0.0,0.0,0.0,0.0,0.0,0.0,0.0,0.0,0.0,0.0,0.0,0.0,0.0,0.0,0.0,0.0,0.0,0.0,0.0,0.0,0.0,0.0,0.0,0.0,0.0,0.0,0.0,0.0,0.0,0.0,0.0,0.0,0.0,0.0,0.0,0.0,0.0,0.0,0.0,0.0,0.0,0.0,0.0,0.0,0.0,0.0,0.0,0.0,0.0,0.0,0.0,0.0,0.0,0.0,0.0,0.0,0.0,0.0,0.0,0.0,0.0,0.0,0.0,0.0,0.0,0.0,0.0,0.0,0.0,0.0,0.0,0.0,0.0,0.0,0.0,0.0,0.0,0.0,0.0,0.0,0.0,0.0,0.0,0.0,0.0,0.0,0.0,0.0,0.0,0.0,0.0,0.0,0.0,0.0,0.0,0.0,0.0,0.0,0.0,0.0,0.0,0.0,0.0,0.0,0.0,0.0,0.0,0.0,0.0,0.0,0.0,0.0,0.0,0.0,0.0,0.0,0.0,0.0,0.0,0.0,0.0,0.0,0.0,0.0,0.0,0.0,0.0,0.0,0.0,0.0,0.0,0.0,0.0,0.0,0.0,0.0,0.0,0.0,0.0,0.0,0.0,0.0,0.0,0.0,0.0,0.0,0.0,0.0,0.0,0.0,0.0,0.0,0.0,0.0,0.0,0.0,0.0,0.0,0.0,0.0,0.0,0.0,0.0,0.0,0.0,0.0,0.0,0.0,0.0,0.0,0.0,0.0,0.0,0.0,0.0,0.0,0.0,0.0,0.0,0.0,0.0,0.0,0.0,0.0,0.0,0.0,0.0,0.0,0.0,0.0,0.0,0.0,0.0,0.0,0.0,0.0,0.0,0.0,0.0,0.0,0.0,0.0,0.0,0.0,0.0,0.0,0.0,0.0,0.0,0.0,0.0,0.0,0.0,0.0,0.0,0.0,0.0,0.0,0.0,0.0,0.0,0.0,0.0,0.0,0.0,0.0,0.0,0.0,0.0,0.0,0.0,0.0,0.0,0.0,0.0,0.0,0.0,0.0,0.0,0.0,0.0,0.0,0.0,0.0,0.0,0.0,0.0,0.0,0.0,0.0,0.0,0.0,0.0,0.0,0.0,0.0,0.0,0.0,0.0,0.0,0.0,0.0,0.0,0.0,0.0,0.0,0.0,0.0,0.0,0.0,0.0,0.0,0.0,0.0,0.0,0.0,0.0,0.0,0.0,0.0,0.0,0.0,0.0,0.0,0.0,0.0,0.0,0.0,0.0,0.0,0.0,0.0,0.0,0.0,0.0,0.0,0.0,0.0,0.0,0.0,0.0,0.0,0.0,0.0,0.0,0.0,0.0,0.0,0.0,0.0,0.0,0.0,0.0,0.0,0.0,0.0,0.0,0.0,0.0,0.0,0.0,0.0,0.0,0.0,0.0,0.0,0.0,0.0,0.0,0.0,0.0,0.0,0.0,0.0,0.0,0.0,0.0,0.0,0.0,0.0,0.0,0.0,0.0,0.0,0.0,0.0,0.0,0.0,0.0,0.0,0.0,0.0,0.0,0.0,0.0,0.0,0.0,0.0,0.0,0.0,0.0,0.0,0.0,0.0,0.0,0.0,0.0,0.0,0.0,-1.1077,0.0,0.0,0.0,0.0,0.0,0.0,0.0,0.0,0.0,0.0,0.0,0.0,0.0,0.0,0.0,0.0,0.0,0.0,0.0,0.0,0.0,0.0,0.0,0.0,0.0,0.0,0.0,0.0,0.0,0.0,0.0,0.0,0.0,0.0,0.0,0.0,0.0,0.0,0.0,0.0,0.0,0.0,0.0,0.0,0.0,0.0,0.0,0.0,0.0,0.0,0.0,0.0,0.0,0.0,0.0,0.0,0.0,0.0,0.0,0.0,0.0,0.0,0.0,0.0,0.0,0.0,0.0,0.0,0.0,0.0,0.0,0.0,0.0,0.0,0.0,0.0,0.0,0.0,0.0,0.0,0.0,0.0,0.0,0.0,0.0,0.0,0.0,0.0,0.0,0.0,0.0,0.0,0.0,0.0,0.0,0.0,0.0,0.0,0.0,0.0,0.0,0.0,0.0,0.0,0.0,0.0,0.0,0.0,0.0,0.0,-1.1377,-1.1593,-1.1509,-1.134,-1.1128,0.0,0.0,0.0,0.0,0.0,0.0,0.0,0.0,0.0,0.0,0.0,0.0,0.0,0.0,0.0,0.0,0.0,0.0,0.0,0.0,0.0,0.0,0.0,0.0,0.0,0.0,0.0,0.0,0.0,0.0,0.0,0.0,0.0,0.0,0.0,0.0,0.0,0.0,0.0,0.0,0.0,0.0,0.0,0.0,0.0,0.0,0.0,0.0,0.0,0.0,0.0,0.0,0.0,0.0,0.0,0.0,0.0,0.0,0.0,0.0,0.0,0.0,0.0,0.0,0.0,0.0,0.0,0.0,0.0,0.0,0.0,0.0,0.0,0.0,0.0,0.0,0.0,0.0,0.0,0.0,0.0,0.0,0.0,0.0,0.0,0.0,0.0,0.0,0.0,0.0,0.0,0.0,0.0,0.0,0.0,0.0,0.0,0.0,0.0,0.0,0.0,0.0,0.0,0.0,0.0,0.0,0.0,0.0,0.0,0.0,0.0,0.0,-1.1581,-1.137,-1.1174,0.0,0.0,0.0,0.0,0.0,0.0,0.0,0.0,0.0,0.0,0.0,0.0,0.0,0.0,0.0,0.0,0.0,0.0,0.0,0.0,0.0,0.0,0.0,0.0,0.0,0.0,0.0,0.0,0.0,0.0,0.0,0.0,0.0,0.0,0.0,0.0,0.0,0.0,0.0,0.0,0.0,0.0,0.0,0.0,0.0,0.0,0.0,0.0,0.0,0.0,0.0,0.0,0.0,0.0,0.0,0.0,0.0,0.0,0.0,0.0,0.0,0.0,0.0,0.0,0.0,0.0,0.0,0.0,0.0,0.0,0.0,0.0,0.0,0.0,0.0,0.0,0.0,0.0,0.0,0.0,0.0,0.0,0.0,0.0,0.0,0.0,0.0,0.0,0.0,0.0,0.0,0.0,0.0,0.0,0.0,0.0,0.0,0.0,0.0,0.0,0.0,0.0,0.0,0.0,0.0,0.0,0.0,0.0,0.0,0.0,-1.0745,-1.0829,-1.1135,0.0,-1.1114,0.0,0.0,0.0,0.0,0.0,0.0,0.0,0.0,0.0,0.0,0.0,0.0,0.0,0.0,0.0,0.0,0.0,0.0,0.0,0.0,0.0,0.0,0.0,0.0,0.0,0.0,0.0,0.0,0.0,0.0,0.0,0.0,0.0,0.0,0.0,0.0,0.0,0.0,0.0,0.0,0.0,0.0,0.0,0.0,0.0,0.0,0.0,0.0,0.0,0.0,0.0,0.0,0.0,0.0,0.0,0.0,0.0,0.0,0.0,0.0,0.0,0.0,0.0,0.0,0.0,0.0,0.0,0.0,0.0,0.0,0.0,0.0,0.0,0.0,0.0,0.0,0.0,0.0,0.0,0.0,0.0,0.0,0.0,0.0,0.0,0.0,0.0,0.0,0.0,0.0,0.0,0.0,0.0,0.0,0.0,0.0,0.0,0.0,0.0,0.0,0.0,0.0,0.0,0.0,0.0,0.0,0.0,0.0,0.0,0.0,-0.9903,-1.003,-1.0394,-1.0621,0.0,0.0,0.0,0.0,0.0,0.0,0.0,0.0,0.0,0.0,0.0,0.0,0.0,0.0,0.0,0.0,0.0,0.0,0.0,0.0,0.0,0.0,0.0,0.0,0.0,0.0,0.0,0.0,0.0,0.0,0.0,0.0,0.0,0.0,0.0,0.0,0.0,0.0,0.0,0.0,0.0,0.0,0.0,0.0,0.0,0.0,0.0,0.0,0.0,0.0,0.0,0.0,0.0,0.0,0.0,0.0,0.0,0.0,0.0,0.0,0.0,0.0,0.0,0.0,0.0,0.0,0.0,0.0,0.0,0.0,0.0,0.0,0.0,0.0,0.0,0.0,0.0,0.0,0.0,0.0,0.0,0.0,0.0,0.0,0.0,0.0,0.0,0.0,0.0,0.0,0.0,0.0,0.0,0.0,0.0,0.0,0.0,0.0,0.0,0.0,0.0,0.0,0.0,0.0,0.0,0.0,0.0,0.0,0.0,0.0,-0.8837,-0.905,-0.9363,-0.98,-1.0066,-1.015,0.0,0.0,0.0,0.0,0.0,0.0,0.0,0.0,0.0,0.0,0.0,0.0,0.0,0.0,0.0,0.0,0.0,0.0,0.0,0.0,0.0,0.0,0.0,0.0,0.0,0.0,0.0,0.0,0.0,0.0,0.0,0.0,0.0,0.0,0.0,0.0,0.0,0.0,0.0,0.0,0.0,0.0,0.0,0.0,0.0,0.0,0.0,0.0,0.0,0.0,0.0,0.0,0.0,0.0,0.0,0.0,0.0,0.0,0.0,0.0,0.0,0.0,0.0,0.0,0.0,0.0,0.0,0.0,0.0,0.0,0.0,0.0,0.0,0.0,0.0,0.0,0.0,0.0,0.0,0.0,0.0,0.0,0.0,0.0,0.0,0.0,0.0,0.0,0.0,0.0,0.0,0.0,0.0,0.0,0.0,0.0,0.0,0.0,0.0,0.0,0.0,0.0,0.0,0.0,0.0,0.0,0.0,0.0,-0.7579,-0.7752,-0.8177,-0.88,-0.9473,-0.9731,0.0,0.0,0.0,0.0,0.0,0.0,0.0,0.0,0.0,0.0,0.0,0.0,0.0,0.0,0.0,0.0,0.0,0.0,0.0,0.0,0.0,0.0,0.0,0.0,0.0,0.0,0.0,0.0,0.0,0.0,0.0,0.0,0.0,0.0,0.0,0.0,0.0,0.0,0.0,0.0,0.0,0.0,0.0,0.0,0.0,0.0,0.0,0.0,0.0,0.0,0.0,0.0,0.0,0.0,0.0,0.0,0.0,0.0,0.0,0.0,0.0,0.0,0.0,0.0,0.0,0.0,0.0,0.0,0.0,0.0,0.0,0.0,0.0,0.0,0.0,0.0,0.0,0.0,0.0,0.0,0.0,0.0,0.0,0.0,0.0,0.0,0.0,0.0,0.0,0.0,0.0,0.0,0.0,0.0,0.0,0.0,0.0,0.0,0.0,0.0,0.0,0.0,0.0,0.0,0.0,0.0,0.0,0.0,0.0,-0.6565,-0.6691,-0.7085,-0.775,-0.8435,-0.8776,0.0,0.0,0.0,0.0,0.0,0.0,0.0,0.0,0.0,0.0,0.0,0.0,0.0,0.0,0.0,0.0,0.0,0.0,0.0,0.0,0.0,0.0,0.0,0.0,0.0,0.0,0.0,0.0,0.0,0.0,0.0,0.0,0.0,0.0,0.0,0.0,0.0,0.0,0.0,0.0,0.0,0.0,0.0,0.0,0.0,0.0,0.0,0.0,0.0,0.0,0.0,0.0,0.0,0.0,0.0,0.0,0.0,0.0,0.0,0.0,0.0,0.0,0.0,0.0,0.0,0.0,0.0,0.0,0.0,0.0,0.0,0.0,0.0,0.0,0.0,0.0,0.0,0.0,0.0,0.0,0.0,0.0,0.0,0.0,0.0,0.0,0.0,0.0,0.0,0.0,0.0,0.0,0.0,0.0,0.0,0.0,0.0,0.0,0.0,0.0,0.0,0.0,0.0,0.0,0.0,0.0,0.0,0.0,0.0,-0.5352,0.0,-0.5845,-0.651,-0.7203,-0.7735,0.0,0.0,0.0,0.0,0.0,0.0,0.0,0.0,0.0,0.0,0.0,0.0,0.0,0.0,0.0,0.0,0.0,0.0,0.0,0.0,0.0,0.0,0.0,0.0,0.0,0.0,0.0,0.0,0.0,0.0,0.0,0.0,0.0,0.0,0.0,0.0,0.0,0.0,0.0,0.0,0.0,0.0,0.0,0.0,0.0,0.0,0.0,0.0,0.0,0.0,0.0,0.0,0.0,0.0,0.0,0.0,0.0,0.0,0.0,0.0,0.0,0.0,0.0,0.0,0.0,0.0,0.0,0.0,0.0,0.0,0.0,0.0,0.0,0.0,0.0,0.0,0.0,0.0,0.0,0.0,0.0,0.0,0.0,0.0,0.0,0.0,0.0,0.0,0.0,0.0,0.0,0.0,0.0,0.0,0.0,0.0,0.0,0.0,0.0,0.0,0.0,0.0,0.0,0.0,0.0,0.0,0.0,0.0,-0.4279,-0.3891,-0.4004,-0.4352,-0.5072,-0.5861,-0.669,0.0,0.0,0.0,0.0,0.0,0.0,0.0,0.0,0.0,0.0,0.0,0.0,0.0,0.0,0.0,0.0,0.0,0.0,0.0,0.0,0.0,0.0,0.0,0.0,0.0,0.0,0.0,0.0,0.0,0.0,0.0,0.0,0.0,0.0,0.0,0.0,0.0,0.0,0.0,0.0,0.0,0.0,0.0,0.0,0.0,0.0,0.0,0.0,0.0,0.0,0.0,0.0,0.0,0.0,0.0,0.0,0.0,0.0,0.0,0.0,0.0,0.0,0.0,0.0,0.0,0.0,0.0,0.0,0.0,0.0,0.0,0.0,0.0,0.0,0.0,0.0,0.0,0.0,0.0,0.0,0.0,0.0,0.0,0.0,0.0,0.0,0.0,0.0,0.0,0.0,0.0,0.0,0.0,0.0,0.0,0.0,0.0,0.0,0.0,0.0,0.0,0.0,0.0,0.0,0.0,0.0,0.0,0.0,0.0,-0.2013,-0.2079,-0.2475,-0.329,-0.4219,-0.5188,0.0,0.0,0.0,0.0,0.0,0.0,0.0,0.0,0.0,0.0,0.0,0.0,0.0,0.0,0.0,0.0,0.0,0.0,0.0,0.0,0.0,0.0,0.0,0.0,0.0,0.0,0.0,0.0,0.0,0.0,0.0,0.0,0.0,0.0,0.0,0.0,0.0,0.0,0.0,0.0,0.0,0.0,0.0,0.0,0.0,0.0,0.0,0.0,0.0,0.0,0.0,0.0,0.0,0.0,0.0,0.0,0.0,0.0,0.0,0.0,0.0,0.0,0.0,0.0,0.0,0.0,0.0,0.0,0.0,0.0,0.0,0.0,0.0,0.0,0.0,0.0,0.0,0.0,0.0,0.0,0.0,0.0,0.0,0.0,0.0,0.0,0.0,0.0,0.0,0.0,0.0,0.0,0.0,0.0,0.0,0.0,0.0,0.0,0.0,0.0,0.0,0.0,0.0,0.0,0.0,0.0,0.0,0.0,0.0,0.1182,0.0352,-0.0508,-0.1369,-0.2417,-0.3609,-0.4973,0.0,0.0,0.0,0.0,0.0,0.0,0.0,0.0,0.0,0.0,0.0,0.0,0.0,0.0,0.0,0.0,0.0,0.0,0.0,0.0,0.0,0.0,0.0,0.0,0.0,0.0,0.0,0.0,0.0,0.0,0.0,0.0,0.0,0.0,0.0,0.0,0.0,0.0,0.0,0.0,0.0,0.0,0.0,0.0,0.0,0.0,0.0,0.0,0.0,0.0,0.0,0.0,0.0,0.0,0.0,0.0,0.0,0.0,0.0,0.0,0.0,0.0,0.0,0.0,0.0,0.0,0.0,0.0,0.0,0.0,0.0,0.0,0.0,0.0,0.0,0.0,0.0,0.0,0.0,0.0,0.0,0.0,0.0,0.0,0.0,0.0,0.0,0.0,0.0,0.0,0.0,0.0,0.0,0.0,0.0,0.0,0.0,0.0,0.0,0.0,0.0,0.0,0.0,0.0,0.0,0.0,0.0,0.0,0.537,0.3265,0.1718,0.0683,-0.0439,-0.195,0.0,0.0,0.0,0.0,0.0,0.0,0.0,0.0,0.0,0.0,0.0,0.0,0.0,0.0,0.0,0.0,0.0,0.0,0.0,0.0,0.0,0.0,0.0,0.0,0.0,0.0,0.0,0.0,0.0,0.0,0.0,0.0,0.0,0.0,0.0,0.0,0.0,0.0,0.0,0.0,0.0,0.0,0.0,0.0,0.0,0.0,0.0,0.0,0.0,0.0,0.0,0.0,0.0,0.0,0.0,0.0,0.0,0.0,0.0,0.0,0.0,0.0,0.0,0.0,0.0,0.0,0.0,0.0,0.0,0.0,0.0,0.0,0.0,0.0,0.0,0.0,0.0,0.0,0.0,0.0,0.0,0.0,0.0,0.0,0.0,0.0,0.0,0.0,0.0,0.0,0.0,0.0,0.0,0.0,0.0,0.0,0.0,0.0,0.0,0.0,0.0,0.0,0.0,0.0,0.0,0.0,0.0,0.0,0.0,0.7517,0.6928,0.5403,0.296,0.1469,-0.0197,0.0,0.0,0.0,0.0,0.0,0.0,0.0,0.0,0.0,0.0,0.0,0.0,0.0,0.0,0.0,0.0,0.0,0.0,0.0,0.0,0.0,0.0,0.0,0.0,0.0,0.0,0.0,0.0,0.0,0.0,0.0,0.0,0.0,0.0,0.0,0.0,0.0,0.0,0.0,0.0,0.0,0.0,0.0,0.0,0.0,0.0,0.0,0.0,0.0,0.0,0.0,0.0,0.0,0.0,0.0,0.0,0.0,0.0,0.0,0.0,0.0,0.0,0.0,0.0,0.0,0.0,0.0,0.0,0.0,0.0,0.0,0.0,0.0,0.0,0.0,0.0,0.0,0.0,0.0,0.0,0.0,0.0,0.0,0.0,0.0,0.0,0.0,0.0,0.0,0.0,0.0,0.0,0.0,0.0,0.0,0.0,0.0,0.0,0.0,0.0,0.0,0.0,0.0,0.0,0.0,0.0,0.0,0.0,0.964,0.9987,0.9836,0.8733,0.6565,0.4036,0.1723,0.0,0.0,0.0,0.0,0.0,0.0,0.0,0.0,0.0,0.0,0.0,0.0,0.0,0.0,0.0,0.0,0.0,0.0,0.0,0.0,0.0,0.0,0.0,0.0,0.0,0.0,0.0,0.0,0.0,0.0,0.0,0.0,0.0,0.0,0.0,0.0,0.0,0.0,0.0,0.0,0.0,0.0,0.0,0.0,0.0,0.0,0.0,0.0,0.0,0.0,0.0,0.0,0.0,0.0,0.0,0.0,0.0,0.0,0.0,0.0,0.0,0.0,0.0,0.0,0.0,0.0,0.0,0.0,0.0,0.0,0.0,0.0,0.0,0.0,0.0,0.0,0.0,0.0,0.0,0.0,0.0,0.0,0.0,0.0,0.0,0.0,0.0,0.0,0.0,0.0,0.0,0.0,0.0,0.0,0.0,0.0,0.0,0.0,0.0,0.0,0.0,0.0,0.0,0.0,0.0,0.0,0.0,0.0,1.2097,1.2543,1.2282,1.1637,1.057,0.6807,0.3713,0.0,0.0,0.0,0.0,0.0,0.0,0.0,0.0,0.0,0.0,0.0,0.0,0.0,0.0,0.0,0.0,0.0,0.0,0.0,0.0,0.0,0.0,0.0,0.0,0.0,0.0,0.0,0.0,0.0,0.0,0.0,0.0,0.0,0.0,0.0,0.0,0.0,0.0,0.0,0.0,0.0,0.0,0.0,0.0,0.0,0.0,0.0,0.0,0.0,0.0,0.0,0.0,0.0,0.0,0.0,0.0,0.0,0.0,0.0,0.0,0.0,0.0,0.0,0.0,0.0,0.0,0.0,0.0,0.0,0.0,0.0,0.0,0.0,0.0,0.0,0.0,0.0,0.0,0.0,0.0,0.0,0.0,0.0,0.0,0.0,0.0,0.0,0.0,0.0,0.0,0.0,0.0,0.0,0.0,0.0,0.0,0.0,0.0,0.0,0.0,0.0,0.0,0.0,0.0,0.0,0.0,0.0,0.0,1.4049,1.4851,1.4494,1.3612,1.2152,0.8403,0.5345,0.0,0.0,0.0,0.0,0.0,0.0,0.0,0.0,0.0,0.0,0.0,0.0,0.0,0.0,0.0,0.0,0.0,0.0,0.0,0.0,0.0,0.0,0.0,0.0,0.0,0.0,0.0,0.0,0.0,0.0,0.0,0.0,0.0,0.0,0.0,0.0,0.0,0.0,0.0,0.0,0.0,0.0,0.0,0.0,0.0,0.0,0.0,0.0,0.1702,0.0,0.0,0.0,0.0,0.0,0.0,0.0,0.0,0.0,0.0,0.0,0.0,0.0,0.0,0.0,0.0,0.0,0.0,0.0,0.0,0.0,0.0,0.0,0.0,0.0,0.0,0.0,0.0,0.0,0.0,0.0,0.0,0.0,0.0,0.0,0.0,0.0,0.0,0.0,0.0,0.0,0.0,0.0,0.0,0.0,0.0,0.0,0.0,0.0,0.0,0.0,0.0,0.0,0.0,0.0,0.0,0.0,0.0,0.0,1.6217,1.6728,1.6427,1.5629,1.4346,1.1211,0.8003,0.0,0.0,0.0,0.0,0.0,0.0,0.0,0.0,0.0,0.0,0.0,0.0,0.0,0.0,0.0,0.0,0.0,0.0,0.0,0.0,0.0,0.0,0.0,0.0,0.0,0.0,0.0,0.0,0.0,0.0,0.0,0.0,0.0,0.0,0.0,0.0,0.0,0.0,0.0,0.0,0.0,0.0,0.0,0.0,0.0,0.0,0.0,0.0,0.0,0.0,0.0,0.0,0.0,0.0,0.0,0.0,0.0,0.0,0.0,0.0,0.0,0.0,0.0,0.0,0.0,0.0,0.0,0.0,0.0,0.0,0.0,0.0,0.0,0.0,0.0,0.0,0.0,0.0,0.0,0.0,0.0,0.0,0.0,0.0,0.0,0.0,0.0,0.0,0.0,0.0,0.0,0.0,0.0,0.0,0.0,0.0,0.0,0.0,0.0,0.0,0.0,0.0,0.0,0.0,0.0,0.0,0.0,1.7309,1.8206,1.8382,1.8108,1.7525,1.6606,1.4141,1.1,0.7155,0.0,0.0,0.0,0.0,0.0,0.0,0.0,0.0,0.0,0.0,0.0,0.0,0.0,0.0,0.0,0.0,0.0,0.0,0.0,0.0,0.0,0.0,0.0,0.0,0.0,0.0,0.0,0.0,0.0,0.0,0.0,0.0,0.0,0.0,0.0,0.0,0.0,0.0,0.4202,0.4547,0.0,0.0,0.0,0.0,0.0,0.0,0.0,0.0,0.5384,0.0,0.0,0.0,0.0,0.0,0.0,0.0,0.0,0.0,0.0,0.0,0.0,0.0,0.0,0.0,0.0,0.0,0.0,0.0,0.0,0.0,0.0,0.0,0.0,0.0,0.0,0.0,0.0,0.0,0.0,0.0,0.0,0.0,0.0,0.0,0.0,0.0,0.0,0.0,0.0,0.0,0.0,0.0,0.0,0.0,0.0,0.0,0.0,0.0,0.0,0.0,0.0,0.0,0.0,0.0,0.0,1.7394,1.8465,1.9267,1.9836,1.9587,1.8843,1.7578,1.566,1.3381,1.0666,0.0,0.0,0.0,0.0,0.0,0.0,0.0,0.0,0.0,0.0,0.0,0.0,0.0,0.0,0.0,0.0,0.0,0.0,0.0,0.0,0.0,0.0,0.0,0.0,0.0,0.0,0.0,0.0,0.0,0.0,0.0,0.0,0.0,0.0,0.0,0.0,0.0,0.0,0.0,0.6528,0.6786,0.0,0.0,0.0,0.0,0.0,0.0,0.0,0.0,0.6887,0.0,0.0,0.0,0.0,0.0,0.0,0.0,0.0,0.0,0.0,0.0,0.0,0.0,0.0,0.0,0.0,0.0,0.0,0.0,0.0,0.0,0.0,0.0,0.0,0.0,0.0,0.0,0.0,0.0,0.0,0.0,0.0,0.0,0.0,0.0,0.0,0.0,0.0,0.0,0.0,0.0,0.0,0.0,0.0,0.0,0.0,0.0,0.0,0.0,0.0,0.0,0.0,0.0,0.0,0.0,1.8207,1.9546,2.0365,2.0647,2.0446,1.9867,1.8895,1.6922,1.4961,0.0,0.0,0.0,0.0,0.0,0.0,0.0,0.0,0.0,0.0,0.0,0.0,0.0,0.0,0.0,0.0,0.0,0.0,0.0,0.0,0.0,0.0,0.0,0.0,0.0,0.0,0.0,0.0,0.0,0.0,0.0,0.0,0.0,0.0,0.0,0.0,0.0,0.0,0.0,0.0,0.8189,0.8651,0.8978,0.0,0.0,0.0,0.0,0.0,0.0,0.8893,0.8698,0.0,0.0,0.0,0.0,0.0,0.0,0.0,0.0,0.0,0.0,0.0,0.0,0.0,0.0,0.0,0.0,0.0,0.0,0.0,0.0,0.0,0.0,0.0,0.0,0.0,0.0,0.0,0.0,0.0,0.0,0.0,0.0,0.0,0.0,0.0,0.0,0.0,0.0,0.0,0.0,0.0,0.0,0.0,0.0,0.0,0.0,0.0,0.0,0.0,0.0,0.0,0.0,0.0,0.0,0.0,1.8695,2.0397,2.1278,2.1214,2.1039,2.0647,2.0076,1.7959,1.6105,0.0,0.0,0.0,0.0,0.0,0.0,0.0,0.0,0.0,0.0,0.0,0.0,0.0,0.0,0.0,0.0,0.0,0.0,0.0,0.0,0.0,0.0,0.0,0.0,0.0,0.0,0.0,0.0,0.0,0.0,0.0,0.0,0.0,0.0,0.0,0.0,0.0,0.0,0.0,0.0,0.0,1.035,1.0689,1.0869,0.0,0.0,0.0,0.0,1.0779,1.0515,0.0,0.0,0.0,0.0,0.0,0.0,0.0,0.0,0.0,0.0,0.0,0.0,0.0,0.0,0.0,0.0,0.0,0.0,0.0,0.0,0.0,0.0,0.0,0.0,0.0,0.0,0.0,0.0,0.0,0.0,0.0,0.0,0.0,0.0,0.0,0.0,0.0,0.0,0.0,0.0,0.0,0.0,0.0,0.0,0.0,0.0,0.0,0.0,0.0,0.0,0.0,0.0,0.0,0.0,0.0,0.0,1.9163,2.0791,2.1634,2.1617,2.1449,2.1135,2.068,1.8659,1.6894,0.0,0.0,0.0,0.0,0.0,0.0,0.0,0.0,0.0,0.0,0.0,0.0,0.0,0.0,0.0,0.0,0.0,0.0,0.0,0.0,0.0,0.0,0.0,0.0,0.0,0.0,0.0,0.0,0.0,0.0,0.0,0.0,0.0,0.0,0.0,0.0,0.0,0.0,0.0,0.0,0.0,1.172,1.1868,1.2214,1.2372,0.0,0.0,1.1983,1.1692,1.1495,0.0,0.0,0.0,0.0,0.0,0.0,0.0,0.0,0.0,0.0,0.0,0.0,0.0,0.0,0.0,0.0,0.0,0.0,0.0,0.0,0.0,0.0,0.0,0.0,0.0,0.0,0.0,0.0,0.0,0.0,0.0,0.0,0.0,0.0,0.0,0.0,0.0,0.0,0.0,0.0,0.0,0.0,0.0,0.0,0.0,0.0,0.0,0.0,0.0,0.0,0.0,0.0,0.0,0.0,0.0,1.9311,1.9601,2.1222,2.2061,2.1984,2.1851,2.1386,2.054,1.8983,1.7401,0.0,0.0,0.0,0.0,0.0,0.0,0.0,0.0,0.0,0.0,0.0,0.0,0.0,0.0,0.0,0.0,0.0,0.0,0.0,0.0,0.0,0.0,0.0,0.0,0.0,0.0,0.0,0.0,0.0,0.0,0.0,0.0,0.0,0.0,0.0,0.0,0.0,0.0,0.0,0.0,0.0,0.0,1.345,1.3858,0.0,0.0,0.0,1.3516,1.3089,0.0,0.0,0.0,0.0,0.0,0.0,0.0,0.0,0.0,0.0,0.0,0.0,0.0,0.0,0.0,0.0,0.0,0.0,0.0,0.0,0.0,0.0,0.0,0.0,0.0,0.0,0.0,0.0,0.0,0.0,0.0,0.0,0.0,0.0,0.0,0.0,0.0,0.0,0.0,0.0,0.0,0.0,0.0,0.0,0.0,0.0,0.0,0.0,0.0,0.0,0.0,0.0,0.0,0.0,0.0,0.0,0.0,1.9934,2.1593,2.2429,2.2334,2.2037,2.1432,2.0457,1.91,0.0,0.0,0.0,0.0,0.0,0.0,0.0,0.0,0.0,0.0,0.0,0.0,0.0,0.0,0.0,0.0,0.0,0.0,0.0,0.0,0.0,0.0,0.0,0.0,0.0,0.0,0.0,0.6756,0.0,0.0,0.0,0.0,0.0,0.0,0.0,0.0,0.0,0.0,0.0,0.0,0.0,0.0,1.453,1.4911,1.5336,1.5526,0.0,0.0,1.4883,1.4389,1.4189,1.398,0.0,0.0,0.0,0.0,0.0,0.0,0.0,0.0,0.0,0.0,0.0,0.0,0.0,0.0,0.0,0.0,0.0,0.0,0.0,0.0,0.0,0.0,0.0,0.0,0.0,0.0,0.0,0.0,0.0,0.0,0.0,0.0,0.0,0.0,0.0,0.0,0.0,0.0,0.0,0.0,0.0,0.0,0.0,0.0,0.0,0.0,0.0,0.0,0.0,0.0,0.0,0.0,0.0,0.0,2.0039,2.0232,2.1833,2.2672,2.2642,2.1806,2.12,2.0846,1.9026,1.758,0.0,0.0,0.0,0.0,0.0,0.0,0.0,0.0,0.0,0.0,0.0,0.0,0.0,0.0,0.0,0.0,0.0,0.0,0.0,0.0,0.0,0.0,0.0,0.0,0.0,0.0,0.0,0.0,0.0,0.0,0.0,0.0,0.0,0.0,0.0,0.0,0.0,0.0,0.0,0.0,0.0,1.5821,1.5982,1.6405,1.657,0.0,1.6093,1.5797,1.5196,1.499,1.4734,1.4219,0.0,0.0,0.0,0.0,0.0,0.0,0.0,0.0,0.0,0.0,0.0,0.0,0.0,0.0,0.0,0.0,0.0,0.0,0.0,0.0,0.0,0.0,0.0,0.0,0.0,0.0,0.0,0.0,0.0,0.0,0.0,0.0,0.0,0.0,0.0,0.0,0.0,0.0,0.0,0.0,0.0,0.0,0.0,0.0,0.0,0.0,0.0,0.0,0.0,0.0,0.0,0.0,0.0,2.0317,2.0518,2.2155,2.2768,2.2277,2.1831,2.1012,1.9752,1.8805,1.7706,0.0,0.0,0.0,0.0,0.0,0.0,0.0,0.0,0.0,0.0,0.0,0.0,0.0,0.0,0.0,0.0,0.0,0.0,0.0,0.0,0.0,0.0,0.0,0.0,0.0,0.0,0.0,0.0,0.9871,1.0658,1.2026,0.0,0.0,0.0,0.0,0.0,0.0,0.0,0.0,0.0,0.0,1.7081,1.7423,1.7543,0.0,0.0,1.6888,1.6436,1.5845,1.5652,1.542,1.5001,1.4913,0.0,0.0,0.0,0.0,0.0,0.0,0.0,0.0,0.0,0.0,0.0,0.0,0.0,0.0,0.0,0.0,0.0,0.0,0.0,0.0,0.0,0.0,0.0,0.0,0.0,0.0,0.0,0.0,0.0,0.0,0.0,0.0,0.0,0.0,0.0,0.0,0.0,0.0,0.0,0.0,0.0,0.0,0.0,0.0,0.0,0.0,0.0,0.0,0.0,0.0,0.0,0.0,2.072,2.1153,2.2559,2.2894,2.2071,2.1697,2.0761,1.9184,1.8562,1.7687,0.0,0.0,0.0,0.0,0.0,0.0,0.0,0.0,0.0,0.0,0.0,0.0,0.0,0.0,0.0,0.0,0.0,0.0,0.0,0.0,0.0,0.0,0.0,0.0,0.0,0.0,0.0,0.0,1.1265,1.2096,1.3367,0.0,0.0,0.0,0.0,0.0,0.0,0.0,0.0,0.0,0.0,1.832,1.8581,1.8747,1.8694,1.8389,1.8126,1.7746,1.7154,1.6853,1.657,1.6236,0.0,0.0,0.0,0.0,0.0,0.0,0.0,0.0,0.0,0.0,0.0,0.0,0.0,0.0,0.0,0.0,0.0,0.0,0.0,0.0,0.0,0.0,0.0,0.0,0.0,0.0,0.0,1.6298,0.0,0.0,1.7347,0.0,0.0,0.0,0.0,0.0,0.0,0.0,0.0,0.0,0.0,0.0,0.0,0.0,0.0,0.0,0.0,0.0,0.0,0.0,0.0,0.0,0.0,2.1267,2.2156,2.3021,2.309,2.2216,2.1372,2.044,1.9403,1.8302,1.7455,1.6872,0.0,0.0,0.0,0.0,0.0,0.0,0.0,0.0,0.0,0.0,0.0,0.0,0.0,0.0,0.0,0.0,0.0,0.0,0.0,0.0,0.0,0.0,0.0,0.0,0.0,0.0,1.1709,1.289,1.3773,0.0,0.0,0.0,0.0,0.0,0.0,0.0,0.0,0.0,1.8487,1.9142,1.9526,1.9433,1.9984,2.0303,1.9839,1.9963,1.9907,1.929,1.8783,1.833,0.0,0.0,0.0,0.0,0.0,0.0,0.0,0.0,0.0,0.0,0.0,0.0,0.0,0.0,0.0,0.0,0.0,0.0,0.0,0.0,0.0,0.0,0.0,0.0,0.0,0.0,0.0,1.7393,1.746,0.0,0.0,0.0,0.0,0.0,0.0,0.0,0.0,0.0,0.0,0.0,2.0361,2.0837,0.0,0.0,0.0,0.0,0.0,0.0,0.0,0.0,0.0,0.0,0.0,0.0,2.2039,2.2432,2.3257,2.3275,2.2418,2.1549,2.0597,1.9545,1.8467,1.7516,1.6641,0.0,0.0,0.0,0.0,0.0,0.0,0.0,0.0,0.0,0.0,0.0,0.0,0.0,0.0,0.0,0.0,0.0,0.0,0.0,0.0,0.0,0.0,0.0,0.0,0.0,1.2107,0.0,0.0,0.0,0.0,0.0,0.0,0.0,0.0,0.0,0.0,0.0,1.8817,1.9575,2.0496,2.1107,2.1069,2.1445,2.1658,0.0,0.0,0.0,0.0,0.0,0.0,0.0,0.0,0.0,0.0,0.0,0.0,0.0,0.0,1.7935,1.7842,1.8216,1.8703,1.9144,0.0,0.0,0.0,0.0,0.0,0.0,0.0,0.0,0.0,0.0,0.0,0.0,0.0,0.0,1.9087,1.9073,1.8839,0.0,0.0,0.0,0.0,0.0,0.0,0.0,0.0,2.1395,2.1712,2.1247,2.1736,2.1701,0.0,2.0997,2.0462,0.0,0.0,0.0,0.0,0.0,0.0,0.0,0.0,2.2664,2.2991,2.3601,2.3474,2.2592,2.197,2.1019,1.971,1.878,1.7993,1.7389,1.6506,1.5668,0.0,0.0,0.0,0.0,0.0,0.0,0.0,0.0,0.0,0.0,0.0,0.0,0.0,0.0,0.0,0.0,0.0,0.0,0.0,0.0,0.0,0.0,0.0,1.3543,0.0,0.0,0.0,0.0,0.0,0.0,0.0,0.0,0.0,1.8517,1.9127,1.985,2.0654,2.1632,2.2253,2.2216,0.0,0.0,0.0,0.0,0.0,0.0,0.0,2.0389,1.9977,1.9806,1.9622,1.9364,1.9127,1.9065,1.9406,0.0,0.0,1.9272,1.9631,2.0199,2.0722,2.1188,2.1633,2.2047,2.2265,2.2441,0.0,0.0,0.0,0.0,0.0,0.0,0.0,0.0,2.0725,2.1105,0.0,2.0315,0.0,0.0,0.0,0.0,1.8958,1.9718,0.0,0.0,2.208,2.243,2.2363,2.2345,2.2363,2.2327,2.1588,2.1231,2.1218,2.0283,0.0,0.0,0.0,0.0,0.0,0.0,2.3135,2.3862,2.4036,2.3651,2.2785,2.2584,2.1637,1.9914,1.9196,1.8904,1.8963,1.7821,1.6894,1.6231,1.4952,0.0,0.0,0.0,0.0,0.0,0.0,0.0,0.0,0.0,0.0,0.0,0.0,0.0,0.0,0.0,0.0,0.0,0.0,0.0,0.0,1.4541,0.0,0.0,0.0,0.0,0.0,0.0,0.0,0.0,0.0,0.0,1.9715,2.0388,2.1084,2.1762,0.0,0.0,0.0,0.0,2.4489,2.4014,2.4036,2.3884,2.3233,2.272,2.2304,2.1819,0.0,0.0,2.101,2.0669,2.0561,2.086,2.1152,2.1136,2.0199,2.0421,2.086,2.1331,2.1929,2.2303,2.2494,2.2951,2.3218,2.1777,0.0,0.0,0.0,0.0,1.9803,2.0192,2.0264,2.1134,2.1507,2.147,2.1234,0.0,0.0,0.0,0.0,0.0,0.0,2.1307,2.158,2.1762,2.1871,2.1899,2.1899,2.1899,2.1899,2.168,2.1562,2.158,2.1271,2.0898,2.0535,0.0,0.0,0.0,0.0,2.3877,2.4097,2.4163,2.4033,2.3764,2.3032,2.1937,2.0469,2.0032,1.9639,1.9348,1.8251,1.7363,1.6774,1.5545,0.0,0.0,0.0,0.0,0.0,0.0,0.0,0.0,0.0,0.0,0.0,0.0,0.0,0.0,0.0,0.0,0.0,0.0,0.0,1.4943,1.5385,1.569,0.0,0.0,0.0,0.0,0.0,0.0,0.0,0.0,0.0,2.1283,2.1402,2.1914,0.0,0.0,2.4425,2.4884,2.5448,2.5679,2.5368,2.4981,0.0,2.4031,2.3803,2.3598,2.3362,2.3207,2.2888,2.2166,2.1946,2.1797,2.1533,2.1815,2.2078,2.2092,2.2126,2.2454,2.2983,2.3404,2.3804,2.417,2.4448,2.4655,2.3134,2.2106,2.13,2.0684,2.0307,2.1156,2.1496,2.1542,2.2395,2.2745,2.2683,2.2371,2.2234,2.2215,2.1876,0.0,0.0,0.0,2.2077,2.1825,2.2113,2.191,2.1365,2.1328,2.1346,2.131,2.1015,2.1023,2.1353,2.1377,2.1268,2.1054,0.0,0.0,2.3474,2.4044,2.4302,2.4284,2.4303,2.4266,2.419,2.3141,2.2268,2.1669,2.1022,2.0598,2.0437,1.9123,1.8159,1.765,1.6443,1.5558,0.0,0.0,0.0,0.0,0.0,0.0,0.0,0.0,0.0,0.0,0.0,1.1968,1.2449,0.0,0.0,0.0,1.466,1.53,1.5842,1.6054,0.0,0.0,0.0,0.0,0.0,0.0,0.0,2.0034,2.1047,2.1924,2.2513,2.2717,2.3139,2.3944,2.4805,2.5506,2.5925,0.0,2.6472,2.6177,2.5688,2.5242,2.4987,2.4793,2.464,2.4569,2.4153,2.3704,2.3087,2.2775,2.2479,2.2308,2.2519,2.2889,2.3198,2.3395,2.3603,2.3956,2.4305,2.4694,2.5076,2.5328,2.5564,2.423,2.3528,2.2641,2.2193,2.2182,2.2912,2.3257,2.3383,2.4087,2.4442,2.4378,2.3638,2.3316,2.326,2.2475,0.0,2.2253,2.2916,2.2813,2.2128,2.2736,2.2245,2.0823,2.0749,2.073,2.0693,1.9968,1.9971,2.0706,2.0895,2.1365,2.2114,2.2868,2.3625,2.4365,2.4479,2.4479,2.4402,2.4474,2.4403,2.4162,2.3076,2.2705,2.3079,2.2068,2.1623,2.1859,2.0311,1.9194,1.8726,1.7577,1.6741,1.6348,0.0,0.0,0.0,0.0,0.0,0.0,0.0,0.0,0.0,0.0,0.0,0.0,0.0,0.0,0.0,1.6017,0.0,1.6377,1.6607,0.0,0.0,0.0,1.7684,1.8542,1.9002,1.9894,2.152,0.0,0.0,2.3391,2.4134,2.455,2.4458,2.5475,2.6248,2.6292,2.6711,2.691,2.6578,2.6218,2.5938,2.5789,2.5587,2.5408,2.541,2.4733,2.4148,2.3804,2.3306,2.291,2.2927,2.3233,2.356,2.3822,2.4205,2.4551,2.4436,2.4751,2.5132,2.5384,2.5701,2.6002,2.4812,2.463,2.4447,2.3546,2.2328,2.3149,2.3491,2.3532,2.4354,2.4676,2.4626,2.4425,2.4318,2.424,2.4054,2.3979,2.3958,2.354,2.3249,2.3014,2.1954,2.1238,2.0847,2.0257,1.9977,1.9946,1.9772,1.976,2.0009,2.1222,2.1968,2.2309,2.3633,2.4383,2.4539,2.4555,2.4574,2.4557,2.4507,2.4367,2.4046,2.3572,2.326,2.3175,2.2664,2.2333,2.2184,2.108,2.026,1.9819,1.8729,1.7869,1.7381,1.7069,0.0,0.0,0.0,0.0,0.0,0.0,0.0,0.0,0.0,1.4807,1.5221,0.0,1.5992,0.0,1.671,1.6879,1.6976,1.7141,0.0,0.0,1.7963,1.8538,1.8884,2.0031,2.103,2.1686,2.2403,2.3018,2.353,2.4695,2.5522,2.5598,2.6126,2.6683,2.717,2.7268,2.7196,2.691,2.6592,2.6247,2.5966,2.586,2.5864,2.5986,2.5712,2.5304,2.4574,2.4425,2.421,2.3752,2.3959,2.4221,2.4321,2.4781,2.5217,2.5356,2.5467,2.5591,2.5757,2.6096,2.6418,2.5044,2.505,2.5088,2.4493,2.3568,2.4021,2.4202,2.4205,2.465,2.4798,2.4753,2.4757,2.4726,2.4684,2.4692,2.4692,2.4654,2.423,2.3836,2.3449,2.2522,2.1929,2.1534,2.0715,2.032,2.0314,2.0326,2.0307,2.0375,2.1925,2.2748,2.2872,2.4114,2.4723,2.4687,2.4687,2.4671,2.465,2.4517,2.4321,2.4046,2.3746,2.3479,2.3199,2.2881,2.2592,2.2346,2.1373,2.065,2.0301,1.9494,1.8812,1.8348,1.8182,1.784,0.0,0.0,0.0,0.0,0.0,0.0,0.0,0.0,0.0,0.0,0.0,1.7143,1.7366,1.7393,1.7447,1.7502,1.7577,1.7745,1.8048,1.8589,1.9209,1.9954,2.0901,2.1756,2.2316,2.2937,2.3414,2.3668,2.4708,2.5569,2.5963,2.6445,2.6988,2.755,2.76,2.7463,2.7222,2.6922,2.6654,2.641,2.6507,2.6624,2.6627,2.6311,2.5848,2.5306,2.507,2.4808,2.4445,2.4652,2.4908,2.4922,2.5328,2.5756,2.592,2.6069,2.6192,2.6286,2.6553,2.6777,2.5121,2.5121,2.5121,2.5122,2.5125,2.5051,2.5018,2.5017,2.4945,2.4903,2.4816,2.4834,2.4801,2.4813,2.4813,2.4813,2.4813,2.4813,2.4424,2.3759,2.3646,2.3237,2.2533,2.1677,2.1262,2.1274,2.1274,2.1236,2.1229,2.2748,2.3496,2.3552,2.4365,2.4791,2.4772,2.4791,2.4753,2.4693,2.4472,2.4284,2.4084,2.3764,2.3479,2.3199,2.2881,2.2623,2.2402,2.153,2.0868,2.0548,2.0095,1.9687,1.9278,1.939,1.9108,0.0,1.8071,0.0,0.0,0.0,0.0,0.0,0.0,0.0,0.0,1.7924,1.8195,1.8101,1.8029,1.7983,1.7983,1.7983,1.8255,1.8893,1.9149,1.9852,2.1177,2.1713,2.2258,2.3091,2.3421,2.3674,2.3855,2.4537,2.5271,2.5986,2.6663,2.7246,2.7714,2.784,2.773,2.7463,2.717,2.6927,2.6914,2.7116,2.7179,2.6976,2.6485,2.6053,2.5896,2.5458,2.5131,2.5132,2.5314,2.5495,2.5508,2.5865,2.6245,2.6404,2.6671,2.6843,2.6858,2.6963,2.7144,2.5176,2.5176,2.5176,2.5171,2.5185,2.5174,2.513,2.5082,2.5057,2.5037,2.4964,2.4964,2.4903,2.4813,2.4813,2.4813,2.4813,2.4813,2.4718,2.4556,2.3903,2.3532,2.3332,2.2545,2.2155,2.2161,2.2142,2.2116,2.2082,2.3037,2.3496,2.3533,2.438,2.4772,2.4715,0.0,0.0,0.0,2.4384,2.4219,2.4034,2.3728,2.3481,2.3205,2.2881,0.0,2.2457,2.1984,2.158,2.1296,2.091,0.0,0.0,0.0,0.0,0.0,0.0,0.0,0.0,0.0,0.0,0.0,1.8852,1.8726,1.8369,1.8444,1.8514,1.8481,1.8425,1.84,1.838,1.838,1.8637,1.9257,1.9873,2.0628,2.1599,2.2271,2.2907,2.3428,2.3573,2.3739,2.4091,2.4741,2.5441,2.6167,2.6896,2.7524,2.803,2.7999,2.7865,2.7575,2.7258,2.698,2.6845,2.6709,2.6606,2.6313,2.6133,2.5952,2.5911,2.5855,2.5729,2.5729,2.5866,2.6015,2.6095,2.6433,2.6753,2.6985,2.7244,2.7372,2.7181,2.7335,2.7524,2.5313,2.5293,2.5313,2.5274,0.0,2.5253,2.5201,2.5155,2.515,2.512,2.505,2.505,2.4979,2.4886,2.4886,2.4879,2.4903,2.4903,2.4903,2.4884,2.4475,2.4286,2.4267,2.3423,2.3038,2.3044,2.2998,2.2972,2.2943,2.3733,2.4147,2.414,2.4591,2.4757,2.4681,2.4596,2.4513,2.4445,2.4321,2.4153,2.3907,2.3714,2.3447,2.3151,2.2868,0.0,0.0,0.0,0.0,0.0,0.0,0.0,0.0,2.0115,0.0,1.9563,1.9431,1.9317,1.9205,1.9186,1.9224,1.9246,1.9372,1.9321,1.9011,1.8955,1.8936,1.895,1.8855,1.8812,1.8793,1.9098,1.9532,2.0147,2.0875,2.1636,2.2345,2.2908,2.3334,2.3551,2.376,2.3982,2.4166,2.4489,2.5038,2.5764,2.6441,2.7111,2.7685,2.7963,2.7965,2.7675,2.7463,2.7248,2.7026,2.6832,2.6618,2.6541,2.6406,2.6312,2.6312,2.6312,2.6285,2.6312,2.6447,2.658,2.6645,2.6896,2.7155,2.7361,2.7625,2.7825,2.779,2.7865,2.794,2.5391,2.5391,2.5391,2.5364,2.5317,2.5337,2.5269,2.5217,2.5201,0.0,0.0,2.5089,2.507,2.5018,2.5018,2.5024,2.4991,2.4998,2.4991,2.4984,2.4984,2.4984,2.4965,2.4283,2.3922,2.3927,2.3855,2.3802,2.3752,2.4441,2.4791,2.4776,2.4768,2.4711,2.4629,2.4455,2.433,2.4303,2.421,2.4037,2.3785,2.3638,2.343,2.3095,2.2842,2.2649,2.2487,2.2101,2.1825,2.1694,2.1309,2.0925,2.0578,2.0289,2.0045,1.9833,1.9702,1.9593,1.9468,1.945,1.945,1.9468,1.9611,1.9611,1.9468,1.9395,1.9358,1.9354,1.9232,1.9157,1.9153,1.9759,2.0405,2.1006,2.1766,2.2482,2.3076,2.3458,2.3653,2.3739,2.4003,2.4208,2.4208,2.4271,2.4548,2.5219,2.5964,2.665,2.7403,2.7953,2.8088,2.78,2.769,2.7575,2.7321,2.7181,2.7093,2.6989,2.6881,2.6788,2.6788,2.6788,2.6788,2.6829,2.6989,2.7081,2.7144,2.7325,2.7554,2.77,2.791,2.8146,2.8381,2.8444,2.8405,2.5391,2.5391,2.5391,2.5382,2.5397,2.5398,2.5341,2.5282,2.5209,2.5147,2.5082,2.5075,2.5082,2.5095,2.5095,2.5057,2.4986,2.4986,2.4992,2.4984,2.4984,2.4984,2.4984,2.4871,2.4774,2.4747,2.4714,2.4679,2.4637,2.4674,2.4711,2.4698,2.4615,2.4469,2.4357,2.4257,2.4133,2.3968,2.3958,2.3884,2.3721,2.3515,2.3301,2.3015,2.2816,2.2605,2.2419,2.2089,2.1812,2.1635,2.1294,2.1006,2.0761,2.0475,2.0252,2.02,1.9937,1.9762,1.9744,1.969,1.969,1.9726,1.9866,1.9848,1.9672,1.9596,1.9556,1.9556,1.9431,1.9372,1.9402,1.9998,2.0676,2.1309,2.2026,2.2738,2.3455,2.3674,2.3861,2.4046,2.4145,2.4229,2.4276,2.4302,2.4533,2.521,2.5909,2.6818,2.7827,2.8222,2.8186,2.8113,2.8029,2.784,2.76,2.7524,2.7437,2.7207,2.7167,2.7141,2.7141,2.7155,2.7181,2.7284,2.735,2.7427,2.7615,2.769,2.789,2.8162,2.8323,2.8453,2.8756,2.8889,2.892,2.5464,2.5444,2.5444,2.5436,2.5385,2.5393,2.5366,2.5311,2.5266,2.5198,2.5147,2.5149,2.5125,2.5088,2.5082,2.5089,2.5057,2.5025,2.5005,2.4992,2.4991,2.4984,2.5003,2.4964,2.4924,2.491,2.4868,2.4809,2.4749,2.4711,2.4663,2.458,2.4462,2.4339,2.4238,2.4113,2.3966,2.3806,2.3827,2.3761,2.3607,2.343,2.3223,2.302,2.2777,2.2552,2.2405,2.2058,2.1825,2.1664,2.1372,2.1087,2.086,2.0678,2.0477,2.0304,2.0166,2.001,1.9919,1.9866,1.9884,1.9902,1.9955,1.9955,1.9884,1.9827,1.9812,1.9827,1.9774,1.9872,2.0232,2.088,2.1524,2.2199,2.29,2.3444,2.3743,2.394,2.4046,2.4187,2.4213,2.4276,2.44,2.44,2.4498,2.4957,2.5815,2.69,2.7813,2.8213,2.8356,2.822,2.8152,2.8029,2.7855,2.7815,2.7765,2.7655,2.763,2.7655,2.7615,2.7615,2.7655,2.7705,2.773,2.7806,2.7989,2.8088,2.8259,2.8462,2.8716,2.8865,2.9082,2.9296,2.9409,2.5507,2.5507,2.5507,2.548,2.5397,2.5402,2.538,2.5331,2.5292,2.5285,2.5228,2.5214,2.516,2.5131,2.5125,2.512,2.5108,2.5038,2.5025,2.4986,2.4998,2.4996,2.4971,2.4924,2.4884,2.4849,2.4802,2.4734,2.4668,2.4666,2.4593,2.4436,2.4303,2.42,2.4122,2.3945,2.3792,2.3667,2.3678,2.3598,2.3448,2.333,2.3156,2.2927,2.2712,2.2528,2.2349,2.2089,2.1855,2.1678,2.1433,2.1214,2.0958,2.0844,2.0662,2.039,2.0321,2.0235,2.0043,2.0043,2.0043,2.0025,2.0058,2.0076,2.0061,2.0061,2.0058,2.0021,2.0139,2.0461,2.0943,2.1751,2.2434,2.2985,2.3629,2.3994,2.4046,2.4172,2.4265,2.4271,2.4338,2.4421,2.4482,2.4518,2.4637,2.5025,2.5831,2.6691,2.7418,2.8078,2.8278,2.8374,2.8284,2.8186,2.8079,2.8054,2.8029,2.8005,2.7955,2.793,2.7955,2.8005,2.8054,2.8054,2.8103,2.8177,2.8308,2.8429,2.8573,2.8771,2.8982,2.9236,2.9441,2.97,2.9853,2.5507,2.5507,2.5507,2.5456,2.5397,2.5395,2.5393,2.5384,2.5312,2.5306,2.5276,2.5234,2.5206,2.5201,2.5172,2.5156,2.5101,2.5089,2.5063,2.4993,2.4998,2.4945,2.4924,2.4917,2.4834,2.4738,2.4715,2.4653,2.4528,2.4515,2.4402,2.4219,2.4103,2.3958,2.3837,2.3739,2.3656,2.3522,2.3407,2.3313,2.3241,2.3156,2.299,2.2725,2.2646,2.247,2.2251,2.2056,2.1869,2.1619,2.1464,2.1309,2.1103,2.0909,2.0712,2.051,2.0424,2.0304,2.0115,2.0202,2.0202,2.0115,2.0185,2.0252,2.0252,2.027,2.0198,2.0183,2.0585,2.0904,2.1068,2.2135,2.2915,2.3132,2.3763,2.4187,2.4208,2.4354,2.4457,2.4477,2.4503,2.4553,2.4605,2.4609,2.4859,2.5352,2.5701,2.6336,2.7353,2.7773,2.8124,2.8529,2.8541,2.8348,2.825,2.8186,2.8177,2.8054,2.8005,2.8069,2.8118,2.8177,2.821,2.8348,2.8453,2.8549,2.8668,2.8811,2.8897,2.9082,2.9312,2.956,2.9864,3.0146,3.021,2.5507,2.5507,2.5507,2.5456,2.5401,2.5393,2.5391,2.5394,2.537,2.5351,2.5307,2.5271,2.5225,2.5212,2.5203,2.518,2.5162,2.5107,2.5095,2.5057,2.4991,2.4931,2.4891,2.4813,2.4753,2.47,2.4637,2.4564,2.4498,2.4394,2.4247,2.4084,2.3937,2.3834,2.3747,2.3634,2.3499,2.3324,2.3229,2.3089,2.2914,2.2919,2.2838,2.2699,2.2528,2.2346,2.2206,2.2003,2.1796,2.162,2.1464,2.1325,2.1103,2.1022,2.0875,2.0644,2.0491,2.0339,2.0252,2.027,2.0272,2.0202,2.0287,2.0287,2.0287,2.0287,2.0408,2.0791,2.1044,2.1314,2.1773,2.2631,2.3355,2.3815,2.4215,2.4395,2.4421,2.4523,2.4564,2.4564,2.4605,2.463,2.4722,2.4786,2.4972,2.5318,2.5565,2.6214,2.708,2.7581,2.8099,2.8607,2.87,2.8612,2.8565,2.8541,2.8532,2.8484,2.8484,2.8484,2.8468,2.8493,2.8565,2.8612,2.8716,2.8818,2.8928,2.9144,2.9312,2.9493,2.9804,3.0103,3.0258,3.0443,3.0526,2.5507,2.5507,2.5507,2.548,2.5429,2.5406,2.54,2.5388,2.5398,2.5356,2.5303,2.5302,2.5266,2.5204,2.5214,2.5197,2.5205,2.5139,2.5082,2.507,2.4959,2.4903,2.4863,2.4761,2.4684,2.4645,2.4537,2.4462,2.4403,2.419,2.4044,2.3927,2.3792,2.3703,2.3634,2.3476,2.3324,2.318,2.3052,2.2893,2.2708,2.2672,2.2632,2.2565,2.2422,2.2237,2.2135,2.1932,2.1738,2.1604,2.1448,2.1309,2.1119,2.1087,2.0973,2.071,2.0508,2.0388,2.0321,2.0304,2.0287,2.0287,2.0287,2.0304,2.0321,2.0321,2.0682,2.1341,2.1569,2.1932,2.2581,2.3262,2.39,2.4441,2.4523,2.4544,2.4589,2.4609,2.465,2.4666,2.469,2.4731,2.4826,2.4942,2.5017,2.5061,2.5424,2.5956,2.6582,2.7237,2.7868,2.8505,2.8717,2.885,2.8818,2.8771,2.881,2.881,2.8747,2.8771,2.8826,2.885,2.892,2.8928,2.9006,2.9106,2.9259,2.9486,2.9716,2.9962,3.0258,3.0506,3.0609,3.0753,3.0895,2.5507,2.5507,2.5507,2.5488,2.5488,2.5429,2.5389,2.5387,2.5388,2.5361,2.5308,2.5297,2.5252,2.5206,2.5204,2.5214,2.518,2.5133,2.5076,2.5082,2.4977,2.4851,2.4794,2.4738,2.4626,2.4528,2.449,2.4367,2.419,2.3966,2.3816,2.3813,2.3616,2.351,2.3464,2.3265,2.3119,2.3052,2.2868,2.2712,2.2659,2.2446,2.2352,2.2307,2.231,2.2163,2.1943,2.184,2.1738,2.1604,2.1464,2.1309,2.1119,2.1087,2.0957,2.0726,2.0525,2.0405,2.0388,2.0339,2.0304,2.0304,2.0304,2.0321,2.0404,2.0467,2.086,2.1559,2.2215,2.2802,2.3472,2.4024,2.4444,2.4574,2.4589,2.4609,2.4625,2.4746,2.4782,2.4806,2.4886,2.4946,2.5001,2.4985,2.5005,2.5005,2.5069,2.5365,2.6072,2.673,2.744,2.8142,2.8649,2.9037,2.8865,2.8889,2.8865,2.8889,2.892,2.8873,2.8928,2.9006,2.9121,2.9236,2.9366,2.948,2.9637,2.982,3.0049,3.0284,3.0531,3.0753,3.0915,3.1072,3.121,2.5507,2.5507,2.5507,2.5507,2.5507,2.5464,2.544,2.5391,2.5402,2.5374,2.5308,2.5298,2.5253,2.5206,2.5201,2.5157,2.5144,2.5101,2.5082,2.5011,2.4884,2.4787,2.4738,2.4645,2.4555,2.4498,2.4376,2.4181,2.3947,2.3845,2.3739,2.3616,2.3551,2.3436,2.3265,2.3156,2.3033,2.2855,2.2738,2.2619,2.2477,2.2335,2.2223,2.2046,2.2046,2.1974,2.1823,2.1723,2.1619,2.1464,2.134,2.1215,2.1103,2.0989,2.0843,2.0694,2.0643,2.0543,2.0475,2.0441,2.0426,2.0441,2.0426,2.0457,2.0536,2.0897,2.1512,2.2274,2.2964,2.3657,2.4292,2.4585,2.4645,2.4722,2.4742,2.4746,2.4826,2.4886,2.4926,2.4926,2.4966,2.4985,2.5005,2.5005,2.5005,2.5005,2.5005,2.5342,2.6032,2.6714,2.7418,2.8166,2.8866,2.9337,2.9284,2.916,2.9137,2.916,2.9183,2.9229,2.9298,2.9321,2.9412,2.9554,2.9681,2.982,2.9973,3.0253,3.0468,3.0658,3.0915,3.1038,3.1176,3.1329,3.1464,2.5507,2.5507,2.5507,2.5507,2.5507,2.5507,2.5448,2.5391,2.5391,2.536,2.5317,2.5308,2.5259,2.5217,2.5212,2.5176,2.5095,2.5089,2.5063,2.4977,2.4842,2.4749,2.4692,2.4564,2.4471,2.4421,2.419,2.3958,2.3824,2.3739,2.3627,2.3499,2.3436,2.3277,2.3119,2.3028,2.2893,2.2725,2.2659,2.2511,2.2324,2.222,2.2104,2.1928,2.1855,2.1811,2.1751,2.1617,2.1495,2.1402,2.1278,2.1151,2.1054,2.0892,2.0761,2.0744,2.071,2.0676,2.0594,2.0527,2.051,2.051,2.0526,2.0573,2.0856,2.1342,2.2086,2.2959,2.3529,2.415,2.4756,2.4831,2.4766,2.4862,2.4862,2.4902,2.5001,2.4985,2.5005,2.5045,2.5084,2.5103,2.5103,2.5103,2.5103,2.51,2.5084,2.5377,2.5847,2.6712,2.7397,2.8041,2.8888,2.9368,2.9502,2.9464,2.9341,2.9341,2.9361,2.9461,2.9502,2.9556,2.9591,2.9793,2.9984,3.0135,3.0347,3.0617,3.0841,3.1024,3.1196,3.1332,3.1466,3.1579,3.1728,2.5507,2.5507,2.5507,2.5507,2.5507,2.5507,2.5468,2.5415,2.5391,2.536,2.5288,2.5308,2.5259,2.5217,2.5201,2.5164,2.5101,2.5095,2.5056,2.4964,2.4858,2.4757,2.4676,2.4549,2.4384,2.4266,2.3959,2.3816,2.3782,2.3605,2.3517,2.3448,2.3241,2.3114,2.3107,2.2919,2.276,2.2672,2.2565,2.2415,2.2279,2.2101,2.1984,2.1884,2.1783,2.1709,2.1678,2.1494,2.1418,2.1386,2.1262,2.1119,2.0942,2.0828,2.081,2.0872,2.079,2.0741,2.0803,2.0766,2.0778,2.0778,2.0652,2.1047,2.16,2.1853,2.2438,2.3487,2.3916,2.427,2.4843,2.497,2.4985,2.5005,2.4985,2.5005,2.5005,2.5005,2.5009,2.5107,2.5201,2.5294,2.5294,2.5275,2.5256,2.5256,2.5256,2.5291,2.5534,2.6462,2.7246,2.7699,2.8554,2.9359,2.9565,2.97,2.9579,2.9502,2.9488,2.9544,2.9491,2.9486,2.9419,2.955,2.9687,2.9847,2.9999,3.0306,3.0734,3.0957,3.1263,3.1514,3.1747,3.1875,3.2002,2.5507,2.5507,2.5507,2.5507,2.5507,2.5507,2.5468,2.5391,2.5391,2.536,2.5308,2.5307,2.5262,2.5206,2.5212,2.5168,2.5101,2.5056,2.4971,2.4856,2.4761,2.4676,2.4572,2.4472,2.4303,2.4066,2.3896,2.3728,2.3623,2.3533,2.3448,2.3289,2.3168,2.304,2.3005,2.2799,2.2672,2.2552,2.2474,2.2318,2.2115,2.2044,2.1943,2.1768,2.1679,2.1588,2.1494,2.1433,2.1371,2.134,2.1199,2.1038,2.0892,2.0811,2.1031,2.1489,2.1536,2.1755,2.2149,2.2163,2.2081,2.2112,2.2112,2.224,2.2542,2.2936,2.3346,2.3935,2.4334,2.4799,2.5001,2.5068,2.5088,2.5068,2.5068,2.5123,2.5178,2.5182,2.5217,2.522,2.5275,2.5294,2.5314,2.5298,2.5314,2.5314,2.5314,2.5333,2.5519,2.6237,2.7126,2.7705,2.8589,2.9183,2.9225,2.9261,2.9195,2.917,2.9223,2.9267,2.9291,2.9284,2.9226,2.9307,2.9432,2.9592,2.9749,2.9985,3.0371,3.0706,3.0884,3.1321,3.1915,3.2109,3.2126,2.5507,2.5507,2.5507,2.5488,2.546,2.546,2.5436,2.5402,2.5397,2.537,2.5308,2.5297,2.5257,2.5206,2.5214,2.515,2.5101,2.5004,2.4896,2.4791,2.4723,2.4621,2.4488,2.4358,2.4143,2.3896,2.3803,2.3682,2.3517,2.3448,2.3348,2.3217,2.3077,2.317,2.3293,2.3179,2.3131,2.3249,2.3295,2.3117,2.2895,2.2819,2.2613,2.2232,2.2076,2.1835,2.1529,2.1646,2.1632,2.1407,2.1424,2.1438,2.1272,2.1493,2.1808,2.2139,2.2297,2.2471,2.2851,2.2801,2.2898,2.2898,2.2898,2.3006,2.3259,2.3714,2.397,2.4372,2.4759,2.5068,2.5146,2.5166,2.5185,2.5188,2.5185,2.522,2.5294,2.5317,2.5336,2.5336,2.5375,2.5391,2.541,2.541,2.541,2.541,2.5432,2.547,2.5659,2.6186,2.6919,2.7568,2.8163,2.8567,2.8763,2.8797,2.8781,2.8778,2.8774,2.8834,2.8887,2.8893,2.8862,2.907,2.924,2.9422,2.9586,2.959,2.9851,3.0128,3.0473,3.094,3.1425,3.1841,3.2009,2.5488,2.5488,2.5488,2.5476,2.5417,2.5401,2.5395,2.5384,2.5398,2.5361,2.5322,2.5273,2.5252,2.5201,2.5203,2.5138,2.5095,2.4952,2.4861,2.478,2.4714,2.459,2.4437,2.4228,2.4024,2.3824,2.3747,2.3623,2.3482,2.3389,2.3283,2.318,2.313,2.3324,2.3836,2.3888,2.4096,2.4425,2.455,2.4367,2.409,2.4092,2.3746,2.299,2.2831,2.2505,2.2081,2.2281,2.2151,2.1649,2.2069,2.2241,2.22,2.2692,2.2861,2.2948,2.2961,2.3059,2.3056,2.3246,2.3214,2.3246,2.3262,2.3262,2.391,2.4084,2.4376,2.4916,2.5095,2.5182,2.5259,2.5314,2.5336,2.5394,2.5371,2.5333,2.5333,2.5375,2.5397,2.5432,2.5524,2.5597,2.5597,2.56,2.56,2.5619,2.5659,2.568,2.5817,2.6229,2.673,2.7298,2.7852,2.8067,2.8293,2.8391,2.8319,2.8059,2.8142,2.8291,2.8388,2.8382,2.8361,2.8609,2.8903,2.9128,2.9179,2.9072,2.9291,2.9701,3.0058,3.0467,3.0896,3.1342,3.168,2.546,2.5429,2.5429,2.5417,2.54,2.54,2.5382,2.5398,2.5394,2.5346,2.5302,2.5252,2.5231,2.5198,2.515,2.5114,2.5076,2.4917,2.4791,2.4734,2.4655,2.4488,2.4294,2.4114,2.3935,2.3789,2.3732,2.3596,2.3372,2.3324,2.3259,2.3137,2.3571,2.3876,2.4097,2.4482,2.4616,2.4684,2.4675,2.4586,2.4434,2.4325,2.4062,2.3768,2.3621,2.3457,2.3211,2.3275,2.314,2.2843,2.2922,2.2999,2.2927,2.3133,2.3415,2.3737,2.3814,2.4001,2.4325,2.4404,2.44,2.4448,2.4325,2.4566,2.4735,2.4782,2.4952,2.522,2.524,2.5278,2.5339,2.5378,2.5432,2.5524,2.554,2.5505,2.5505,2.5524,2.5543,2.5559,2.5597,2.5619,2.5677,2.568,2.5715,2.577,2.5826,2.5862,2.5946,2.614,2.6592,2.7079,2.7535,2.7681,2.7824,2.7915,2.7804,2.7385,2.7436,2.7709,2.7759,2.7759,2.7707,2.7749,2.8125,2.8392,2.826,2.8106,2.8614,2.9233,2.9445,2.9748,3.0398,3.0892,3.1063,2.5421,2.5389,2.5389,2.5395,2.5397,2.5393,2.5384,2.5356,2.5366,2.5327,2.5287,2.5212,2.5204,2.5201,2.5132,2.5082,2.5057,2.4884,2.4757,2.4684,2.4539,2.4375,2.4219,2.4074,2.3915,2.3765,2.3711,2.3555,2.3348,2.3283,2.3405,2.3659,2.3964,2.4421,2.5098,2.5268,2.5551,2.5701,2.5644,2.5534,2.5374,2.5261,2.4929,2.4647,2.4431,2.4364,2.4228,2.4159,2.3908,2.3558,2.3619,2.3777,2.3737,2.4007,2.4257,2.4611,2.4627,2.4799,2.5031,2.5123,2.5139,2.5123,2.5139,2.5158,2.5166,2.5201,2.524,2.5317,2.5336,2.5375,2.547,2.5511,2.5567,2.564,2.5694,2.5694,2.564,2.5624,2.5675,2.5694,2.5731,2.5731,2.5791,2.5791,2.5809,2.5899,2.5989,2.6023,2.6076,2.6236,2.6445,2.6915,2.7155,2.7279,2.7418,2.7521,2.7657,2.7245,2.7305,2.7474,2.7491,2.7492,2.7518,2.7552,2.7589,2.7659,2.7763,2.7868,2.8216,2.8674,2.8795,2.9211,2.9875,3.0314,3.0478,2.5391,2.5387,2.5387,2.5393,2.5394,2.5389,2.5356,2.5308,2.5307,2.5292,2.5276,2.5215,2.5187,2.5176,2.512,2.5082,2.5063,2.4884,2.4749,2.4618,2.4444,2.4257,2.4218,2.4074,2.3904,2.3736,2.3711,2.3573,2.3437,2.3395,2.3747,2.4193,2.4379,2.5121,2.5909,2.6256,2.6621,2.6827,2.6782,2.6619,2.6487,2.6354,2.5984,2.5464,2.5312,2.5176,2.5037,2.4917,2.4634,2.3823,2.4325,2.458,2.4634,2.5129,2.5297,2.5237,2.5202,2.5234,2.5278,2.5275,2.5294,2.5275,2.5275,2.5314,2.5314,2.5298,2.5336,2.5432,2.5416,2.5508,2.5619,2.5696,2.5717,2.5735,2.5842,2.5826,2.5756,2.5719,2.5772,2.5881,2.5881,2.5915,2.5915,2.5915,2.5934,2.6045,2.6151,2.6239,2.6292,2.6415,2.6537,2.6724,2.686,2.6877,2.6993,2.7125,2.7288,2.7294,2.7483,2.7611,2.7629,2.7644,2.7639,2.7677,2.781,2.7911,2.8011,2.813,2.8259,2.8376,2.8672,2.9057,2.9463,2.9673,2.9859,2.5402,2.5384,2.5384,2.5384,2.5337,2.5337,2.5313,2.5303,2.5302,2.5257,2.5236,2.5204,2.5159,2.5106,2.5107,2.507,2.5012,2.487,2.4746,2.4588,2.4401,2.4275,2.4191,2.4075,2.3935,2.3792,2.3714,2.3629,2.3589,2.3963,2.4284,2.4509,2.5441,2.6149,2.6452,2.6894,2.7136,2.7198,2.7136,2.7006,2.6875,2.6742,2.6539,2.6219,2.6184,2.6061,2.5954,2.59,2.5729,2.5504,2.5468,2.5481,2.5419,2.5547,2.5551,2.5435,2.5394,2.5355,2.5333,2.5314,2.5314,2.5314,2.5333,2.5333,2.5359,2.5378,2.5432,2.5543,2.5621,2.568,2.5789,2.5826,2.5828,2.5862,2.5897,2.5917,2.5919,2.5883,2.5881,2.5915,2.5934,2.5917,2.599,2.6097,2.6151,2.6206,2.6312,2.645,2.652,2.6606,2.6708,2.6809,2.6925,2.7022,2.7133,2.7277,2.74,2.7522,2.7689,2.7836,2.7836,2.785,2.7879,2.7954,2.8056,2.8168,2.8246,2.8353,2.8463,2.8541,2.8612,2.8912,2.9174,2.9247,2.9392,2.5365,2.5356,2.5351,2.5327,2.5308,2.5308,2.5298,2.5307,2.5262,2.5236,2.5215,2.5206,2.516,2.5107,2.5095,2.5063,2.4992,2.4856,2.4723,2.4599,2.4455,2.4358,2.4247,2.4152,2.4006,2.3816,2.3736,2.3784,2.4105,2.4432,2.4896,2.5504,2.63,2.6704,2.7014,2.735,2.7398,2.734,2.7214,2.7103,2.7022,2.6908,2.6758,2.6657,2.6589,2.6468,2.6346,2.6311,2.6274,2.6205,2.6152,2.6045,2.5828,2.5807,2.5717,2.5642,2.5567,2.553,2.5508,2.5451,2.5448,2.5429,2.5429,2.547,2.553,2.5532,2.5621,2.5712,2.577,2.5828,2.5899,2.5952,2.5936,2.5954,2.6023,2.6078,2.6099,2.6045,2.5989,2.6025,2.6097,2.61,2.6154,2.6258,2.6363,2.6434,2.6487,2.6623,2.6759,2.6842,2.6941,2.7055,2.7151,2.7261,2.7386,2.7524,2.7674,2.7806,2.794,2.8063,2.8146,2.816,2.8156,2.8228,2.8286,2.8393,2.8466,2.8587,2.8675,2.8731,2.8815,2.891,2.9046,2.9244,2.9352,2.5308,2.5308,2.5308,2.5308,2.5308,2.5308,2.5293,2.5287,2.5222,2.5201,2.5212,2.5208,2.5149,2.5107,2.5095,2.5057,2.4959,2.4861,2.4718,2.4599,2.4507,2.4402,2.4303,2.42,2.4212,2.4011,2.4039,2.4278,2.4622,2.4979,2.5717,2.6632,2.6918,2.7219,2.7625,2.7642,2.7569,2.7509,2.7355,2.7261,2.7198,2.7087,2.6941,2.6792,2.6708,2.664,2.6589,2.6554,2.652,2.652,2.6502,2.6293,2.6097,2.5952,2.5915,2.5899,2.5772,2.5717,2.5698,2.5659,2.5654,2.5637,2.5654,2.5659,2.5717,2.5735,2.5772,2.5844,2.5881,2.5936,2.5954,2.6026,2.6081,2.6148,2.627,2.6424,2.6477,2.6403,2.6601,2.6239,2.6276,2.6294,2.6348,2.6434,2.6537,2.6657,2.6742,2.6842,2.6975,2.7089,2.7202,2.7261,2.7386,2.7539,2.7659,2.7763,2.7908,2.8035,2.8182,2.8286,2.8406,2.8427,2.844,2.844,2.8492,2.8594,2.8682,2.8785,2.887,2.8934,2.9003,2.9112,2.9189,2.9283,2.9349,2.5308,2.5308,2.5308,2.5308,2.5308,2.5308,2.5293,2.5287,2.5222,2.5215,2.5212,2.5203,2.5149,2.5107,2.5089,2.4992,2.487,2.4809,2.4726,2.4634,2.4598,2.454,2.445,2.4541,2.4619,2.4894,2.4958,2.5025,2.5337,2.6031,2.6586,2.705,2.7475,2.7848,2.784,2.7774,2.7686,2.7674,2.7524,2.7417,2.7355,2.7246,2.7103,2.6974,2.6942,2.6876,2.6809,2.6725,2.6624,2.6572,2.6537,2.6468,2.638,2.6239,2.6114,2.5989,2.5899,2.5881,2.5862,2.5844,2.5842,2.586,2.5842,2.5842,2.5862,2.5881,2.5917,2.5936,2.599,2.6046,2.6207,2.6308,2.6328,2.6515,2.6968,2.7354,2.7473,2.7672,2.7621,2.6987,2.6737,2.6687,2.6942,2.713,2.7284,2.7454,2.7537,2.7465,2.7425,2.7467,2.7508,2.7546,2.76,2.7777,2.7968,2.8053,2.8164,2.8242,2.8367,2.8471,2.8587,2.8675,2.8712,2.8737,2.8731,2.8767,2.8881,2.8975,2.9055,2.9115,2.92,2.9275,2.9359,2.9441,2.9521,2.5308,2.5308,2.5308,2.5308,2.5308,2.5308,2.5288,2.5252,2.5217,2.5209,2.5201,2.5197,2.5168,2.5107,2.5095,2.4979,2.4842,2.4817,2.4734,2.4661,2.4949,2.5104,2.506,2.5252,2.5635,2.6012,2.6206,2.6272,2.6284,2.6758,2.7328,2.7736,2.8039,2.8099,2.8071,2.7954,2.7864,2.7821,2.7704,2.7585,2.7522,2.7432,2.731,2.7231,2.7136,2.7071,2.699,2.6908,2.6842,2.6809,2.6792,2.6708,2.6606,2.6503,2.6399,2.624,2.6115,2.6059,2.6025,2.597,2.5915,2.5915,2.5915,2.597,2.6007,2.6061,2.6097,2.6187,2.6222,2.6277,2.6415,2.6734,2.6986,2.7173,2.7764,2.8205,2.841,2.8716,2.8448,2.7993,2.806,2.8094,2.8046,2.8168,2.8186,2.8253,2.8319,2.8209,2.8026,2.7979,2.8017,2.7786,2.7832,2.8007,2.8191,2.8273,2.8367,2.8458,2.8562,2.8662,2.8785,2.8863,2.8975,2.9051,2.9033,2.901,2.906,2.916,2.9225,2.9299,2.939,2.9461,2.9531,2.9608,2.9682,2.5308,2.5308,2.5308,2.5308,2.5308,2.5308,2.5264,2.5222,2.5241,2.5215,2.5203,2.5197,2.518,2.5138,2.5089,2.4979,2.4839,2.4945,2.505,2.5109,2.5692,2.5967,2.6051,2.6364,2.6682,2.6901,2.7229,2.7636,2.732,2.7512,2.7882,2.8154,2.8268,2.8237,2.8209,2.8122,2.8085,2.7982,2.7896,2.7774,2.7701,2.7615,2.7511,2.7417,2.7341,2.7246,2.7198,2.712,2.7055,2.7023,2.699,2.6925,2.6792,2.6758,2.6708,2.6606,2.6398,2.6274,2.6221,2.6151,2.6097,2.6097,2.6043,2.6115,2.6203,2.6274,2.631,2.645,2.6502,2.6654,2.6907,2.7328,2.7717,2.8123,2.8633,2.9178,2.9319,2.9597,2.9926,2.9686,2.9616,2.9362,2.9126,2.8956,2.8938,2.9072,2.9136,2.9215,2.9012,2.8752,2.8644,2.8177,2.8091,2.8246,2.838,2.8453,2.8543,2.8644,2.8731,2.8846,2.8964,2.906,2.9167,2.9243,2.9294,2.9275,2.9328,2.9341,2.9421,2.9481,2.956,2.9626,2.9701,2.9736,2.9798,2.5308,2.5308,2.5308,2.5308,2.5308,2.5308,2.5307,2.5287,2.5287,2.5236,2.5206,2.5206,2.5189,2.5187,2.5184,2.5017,2.5102,2.5605,2.5828,2.582,2.6514,2.6842,2.6691,2.6699,2.7331,2.7682,2.7838,2.7691,2.7795,2.8173,2.8393,2.8549,2.8476,2.8384,2.8353,2.8286,2.8232,2.815,2.8099,2.7968,2.7836,2.7748,2.7659,2.7602,2.7511,2.7465,2.7417,2.7357,2.7294,2.7182,2.7135,2.7071,2.6974,2.6958,2.6958,2.6859,2.6691,2.645,2.645,2.6398,2.6346,2.6363,2.638,2.6433,2.6468,2.6485,2.6502,2.6468,2.6605,2.6978,2.7486,2.7911,2.8354,2.9002,2.9702,3.0097,3.0305,3.0533,3.0847,3.104,3.0885,3.0334,2.992,2.9799,2.9692,2.9825,2.9973,3.0052,2.988,2.9543,2.8984,2.8469,2.8282,2.8432,2.8562,2.8632,2.8743,2.8827,2.8934,2.9014,2.9134,2.9225,2.931,2.9372,2.9431,2.9471,2.9463,2.9502,2.9588,2.9655,2.9701,2.9773,2.9842,2.9883,2.9905,2.5322,2.5308,2.5308,2.5308,2.5308,2.5308,2.5293,2.5292,2.5311,2.5261,2.5217,2.5212,2.5197,2.5246,2.5526,2.5699,2.5755,2.6412,2.6699,2.6743,2.7326,2.7718,2.7752,2.8017,2.8482,2.8468,2.8629,2.8651,2.859,2.8566,2.873,2.8687,2.8643,2.8549,2.851,2.8458,2.838,2.83,2.8191,2.8081,2.7996,2.7925,2.7868,2.781,2.7689,2.763,2.76,2.7511,2.745,2.7371,2.734,2.7246,2.7168,2.712,2.7087,2.6975,2.6859,2.6725,2.6607,2.6572,2.6555,2.6537,2.6571,2.6589,2.6691,2.6793,2.6809,2.6775,2.7216,2.7657,2.8219,2.8867,2.9433,3.0052,3.0674,3.0952,3.123,3.1545,3.1791,3.1967,3.2056,3.1429,3.101,3.1044,3.1024,3.1126,3.1222,3.1229,3.0749,3.0029,2.9353,2.8589,2.851,2.8587,2.8724,2.8815,2.8922,2.9026,2.9101,2.9195,2.9289,2.939,2.9443,2.9512,2.9579,2.9608,2.9608,2.9617,2.9682,2.9745,2.9806,2.9874,2.994,3.0003,3.0064,2.5361,2.5317,2.5308,2.5308,2.5308,2.5308,2.5298,2.5302,2.5297,2.5276,2.5297,2.5428,2.5518,2.5609,2.6211,2.656,2.6469,2.7261,2.7462,2.7724,2.8129,2.8501,2.8619,2.9031,2.9212,2.9302,2.9129,2.9097,2.9049,2.9021,2.8893,2.8834,2.8749,2.87,2.865,2.8612,2.8549,2.8445,2.8327,2.8246,2.8182,2.8112,2.8071,2.8014,2.7911,2.7789,2.776,2.7704,2.7647,2.7539,2.7539,2.7448,2.7324,2.7277,2.7263,2.7184,2.7137,2.7055,2.6925,2.6826,2.6725,2.6691,2.6708,2.6775,2.6893,2.706,2.7331,2.7383,2.8049,2.8459,2.8939,2.99,3.0419,3.0921,3.144,3.1738,3.1984,3.209,3.2179,3.2249,3.2336,3.2439,3.2191,3.2348,3.2435,3.247,3.2464,3.2378,3.1625,3.0689,2.9949,2.9194,2.8833,2.884,2.8893,2.901,2.9112,2.9211,2.928,2.9373,2.9471,2.9521,2.9589,2.9645,2.9701,2.9746,2.9744,2.9761,2.976,2.9822,2.9899,2.9972,3.0042,3.0109,3.0194,2.5394,2.5394,2.5322,2.5308,2.5308,2.5308,2.5303,2.5303,2.5303,2.5346,2.5501,2.5989,2.6243,2.6472,2.7029,2.7395,2.7269,2.8129,2.8327,2.8576,2.8979,2.9211,2.9273,2.9297,2.9347,2.9304,2.9294,2.9262,2.92,2.9178,2.9085,2.8994,2.8893,2.8822,2.8773,2.8761,2.8687,2.86,2.8497,2.8432,2.8367,2.83,2.8246,2.8182,2.8112,2.8039,2.8,2.794,2.7836,2.7719,2.7704,2.7612,2.7494,2.7463,2.745,2.7388,2.7373,2.7308,2.723,2.7105,2.7008,2.6975,2.6992,2.7058,2.7279,2.7724,2.7997,2.8269,2.8972,2.9679,3.0214,3.0838,3.1254,3.162,3.1934,3.2039,3.2232,3.2336,3.2405,3.2473,3.2557,3.2691,3.2773,3.2805,3.2755,3.2756,3.2832,3.2739,3.219,3.1351,3.068,2.9977,2.9362,2.9152,2.9104,2.9186,2.9265,2.9349,2.9423,2.954,2.9636,2.9683,2.9729,2.9764,2.9806,2.9857,2.9907,2.9905,2.9921,2.9921,2.9969,3.0072,3.0166,3.0247,3.0355,2.5391,2.5397,2.537,2.5346,2.5308,2.5308,2.5308,2.5308,2.5308,2.5639,2.6093,2.6403,2.6746,2.7268,2.7925,2.8271,2.8277,2.8957,2.9152,2.9269,2.9458,2.955,2.9501,2.9441,2.938,2.9359,2.9368,2.9365,2.9344,2.9294,2.9251,2.9145,2.9078,2.9021,2.8987,2.8887,2.8822,2.8737,2.8662,2.86,2.8523,2.8458,2.8393,2.8331,2.8264,2.8196,2.8126,2.8085,2.7982,2.7925,2.7896,2.7777,2.7674,2.7644,2.76,2.7524,2.7526,2.7511,2.7481,2.7341,2.7264,2.7264,2.7313,2.7484,2.7832,2.8348,2.8761,2.9226,2.9918,3.0646,3.0871,3.1394,3.19,3.2214,3.2371,3.2387,3.2456,3.2558,3.2641,3.2706,3.2804,3.2918,3.2997,3.3075,3.3011,3.2979,3.3065,3.3021,3.2534,3.2019,3.1336,3.0632,2.9993,2.9426,2.9336,2.9365,2.9411,2.9481,2.956,2.9645,2.9756,2.9809,2.9853,2.9885,2.9916,2.9956,3.0022,3.0068,3.0083,3.0057,3.0101,3.0192,3.0292,3.041,3.0483,2.5393,2.5395,2.5397,2.537,2.5322,2.5308,2.5308,2.5308,2.5308,2.5793,2.6636,2.6983,2.7535,2.8179,2.8829,2.9122,2.9169,2.9519,2.9667,2.969,2.9617,2.9626,2.9578,2.9501,2.9433,2.9441,2.9431,2.9429,2.9429,2.937,2.9349,2.9339,2.9307,2.9232,2.9112,2.9026,2.8964,2.8912,2.884,2.8761,2.8687,2.8607,2.8518,2.8471,2.8437,2.834,2.8291,2.8223,2.8136,2.8081,2.8025,2.7968,2.7864,2.7792,2.7733,2.7659,2.7647,2.763,2.7617,2.7511,2.745,2.7404,2.7799,2.8141,2.8591,2.9094,2.9826,3.0172,3.0886,3.1409,3.1529,3.2019,3.2247,3.2473,3.2574,3.259,3.2673,3.2773,3.287,3.2932,3.3028,3.3122,3.3214,3.3289,3.3286,3.3271,3.3339,3.3346,3.3131,3.2577,3.1947,3.1237,3.0567,3.002,2.9549,2.9593,2.9606,2.9598,2.9692,2.9755,2.9834,2.9942,3.0,3.0002,3.0022,3.0087,3.0113,3.0157,3.0171,3.0197,3.0259,3.0324,3.0421,3.0504,3.054,2.5479,2.5397,2.5473,2.5513,2.5548,2.5341,2.5308,2.5337,2.5409,2.5951,2.6968,2.8132,2.8798,2.9052,2.9632,2.976,2.9731,2.9807,2.9823,2.9717,2.9682,2.9655,2.9607,2.954,2.9492,2.9511,2.9491,2.9481,2.9482,2.9471,2.9481,2.9481,2.9441,2.9361,2.9229,2.9189,2.9156,2.9108,2.9028,2.8952,2.8881,2.8791,2.8694,2.8637,2.8605,2.8523,2.8432,2.838,2.8313,2.825,2.8209,2.8122,2.8025,2.7982,2.7954,2.794,2.794,2.7957,2.7993,2.7712,2.7677,2.7766,2.8248,2.8739,2.9125,2.9943,3.0918,3.1159,3.1789,3.2295,3.2486,3.2554,3.2588,3.2672,3.2755,3.2804,3.2884,3.2997,3.3091,3.3135,3.3229,3.3322,3.3426,3.3495,3.3538,3.3563,3.3629,3.3602,3.3518,3.3243,3.2662,3.2112,3.1437,3.0754,3.0278,2.9926,2.9814,2.9784,2.9827,2.9935,3.0107,3.0297,3.0288,3.0202,3.0323,3.0519,3.0371,3.024,3.0273,3.0311,3.0374,3.0439,3.0544,3.0588,3.0632,2.7127,2.7127,2.7121,2.7122,2.6963,2.5817,2.5379,2.5456,2.5977,2.6953,2.8129,2.8935,2.9417,2.9768,2.9956,3.0106,3.003,2.9916,2.9849,2.9771,2.9746,2.971,2.9655,2.9617,2.9588,2.955,2.954,2.9521,2.9511,2.9531,2.9521,2.9521,2.9521,2.9433,2.9351,2.9299,2.9257,2.9211,2.9175,2.9119,2.9033,2.8982,2.8918,2.8864,2.8852,2.8833,2.8757,2.8742,2.8593,2.8483,2.8456,2.8291,2.8191,2.8164,2.8112,2.8071,2.8042,2.8266,2.8534,2.8596,2.8581,2.869,2.887,2.9556,3.0448,3.0922,3.1554,3.1993,3.2343,3.2655,3.2753,3.2786,3.2818,3.293,3.2993,3.2993,3.3055,3.3214,3.3304,3.3331,3.3408,3.3534,3.3647,3.3684,3.3726,3.378,3.3815,3.3881,3.383,3.3845,3.3536,3.3085,3.2467,3.1692,3.108,3.0763,3.0403,3.0322,3.0261,3.0219,3.0408,3.0822,3.0944,3.1065,3.1014,3.0941,3.0708,3.0515,3.0435,3.0461,3.0499,3.0519,3.0593,3.0636,3.0668,2.7991,2.7987,2.7993,2.7984,2.7825,2.6755,2.6259,2.6424,2.7133,2.8147,2.8997,2.9362,2.9761,3.0164,3.0239,3.0164,3.011,2.9999,2.9907,2.9832,2.9789,2.9755,2.9701,2.9655,2.9636,2.9608,2.9607,2.9579,2.9598,2.9569,2.9579,2.9579,2.9569,2.955,2.9501,2.9433,2.9382,2.9349,2.9278,2.9214,2.9252,2.9351,2.9474,2.9525,2.9612,2.974,2.9551,2.9324,2.9067,2.8949,2.8727,2.8504,2.8416,2.8336,2.8268,2.8196,2.8517,2.8792,2.9116,2.9647,2.9775,3.0202,3.0006,3.0444,3.1414,3.1785,3.219,3.2559,3.2736,3.2834,3.2948,3.2979,3.3008,3.3101,3.3162,3.3196,3.3241,3.3364,3.3466,3.3491,3.3573,3.3712,3.3829,3.3895,3.3934,3.3972,3.4023,3.4086,3.4136,3.4147,3.4111,3.3661,3.3254,3.2529,3.1968,3.1628,3.1264,3.0905,3.088,3.0942,3.1329,3.1836,3.1866,3.1891,3.1882,3.1712,3.109,3.0796,3.0678,3.0598,3.0586,3.0623,3.0647,3.0677,3.0711,2.8088,2.8068,2.8068,2.8165,2.8103,2.8058,2.7962,2.7976,2.8756,2.9145,2.9313,2.9988,3.0234,3.0248,3.0226,3.0171,3.0121,3.0026,2.9964,2.9907,2.9857,2.9816,2.9745,2.9699,2.9682,2.9673,2.9673,2.9655,2.9692,2.9655,2.9664,2.9673,2.9655,2.9758,2.9767,2.9803,2.9735,2.9732,2.9671,2.9731,2.9922,3.0217,3.036,3.0487,3.0692,3.0919,3.0754,3.0423,3.0104,2.9755,2.9279,2.8858,2.8631,2.8535,2.8509,2.8716,2.9309,2.9583,2.9978,3.0553,3.1142,3.1583,3.1617,3.1651,3.1847,3.2369,3.2686,3.2858,3.2979,3.3057,3.3119,3.3135,3.3132,3.3241,3.3334,3.3378,3.3422,3.3509,3.3577,3.3643,3.3739,3.3842,3.3972,3.4049,3.4111,3.4179,3.4245,3.4281,3.4347,3.4374,3.4259,3.3982,3.3595,3.3289,3.2845,3.2511,3.2144,3.1792,3.1984,3.2111,3.2516,3.2778,3.2795,3.2818,3.284,3.2525,3.1948,3.1346,3.0858,3.0811,3.0871,3.0653,3.0676,3.0688,3.0728,2.9863,2.9863,2.9843,2.9863,2.9843,2.9829,2.9501,2.8999,2.9168,2.9475,3.0084,3.0256,3.0336,3.0305,3.026,3.0226,3.0171,3.0106,3.0003,2.9948,2.9907,2.9849,2.977,2.9726,2.9699,2.97,2.9692,2.9692,2.9683,2.9683,2.9701,2.9701,2.9795,3.0039,3.033,3.0508,3.0497,3.0458,3.0406,3.0582,3.0924,3.1266,3.1377,3.1487,3.1591,3.1764,3.1587,3.1286,3.1004,3.0851,3.0609,3.0272,2.9591,3.0018,3.0314,3.0206,3.0472,3.0682,3.1261,3.1567,3.2047,3.2701,3.2781,3.2778,3.2804,3.286,3.307,3.3135,3.3165,3.3208,3.3271,3.3301,3.3331,3.3404,3.3495,3.352,3.3577,3.3661,3.3726,3.3788,3.3881,3.3985,3.4111,3.4185,3.4245,3.4363,3.4443,3.4495,3.4539,3.4564,3.4532,3.4257,3.4177,3.3951,3.3722,3.3396,3.3035,3.2775,3.2978,3.3234,3.3516,3.3712,3.3728,3.3667,3.3537,3.3244,3.2816,3.2208,3.154,3.1293,3.1271,3.0934,3.07,3.0725,3.0745,3.0617,3.0617,3.0617,3.0617,3.0617,3.0617,3.026,2.9854,2.9752,3.0036,3.0395,3.0419,3.0365,3.0304,3.0299,3.0273,3.018,3.0145,3.0079,3.0022,2.9956,2.991,2.9832,2.9789,2.9771,2.9745,2.9709,2.9701,2.9692,2.9692,2.9701,2.9739,2.9908,3.0415,3.0818,3.1165,3.1597,3.1594,3.162,3.1674,3.1912,3.2269,3.2348,3.2378,3.2428,3.2555,3.2494,3.2244,3.198,3.1857,3.1684,3.1126,3.0594,3.0925,3.1091,3.0984,3.1338,3.1578,3.2023,3.2494,3.2962,3.3303,3.3477,3.3383,3.3273,3.3262,3.3298,3.3345,3.3327,3.3342,3.3419,3.3477,3.3534,3.3595,3.3633,3.3671,3.3739,3.382,3.39,3.3959,3.4049,3.4148,3.4233,3.4293,3.4393,3.4495,3.4604,3.4697,3.471,3.4732,3.4762,3.4632,3.4699,3.4707,3.4447,3.4232,3.405,3.3903,3.4121,3.435,3.4566,3.4614,3.4603,3.4391,3.4116,3.3861,3.3645,3.2945,3.2346,3.2098,3.1743,3.1376,3.1042,3.0767,3.0781,3.0617,3.0617,3.0617,3.0617,3.0617,3.0593,3.0554,3.0593,3.0443,3.0481,3.0479,3.0422,3.0358,3.0322,3.0298,3.028,3.0227,3.0187,3.015,3.0095,3.003,2.9975,2.9918,2.9904,2.9842,2.9789,2.9754,2.9718,2.969,2.9729,2.9757,2.9823,3.0434,3.1006,3.1513,3.1963,3.2507,3.306,3.2785,3.2614,3.266,3.2946,3.3295,3.3385,3.3715,3.4061,3.3888,3.3481,3.2915,3.2631,3.2318,3.1832,3.1745,3.1474,3.1459,3.1749,3.2233,3.247,3.2776,3.3141,3.341,3.3592,3.3629,3.3629,3.3597,3.3488,3.3459,3.3491,3.3473,3.353,3.3587,3.3629,3.3684,3.3739,3.378,3.382,3.3847,3.3952,3.4049,3.4124,3.4185,3.4281,3.4393,3.4461,3.4539,3.4645,3.4718,3.482,3.4888,3.4908,3.4917,3.4936,3.5,3.5051,3.5024,3.4882,3.5047,3.5082,3.5096,3.5119,3.5084,3.5252,3.5476,3.5148,3.4796,3.471,3.4421,3.3783,3.3235,3.2861,3.2462,3.1902,3.1528,3.1304,3.0941,3.0617,3.0617,3.0617,3.0617,3.0593,3.0554,3.0525,3.0525,3.05,3.0485,3.0474,3.0425,3.039,3.0354,3.0316,3.0299,3.0273,3.0221,3.0159,3.0121,3.0068,3.0022,2.9967,2.9929,2.9885,2.987,2.9816,2.9754,2.9727,2.9784,3.0058,3.0546,3.1043,3.1531,3.2507,3.2958,3.3456,3.4095,3.3953,3.3717,3.3819,3.3955,3.4203,3.4181,3.4386,3.4358,3.4242,3.4102,3.3881,3.3771,3.3654,3.3481,3.3388,3.2709,3.2708,3.3149,3.3275,3.3348,3.3466,3.3645,3.3787,3.3868,3.3881,3.3895,3.3829,3.3652,3.3587,3.3615,3.3675,3.3712,3.3753,3.3793,3.3847,3.3881,3.3934,3.3934,3.3947,3.4074,3.4209,3.4269,3.4328,3.4409,3.4517,3.4604,3.4708,3.4761,3.4821,3.4908,3.502,3.5073,3.5107,3.5124,3.5124,3.519,3.5246,3.5293,3.5342,3.5386,3.5339,3.5438,3.5566,3.5583,3.5615,3.5654,3.5509,3.5312,3.508,3.4731,3.4216,3.37,3.331,3.2838,3.2697,3.251,3.1813,3.0569,3.054,3.0569,3.055,3.0564,3.053,3.0481,3.0495,3.0474,3.0444,3.0439,3.0425,3.0396,3.0404,3.0348,3.0311,3.0312,3.0273,3.0199,3.0135,3.0091,3.0046,2.9991,2.9943,2.9918,2.9893,2.9859,2.9816,2.982,3.0207,3.0612,3.1072,3.1475,3.2395,3.3446,3.3719,3.4095,3.4556,3.4612,3.4612,3.4612,3.4561,3.4539,3.4517,3.4495,3.4461,3.4427,3.4374,3.4328,3.4262,3.4122,3.4104,3.3932,3.3593,3.3611,3.3802,3.3937,3.3998,3.4023,3.4036,3.4049,3.4074,3.4086,3.4074,3.4055,3.3921,3.3855,3.3868,3.3842,3.3868,3.3881,3.3921,3.3959,3.3979,3.4043,3.4099,3.4161,3.4276,3.437,3.445,3.4506,3.455,3.4655,3.4751,3.4811,3.485,3.4898,3.4991,3.5117,3.5212,3.5242,3.5281,3.5281,3.5324,3.5383,3.5412,3.5441,3.5501,3.5528,3.5577,3.5629,3.5672,3.5694,3.5736,3.5771,3.5749,3.5493,3.5251,3.4913,3.4388,3.4092,3.3829,3.3742,3.3592,3.2988,3.0554,3.051,3.049,3.0485,3.0485,3.0499,3.0474,3.0488,3.0422,3.0406,3.0381,3.04,3.0383,3.039,3.0379,3.0356,3.0318,3.0273,3.0187,3.015,3.0098,3.0061,3.0014,2.9948,2.9916,2.9918,2.9893,2.9976,3.0065,3.0518,3.0998,3.1438,3.2357,3.3446,3.3719,3.4113,3.4612,3.4594,3.4612,3.4612,3.4612,3.4612,3.4583,3.4561,3.455,3.4517,3.4495,3.4473,3.442,3.4374,3.434,3.4305,3.4281,3.4103,3.411,3.4209,3.4209,3.4197,3.4209,3.4209,3.4221,3.4221,3.4221,3.4221,3.4221,3.4197,3.4136,3.4099,3.4043,3.4018,3.4049,3.4061,3.408,3.4117,3.4209,3.4269,3.437,3.4427,3.4506,3.4594,3.4655,3.4687,3.4761,3.486,3.4917,3.4945,3.5019,3.5107,3.5209,3.5293,3.5346,3.5383,3.5412,3.546,3.5514,3.5515,3.5534,3.554,3.5595,3.5643,3.5679,3.5718,3.5765,3.5799,3.5834,3.5843,3.5869,3.5699,3.534,3.4991,3.4943,3.4756,3.4568,3.4394,3.41,3.0514,3.049,3.0485,3.0485,3.0479,3.0433,3.0422,3.0422,3.0408,3.0385,3.0348,3.0328,3.0328,3.0398,3.0342,3.0305,3.0305,3.0241,3.0226,3.0197,3.0125,3.0095,3.0038,2.9929,2.9924,2.9899,2.9969,3.0229,3.0489,3.0913,3.1703,3.2762,3.2949,3.3738,3.4349,3.4612,3.4612,3.4612,3.4612,3.4612,3.4612,3.4612,3.4612,3.4602,3.4591,3.4591,3.4591,3.458,3.4528,3.4484,3.4439,3.4397,3.4397,3.4416,3.4404,3.4386,3.4404,3.4404,3.4404,3.4404,3.4397,3.4386,3.4404,3.4393,3.4393,3.4393,3.4358,3.4328,3.4293,3.4245,3.4245,3.4269,3.4305,3.4328,3.4374,3.445,3.4517,3.458,3.4623,3.4687,3.4768,3.48,3.486,3.4936,3.5001,3.5046,3.5124,3.5226,3.5297,3.5369,3.5439,3.5468,3.5502,3.5554,3.5598,3.5578,3.5577,3.5604,3.5648,3.5704,3.5741,3.5778,3.5807,3.5841,3.5853,3.5878,3.5899,3.5936,3.5857,3.5603,3.5731,3.5659,3.5429,3.5214,3.4936]}]]